<?xml version="1.0" encoding="UTF-8" standalone="no" ?>
<gpx xmlns="http://www.topografix.com/GPX/1/1" xmlns:xsi="http://www.w3.org/2001/XMLSchema-instance" xsi:schemaLocation="http://www.topografix.com/GPX/1/1 http://www.topografix.com/GPX/1/1/gpx.xsd" version="1.1" creator="VisuGPX - https://www.visugpx.com">
  <metadata>
    <name>2023-09-07-46-St cirice</name>
    <desc><![CDATA[Randonnée de 10 km pour environ 300m de dénivelé positif. Nous commencerons par un peu de route avant de rejoindre un sentier descendant jusqu'au faubourg de Cahors. Une belle montée, hors piste, à travers la colline vous permettra de rejoindre le GR 65 et profiter des paysages du causse. Une fin de parcours en pleine nature sur des sentiers ombragés
]]></desc>
  </metadata>
  <trk>
    <name><![CDATA[St cirice 07/09/2023 11h52]]></name>
    <trkseg>
      <trkpt lat="44.42753" lon="1.4818">
        <ele>291.7</ele>
        <time>2023-09-07T06:33:28Z</time>
      </trkpt>
      <trkpt lat="44.42748" lon="1.48182">
        <ele>291.8</ele>
        <time>2023-09-07T06:33:35Z</time>
      </trkpt>
      <trkpt lat="44.42743" lon="1.48186">
        <ele>292.2</ele>
        <time>2023-09-07T06:33:39Z</time>
      </trkpt>
      <trkpt lat="44.42738" lon="1.48188">
        <ele>290.8</ele>
        <time>2023-09-07T06:33:43Z</time>
      </trkpt>
      <trkpt lat="44.42734" lon="1.48191">
        <ele>291.2</ele>
        <time>2023-09-07T06:33:47Z</time>
      </trkpt>
      <trkpt lat="44.42729" lon="1.48194">
        <ele>290.7</ele>
        <time>2023-09-07T06:33:50Z</time>
      </trkpt>
      <trkpt lat="44.42726" lon="1.48198">
        <ele>290.5</ele>
        <time>2023-09-07T06:33:53Z</time>
      </trkpt>
      <trkpt lat="44.42721" lon="1.48203">
        <ele>290.4</ele>
        <time>2023-09-07T06:33:57Z</time>
      </trkpt>
      <trkpt lat="44.42716" lon="1.48207">
        <ele>291.2</ele>
        <time>2023-09-07T06:34:01Z</time>
      </trkpt>
      <trkpt lat="44.42712" lon="1.48211">
        <ele>291.8</ele>
        <time>2023-09-07T06:34:05Z</time>
      </trkpt>
      <trkpt lat="44.42707" lon="1.48215">
        <ele>291.6</ele>
        <time>2023-09-07T06:34:09Z</time>
      </trkpt>
      <trkpt lat="44.42702" lon="1.48219">
        <ele>290.8</ele>
        <time>2023-09-07T06:34:13Z</time>
      </trkpt>
      <trkpt lat="44.42698" lon="1.48222">
        <ele>290.7</ele>
        <time>2023-09-07T06:34:17Z</time>
      </trkpt>
      <trkpt lat="44.42693" lon="1.48225">
        <ele>290.5</ele>
        <time>2023-09-07T06:34:21Z</time>
      </trkpt>
      <trkpt lat="44.42689" lon="1.48229">
        <ele>289.8</ele>
        <time>2023-09-07T06:34:25Z</time>
      </trkpt>
      <trkpt lat="44.42685" lon="1.48233">
        <ele>289.6</ele>
        <time>2023-09-07T06:34:29Z</time>
      </trkpt>
      <trkpt lat="44.4268" lon="1.48236">
        <ele>288.8</ele>
        <time>2023-09-07T06:34:33Z</time>
      </trkpt>
      <trkpt lat="44.42675" lon="1.48239">
        <ele>289.1</ele>
        <time>2023-09-07T06:34:37Z</time>
      </trkpt>
      <trkpt lat="44.42669" lon="1.48242">
        <ele>288.9</ele>
        <time>2023-09-07T06:34:41Z</time>
      </trkpt>
      <trkpt lat="44.42665" lon="1.48244">
        <ele>288.5</ele>
        <time>2023-09-07T06:34:44Z</time>
      </trkpt>
      <trkpt lat="44.4266" lon="1.48247">
        <ele>287.8</ele>
        <time>2023-09-07T06:34:48Z</time>
      </trkpt>
      <trkpt lat="44.42655" lon="1.48249">
        <ele>287.6</ele>
        <time>2023-09-07T06:34:51Z</time>
      </trkpt>
      <trkpt lat="44.4265" lon="1.48253">
        <ele>287.5</ele>
        <time>2023-09-07T06:34:55Z</time>
      </trkpt>
      <trkpt lat="44.42645" lon="1.48257">
        <ele>287.8</ele>
        <time>2023-09-07T06:34:59Z</time>
      </trkpt>
      <trkpt lat="44.42642" lon="1.48262">
        <ele>290.7</ele>
        <time>2023-09-07T06:35:02Z</time>
      </trkpt>
      <trkpt lat="44.42637" lon="1.48265">
        <ele>291.6</ele>
        <time>2023-09-07T06:35:06Z</time>
      </trkpt>
      <trkpt lat="44.42633" lon="1.48269">
        <ele>291.4</ele>
        <time>2023-09-07T06:35:10Z</time>
      </trkpt>
      <trkpt lat="44.42628" lon="1.48271">
        <ele>291.4</ele>
        <time>2023-09-07T06:35:14Z</time>
      </trkpt>
      <trkpt lat="44.42622" lon="1.48273">
        <ele>291.1</ele>
        <time>2023-09-07T06:35:18Z</time>
      </trkpt>
      <trkpt lat="44.42618" lon="1.48276">
        <ele>291.4</ele>
        <time>2023-09-07T06:35:21Z</time>
      </trkpt>
      <trkpt lat="44.42614" lon="1.48279">
        <ele>291.5</ele>
        <time>2023-09-07T06:35:24Z</time>
      </trkpt>
      <trkpt lat="44.4261" lon="1.48281">
        <ele>291.5</ele>
        <time>2023-09-07T06:35:27Z</time>
      </trkpt>
      <trkpt lat="44.42604" lon="1.48283">
        <ele>291</ele>
        <time>2023-09-07T06:35:31Z</time>
      </trkpt>
      <trkpt lat="44.42599" lon="1.48284">
        <ele>290.8</ele>
        <time>2023-09-07T06:35:35Z</time>
      </trkpt>
      <trkpt lat="44.42593" lon="1.48284">
        <ele>291.3</ele>
        <time>2023-09-07T06:35:39Z</time>
      </trkpt>
      <trkpt lat="44.42588" lon="1.4828">
        <ele>292.4</ele>
        <time>2023-09-07T06:35:43Z</time>
      </trkpt>
      <trkpt lat="44.42584" lon="1.48275">
        <ele>292.3</ele>
        <time>2023-09-07T06:35:47Z</time>
      </trkpt>
      <trkpt lat="44.4258" lon="1.4827">
        <ele>292.5</ele>
        <time>2023-09-07T06:35:51Z</time>
      </trkpt>
      <trkpt lat="44.42576" lon="1.48266">
        <ele>292.1</ele>
        <time>2023-09-07T06:35:55Z</time>
      </trkpt>
      <trkpt lat="44.42572" lon="1.48264">
        <ele>292.1</ele>
        <time>2023-09-07T06:35:59Z</time>
      </trkpt>
      <trkpt lat="44.42568" lon="1.48259">
        <ele>293.1</ele>
        <time>2023-09-07T06:36:03Z</time>
      </trkpt>
      <trkpt lat="44.42564" lon="1.48255">
        <ele>292.8</ele>
        <time>2023-09-07T06:36:07Z</time>
      </trkpt>
      <trkpt lat="44.4256" lon="1.48253">
        <ele>293.1</ele>
        <time>2023-09-07T06:36:11Z</time>
      </trkpt>
      <trkpt lat="44.42556" lon="1.4825">
        <ele>293.5</ele>
        <time>2023-09-07T06:36:15Z</time>
      </trkpt>
      <trkpt lat="44.42551" lon="1.48246">
        <ele>292</ele>
        <time>2023-09-07T06:36:20Z</time>
      </trkpt>
      <trkpt lat="44.42547" lon="1.48242">
        <ele>291.3</ele>
        <time>2023-09-07T06:36:24Z</time>
      </trkpt>
      <trkpt lat="44.42543" lon="1.48239">
        <ele>289.7</ele>
        <time>2023-09-07T06:36:28Z</time>
      </trkpt>
      <trkpt lat="44.42539" lon="1.48236">
        <ele>288.9</ele>
        <time>2023-09-07T06:36:32Z</time>
      </trkpt>
      <trkpt lat="44.42534" lon="1.48234">
        <ele>289</ele>
        <time>2023-09-07T06:36:36Z</time>
      </trkpt>
      <trkpt lat="44.42529" lon="1.48231">
        <ele>288.1</ele>
        <time>2023-09-07T06:36:40Z</time>
      </trkpt>
      <trkpt lat="44.42525" lon="1.48227">
        <ele>288.1</ele>
        <time>2023-09-07T06:36:44Z</time>
      </trkpt>
      <trkpt lat="44.4252" lon="1.48224">
        <ele>288.6</ele>
        <time>2023-09-07T06:36:48Z</time>
      </trkpt>
      <trkpt lat="44.42516" lon="1.48219">
        <ele>287.7</ele>
        <time>2023-09-07T06:36:52Z</time>
      </trkpt>
      <trkpt lat="44.42513" lon="1.48213">
        <ele>285.2</ele>
        <time>2023-09-07T06:36:56Z</time>
      </trkpt>
      <trkpt lat="44.42509" lon="1.48206">
        <ele>284</ele>
        <time>2023-09-07T06:37:00Z</time>
      </trkpt>
      <trkpt lat="44.42506" lon="1.482">
        <ele>281.3</ele>
        <time>2023-09-07T06:37:04Z</time>
      </trkpt>
      <trkpt lat="44.42504" lon="1.48194">
        <ele>280.4</ele>
        <time>2023-09-07T06:37:08Z</time>
      </trkpt>
      <trkpt lat="44.42501" lon="1.48188">
        <ele>280.5</ele>
        <time>2023-09-07T06:37:12Z</time>
      </trkpt>
      <trkpt lat="44.42498" lon="1.48181">
        <ele>279.5</ele>
        <time>2023-09-07T06:37:16Z</time>
      </trkpt>
      <trkpt lat="44.42497" lon="1.48174">
        <ele>279</ele>
        <time>2023-09-07T06:37:20Z</time>
      </trkpt>
      <trkpt lat="44.42495" lon="1.48166">
        <ele>281.3</ele>
        <time>2023-09-07T06:37:24Z</time>
      </trkpt>
      <trkpt lat="44.42494" lon="1.48159">
        <ele>281.7</ele>
        <time>2023-09-07T06:37:28Z</time>
      </trkpt>
      <trkpt lat="44.42495" lon="1.48151">
        <ele>281.4</ele>
        <time>2023-09-07T06:37:32Z</time>
      </trkpt>
      <trkpt lat="44.42496" lon="1.48143">
        <ele>281.3</ele>
        <time>2023-09-07T06:37:36Z</time>
      </trkpt>
      <trkpt lat="44.42497" lon="1.48136">
        <ele>280.7</ele>
        <time>2023-09-07T06:37:40Z</time>
      </trkpt>
      <trkpt lat="44.42499" lon="1.48128">
        <ele>279.8</ele>
        <time>2023-09-07T06:37:44Z</time>
      </trkpt>
      <trkpt lat="44.42501" lon="1.48122">
        <ele>281.1</ele>
        <time>2023-09-07T06:37:47Z</time>
      </trkpt>
      <trkpt lat="44.42503" lon="1.48115">
        <ele>282.5</ele>
        <time>2023-09-07T06:37:51Z</time>
      </trkpt>
      <trkpt lat="44.42505" lon="1.48109">
        <ele>282.2</ele>
        <time>2023-09-07T06:37:55Z</time>
      </trkpt>
      <trkpt lat="44.42506" lon="1.48102">
        <ele>283.4</ele>
        <time>2023-09-07T06:37:59Z</time>
      </trkpt>
      <trkpt lat="44.42507" lon="1.48095">
        <ele>284.9</ele>
        <time>2023-09-07T06:38:03Z</time>
      </trkpt>
      <trkpt lat="44.42508" lon="1.48088">
        <ele>286.5</ele>
        <time>2023-09-07T06:38:07Z</time>
      </trkpt>
      <trkpt lat="44.42509" lon="1.4808">
        <ele>285.9</ele>
        <time>2023-09-07T06:38:11Z</time>
      </trkpt>
      <trkpt lat="44.4251" lon="1.48072">
        <ele>285.1</ele>
        <time>2023-09-07T06:38:15Z</time>
      </trkpt>
      <trkpt lat="44.42511" lon="1.48064">
        <ele>284</ele>
        <time>2023-09-07T06:38:19Z</time>
      </trkpt>
      <trkpt lat="44.42512" lon="1.48057">
        <ele>283.3</ele>
        <time>2023-09-07T06:38:23Z</time>
      </trkpt>
      <trkpt lat="44.42514" lon="1.4805">
        <ele>283.5</ele>
        <time>2023-09-07T06:38:27Z</time>
      </trkpt>
      <trkpt lat="44.42515" lon="1.48042">
        <ele>283.6</ele>
        <time>2023-09-07T06:38:31Z</time>
      </trkpt>
      <trkpt lat="44.42517" lon="1.48036">
        <ele>282.9</ele>
        <time>2023-09-07T06:38:35Z</time>
      </trkpt>
      <trkpt lat="44.42518" lon="1.48029">
        <ele>282.7</ele>
        <time>2023-09-07T06:38:39Z</time>
      </trkpt>
      <trkpt lat="44.42519" lon="1.48023">
        <ele>282.1</ele>
        <time>2023-09-07T06:38:43Z</time>
      </trkpt>
      <trkpt lat="44.42521" lon="1.48015">
        <ele>282.1</ele>
        <time>2023-09-07T06:38:47Z</time>
      </trkpt>
      <trkpt lat="44.42522" lon="1.48009">
        <ele>281.7</ele>
        <time>2023-09-07T06:38:51Z</time>
      </trkpt>
      <trkpt lat="44.42524" lon="1.48003">
        <ele>280.3</ele>
        <time>2023-09-07T06:38:55Z</time>
      </trkpt>
      <trkpt lat="44.42525" lon="1.47996">
        <ele>279.6</ele>
        <time>2023-09-07T06:38:59Z</time>
      </trkpt>
      <trkpt lat="44.42526" lon="1.47988">
        <ele>279.6</ele>
        <time>2023-09-07T06:39:04Z</time>
      </trkpt>
      <trkpt lat="44.42529" lon="1.47983">
        <ele>277.6</ele>
        <time>2023-09-07T06:39:08Z</time>
      </trkpt>
      <trkpt lat="44.42531" lon="1.47977">
        <ele>280.2</ele>
        <time>2023-09-07T06:39:12Z</time>
      </trkpt>
      <trkpt lat="44.42533" lon="1.4797">
        <ele>280.1</ele>
        <time>2023-09-07T06:39:16Z</time>
      </trkpt>
      <trkpt lat="44.42534" lon="1.47963">
        <ele>279.7</ele>
        <time>2023-09-07T06:39:20Z</time>
      </trkpt>
      <trkpt lat="44.42535" lon="1.47956">
        <ele>278.9</ele>
        <time>2023-09-07T06:39:24Z</time>
      </trkpt>
      <trkpt lat="44.42537" lon="1.47949">
        <ele>278.5</ele>
        <time>2023-09-07T06:39:28Z</time>
      </trkpt>
      <trkpt lat="44.42538" lon="1.47942">
        <ele>278.7</ele>
        <time>2023-09-07T06:39:32Z</time>
      </trkpt>
      <trkpt lat="44.4254" lon="1.47935">
        <ele>279.3</ele>
        <time>2023-09-07T06:39:36Z</time>
      </trkpt>
      <trkpt lat="44.42543" lon="1.47929">
        <ele>279.1</ele>
        <time>2023-09-07T06:39:40Z</time>
      </trkpt>
      <trkpt lat="44.42546" lon="1.47923">
        <ele>278.6</ele>
        <time>2023-09-07T06:39:44Z</time>
      </trkpt>
      <trkpt lat="44.42547" lon="1.47916">
        <ele>277</ele>
        <time>2023-09-07T06:39:48Z</time>
      </trkpt>
      <trkpt lat="44.42548" lon="1.47908">
        <ele>276.1</ele>
        <time>2023-09-07T06:39:52Z</time>
      </trkpt>
      <trkpt lat="44.42549" lon="1.47901">
        <ele>276.1</ele>
        <time>2023-09-07T06:39:56Z</time>
      </trkpt>
      <trkpt lat="44.42551" lon="1.47894">
        <ele>276.1</ele>
        <time>2023-09-07T06:40:00Z</time>
      </trkpt>
      <trkpt lat="44.42553" lon="1.47887">
        <ele>276.3</ele>
        <time>2023-09-07T06:40:04Z</time>
      </trkpt>
      <trkpt lat="44.42555" lon="1.47881">
        <ele>276.2</ele>
        <time>2023-09-07T06:40:08Z</time>
      </trkpt>
      <trkpt lat="44.42558" lon="1.47875">
        <ele>275.8</ele>
        <time>2023-09-07T06:40:12Z</time>
      </trkpt>
      <trkpt lat="44.4256" lon="1.4787">
        <ele>276.9</ele>
        <time>2023-09-07T06:40:16Z</time>
      </trkpt>
      <trkpt lat="44.42564" lon="1.47864">
        <ele>277</ele>
        <time>2023-09-07T06:40:20Z</time>
      </trkpt>
      <trkpt lat="44.42567" lon="1.47859">
        <ele>277.1</ele>
        <time>2023-09-07T06:40:24Z</time>
      </trkpt>
      <trkpt lat="44.4257" lon="1.47854">
        <ele>277.2</ele>
        <time>2023-09-07T06:40:28Z</time>
      </trkpt>
      <trkpt lat="44.42574" lon="1.47849">
        <ele>278.2</ele>
        <time>2023-09-07T06:40:32Z</time>
      </trkpt>
      <trkpt lat="44.42577" lon="1.47843">
        <ele>278.7</ele>
        <time>2023-09-07T06:40:36Z</time>
      </trkpt>
      <trkpt lat="44.4258" lon="1.47838">
        <ele>278.6</ele>
        <time>2023-09-07T06:40:40Z</time>
      </trkpt>
      <trkpt lat="44.42583" lon="1.47832">
        <ele>278.5</ele>
        <time>2023-09-07T06:40:44Z</time>
      </trkpt>
      <trkpt lat="44.42584" lon="1.47825">
        <ele>281.9</ele>
        <time>2023-09-07T06:40:48Z</time>
      </trkpt>
      <trkpt lat="44.42585" lon="1.47818">
        <ele>282.2</ele>
        <time>2023-09-07T06:40:52Z</time>
      </trkpt>
      <trkpt lat="44.42588" lon="1.47813">
        <ele>283</ele>
        <time>2023-09-07T06:40:56Z</time>
      </trkpt>
      <trkpt lat="44.4259" lon="1.47807">
        <ele>283.7</ele>
        <time>2023-09-07T06:41:00Z</time>
      </trkpt>
      <trkpt lat="44.42592" lon="1.47801">
        <ele>283.7</ele>
        <time>2023-09-07T06:41:04Z</time>
      </trkpt>
      <trkpt lat="44.42594" lon="1.47795">
        <ele>282.7</ele>
        <time>2023-09-07T06:41:08Z</time>
      </trkpt>
      <trkpt lat="44.42596" lon="1.47789">
        <ele>282</ele>
        <time>2023-09-07T06:41:12Z</time>
      </trkpt>
      <trkpt lat="44.42598" lon="1.47782">
        <ele>281.9</ele>
        <time>2023-09-07T06:41:16Z</time>
      </trkpt>
      <trkpt lat="44.42599" lon="1.47776">
        <ele>281.6</ele>
        <time>2023-09-07T06:41:20Z</time>
      </trkpt>
      <trkpt lat="44.42601" lon="1.47769">
        <ele>280.8</ele>
        <time>2023-09-07T06:41:24Z</time>
      </trkpt>
      <trkpt lat="44.42603" lon="1.47763">
        <ele>279.5</ele>
        <time>2023-09-07T06:41:29Z</time>
      </trkpt>
      <trkpt lat="44.42605" lon="1.47756">
        <ele>279.2</ele>
        <time>2023-09-07T06:41:33Z</time>
      </trkpt>
      <trkpt lat="44.42607" lon="1.47749">
        <ele>278.8</ele>
        <time>2023-09-07T06:41:37Z</time>
      </trkpt>
      <trkpt lat="44.42609" lon="1.47741">
        <ele>278.8</ele>
        <time>2023-09-07T06:41:41Z</time>
      </trkpt>
      <trkpt lat="44.42611" lon="1.47733">
        <ele>279.1</ele>
        <time>2023-09-07T06:41:45Z</time>
      </trkpt>
      <trkpt lat="44.42612" lon="1.47726">
        <ele>279.2</ele>
        <time>2023-09-07T06:41:49Z</time>
      </trkpt>
      <trkpt lat="44.42614" lon="1.47718">
        <ele>278.8</ele>
        <time>2023-09-07T06:41:53Z</time>
      </trkpt>
      <trkpt lat="44.42616" lon="1.47711">
        <ele>277.9</ele>
        <time>2023-09-07T06:41:57Z</time>
      </trkpt>
      <trkpt lat="44.42618" lon="1.47704">
        <ele>277.7</ele>
        <time>2023-09-07T06:42:01Z</time>
      </trkpt>
      <trkpt lat="44.4262" lon="1.47697">
        <ele>277.7</ele>
        <time>2023-09-07T06:42:05Z</time>
      </trkpt>
      <trkpt lat="44.42623" lon="1.4769">
        <ele>278.6</ele>
        <time>2023-09-07T06:42:09Z</time>
      </trkpt>
      <trkpt lat="44.42625" lon="1.47683">
        <ele>278.2</ele>
        <time>2023-09-07T06:42:13Z</time>
      </trkpt>
      <trkpt lat="44.42627" lon="1.47676">
        <ele>278</ele>
        <time>2023-09-07T06:42:17Z</time>
      </trkpt>
      <trkpt lat="44.4263" lon="1.4767">
        <ele>278.1</ele>
        <time>2023-09-07T06:42:21Z</time>
      </trkpt>
      <trkpt lat="44.42632" lon="1.47663">
        <ele>278.2</ele>
        <time>2023-09-07T06:42:25Z</time>
      </trkpt>
      <trkpt lat="44.42635" lon="1.47656">
        <ele>278.2</ele>
        <time>2023-09-07T06:42:29Z</time>
      </trkpt>
      <trkpt lat="44.42637" lon="1.4765">
        <ele>277.8</ele>
        <time>2023-09-07T06:42:33Z</time>
      </trkpt>
      <trkpt lat="44.42639" lon="1.47642">
        <ele>277.6</ele>
        <time>2023-09-07T06:42:37Z</time>
      </trkpt>
      <trkpt lat="44.42642" lon="1.47636">
        <ele>277.3</ele>
        <time>2023-09-07T06:42:41Z</time>
      </trkpt>
      <trkpt lat="44.42645" lon="1.47631">
        <ele>277.2</ele>
        <time>2023-09-07T06:42:45Z</time>
      </trkpt>
      <trkpt lat="44.42647" lon="1.47626">
        <ele>276.8</ele>
        <time>2023-09-07T06:42:49Z</time>
      </trkpt>
      <trkpt lat="44.42651" lon="1.4762">
        <ele>277</ele>
        <time>2023-09-07T06:42:53Z</time>
      </trkpt>
      <trkpt lat="44.42654" lon="1.47615">
        <ele>277.2</ele>
        <time>2023-09-07T06:42:57Z</time>
      </trkpt>
      <trkpt lat="44.42658" lon="1.47609">
        <ele>277.4</ele>
        <time>2023-09-07T06:43:01Z</time>
      </trkpt>
      <trkpt lat="44.42661" lon="1.47603">
        <ele>277.6</ele>
        <time>2023-09-07T06:43:05Z</time>
      </trkpt>
      <trkpt lat="44.42664" lon="1.47596">
        <ele>278.4</ele>
        <time>2023-09-07T06:43:09Z</time>
      </trkpt>
      <trkpt lat="44.42667" lon="1.47591">
        <ele>279.5</ele>
        <time>2023-09-07T06:43:13Z</time>
      </trkpt>
      <trkpt lat="44.42671" lon="1.47586">
        <ele>280.6</ele>
        <time>2023-09-07T06:43:17Z</time>
      </trkpt>
      <trkpt lat="44.42675" lon="1.47581">
        <ele>281.3</ele>
        <time>2023-09-07T06:43:21Z</time>
      </trkpt>
      <trkpt lat="44.42679" lon="1.47577">
        <ele>281.7</ele>
        <time>2023-09-07T06:43:25Z</time>
      </trkpt>
      <trkpt lat="44.42683" lon="1.47573">
        <ele>281.1</ele>
        <time>2023-09-07T06:43:29Z</time>
      </trkpt>
      <trkpt lat="44.42686" lon="1.47569">
        <ele>281.3</ele>
        <time>2023-09-07T06:43:33Z</time>
      </trkpt>
      <trkpt lat="44.4269" lon="1.47564">
        <ele>282</ele>
        <time>2023-09-07T06:43:37Z</time>
      </trkpt>
      <trkpt lat="44.42693" lon="1.4756">
        <ele>282.2</ele>
        <time>2023-09-07T06:43:41Z</time>
      </trkpt>
      <trkpt lat="44.42697" lon="1.47556">
        <ele>282.5</ele>
        <time>2023-09-07T06:43:45Z</time>
      </trkpt>
      <trkpt lat="44.42702" lon="1.47551">
        <ele>283.3</ele>
        <time>2023-09-07T06:43:49Z</time>
      </trkpt>
      <trkpt lat="44.42705" lon="1.47547">
        <ele>284.1</ele>
        <time>2023-09-07T06:43:52Z</time>
      </trkpt>
      <trkpt lat="44.42709" lon="1.47542">
        <ele>284.8</ele>
        <time>2023-09-07T06:43:56Z</time>
      </trkpt>
      <trkpt lat="44.42713" lon="1.47537">
        <ele>285.1</ele>
        <time>2023-09-07T06:44:00Z</time>
      </trkpt>
      <trkpt lat="44.42717" lon="1.47533">
        <ele>285.4</ele>
        <time>2023-09-07T06:44:04Z</time>
      </trkpt>
      <trkpt lat="44.42721" lon="1.47529">
        <ele>286.1</ele>
        <time>2023-09-07T06:44:07Z</time>
      </trkpt>
      <trkpt lat="44.42725" lon="1.47525">
        <ele>286.8</ele>
        <time>2023-09-07T06:44:10Z</time>
      </trkpt>
      <trkpt lat="44.4273" lon="1.47521">
        <ele>287.4</ele>
        <time>2023-09-07T06:44:14Z</time>
      </trkpt>
      <trkpt lat="44.42734" lon="1.47516">
        <ele>288.2</ele>
        <time>2023-09-07T06:44:18Z</time>
      </trkpt>
      <trkpt lat="44.42738" lon="1.47509">
        <ele>288.3</ele>
        <time>2023-09-07T06:44:23Z</time>
      </trkpt>
      <trkpt lat="44.42743" lon="1.47506">
        <ele>287.7</ele>
        <time>2023-09-07T06:44:26Z</time>
      </trkpt>
      <trkpt lat="44.42747" lon="1.47501">
        <ele>286.8</ele>
        <time>2023-09-07T06:44:30Z</time>
      </trkpt>
      <trkpt lat="44.42752" lon="1.47497">
        <ele>286.7</ele>
        <time>2023-09-07T06:44:35Z</time>
      </trkpt>
      <trkpt lat="44.42756" lon="1.47493">
        <ele>286.9</ele>
        <time>2023-09-07T06:44:39Z</time>
      </trkpt>
      <trkpt lat="44.4276" lon="1.47489">
        <ele>287.2</ele>
        <time>2023-09-07T06:44:43Z</time>
      </trkpt>
      <trkpt lat="44.42763" lon="1.47485">
        <ele>288.1</ele>
        <time>2023-09-07T06:44:47Z</time>
      </trkpt>
      <trkpt lat="44.42767" lon="1.47481">
        <ele>288.2</ele>
        <time>2023-09-07T06:44:51Z</time>
      </trkpt>
      <trkpt lat="44.42772" lon="1.47477">
        <ele>287.7</ele>
        <time>2023-09-07T06:44:56Z</time>
      </trkpt>
      <trkpt lat="44.42776" lon="1.47472">
        <ele>287.2</ele>
        <time>2023-09-07T06:45:00Z</time>
      </trkpt>
      <trkpt lat="44.4278" lon="1.47468">
        <ele>287.2</ele>
        <time>2023-09-07T06:45:04Z</time>
      </trkpt>
      <trkpt lat="44.42783" lon="1.47463">
        <ele>287.5</ele>
        <time>2023-09-07T06:45:08Z</time>
      </trkpt>
      <trkpt lat="44.42787" lon="1.47458">
        <ele>288.1</ele>
        <time>2023-09-07T06:45:12Z</time>
      </trkpt>
      <trkpt lat="44.4279" lon="1.47452">
        <ele>288.9</ele>
        <time>2023-09-07T06:45:16Z</time>
      </trkpt>
      <trkpt lat="44.42793" lon="1.47445">
        <ele>289.3</ele>
        <time>2023-09-07T06:45:20Z</time>
      </trkpt>
      <trkpt lat="44.42796" lon="1.47439">
        <ele>289</ele>
        <time>2023-09-07T06:45:24Z</time>
      </trkpt>
      <trkpt lat="44.42798" lon="1.47433">
        <ele>289</ele>
        <time>2023-09-07T06:45:28Z</time>
      </trkpt>
      <trkpt lat="44.428" lon="1.47426">
        <ele>289.9</ele>
        <time>2023-09-07T06:45:32Z</time>
      </trkpt>
      <trkpt lat="44.42801" lon="1.47419">
        <ele>290.2</ele>
        <time>2023-09-07T06:45:36Z</time>
      </trkpt>
      <trkpt lat="44.42802" lon="1.47412">
        <ele>289.3</ele>
        <time>2023-09-07T06:45:40Z</time>
      </trkpt>
      <trkpt lat="44.42803" lon="1.47405">
        <ele>289</ele>
        <time>2023-09-07T06:45:44Z</time>
      </trkpt>
      <trkpt lat="44.42803" lon="1.47398">
        <ele>289</ele>
        <time>2023-09-07T06:45:48Z</time>
      </trkpt>
      <trkpt lat="44.42804" lon="1.47391">
        <ele>289.3</ele>
        <time>2023-09-07T06:45:52Z</time>
      </trkpt>
      <trkpt lat="44.42805" lon="1.47384">
        <ele>287.6</ele>
        <time>2023-09-07T06:45:56Z</time>
      </trkpt>
      <trkpt lat="44.42805" lon="1.47378">
        <ele>287.2</ele>
        <time>2023-09-07T06:46:00Z</time>
      </trkpt>
      <trkpt lat="44.42806" lon="1.47372">
        <ele>288.2</ele>
        <time>2023-09-07T06:46:04Z</time>
      </trkpt>
      <trkpt lat="44.42807" lon="1.47364">
        <ele>288</ele>
        <time>2023-09-07T06:46:09Z</time>
      </trkpt>
      <trkpt lat="44.42808" lon="1.47358">
        <ele>289</ele>
        <time>2023-09-07T06:46:13Z</time>
      </trkpt>
      <trkpt lat="44.42809" lon="1.47352">
        <ele>290.6</ele>
        <time>2023-09-07T06:46:17Z</time>
      </trkpt>
      <trkpt lat="44.42809" lon="1.47345">
        <ele>290.6</ele>
        <time>2023-09-07T06:46:21Z</time>
      </trkpt>
      <trkpt lat="44.42809" lon="1.47339">
        <ele>290.1</ele>
        <time>2023-09-07T06:46:25Z</time>
      </trkpt>
      <trkpt lat="44.4281" lon="1.47332">
        <ele>289.7</ele>
        <time>2023-09-07T06:46:29Z</time>
      </trkpt>
      <trkpt lat="44.42811" lon="1.47325">
        <ele>288.4</ele>
        <time>2023-09-07T06:46:33Z</time>
      </trkpt>
      <trkpt lat="44.42812" lon="1.47318">
        <ele>286.3</ele>
        <time>2023-09-07T06:46:37Z</time>
      </trkpt>
      <trkpt lat="44.42812" lon="1.4731">
        <ele>287.3</ele>
        <time>2023-09-07T06:46:41Z</time>
      </trkpt>
      <trkpt lat="44.42813" lon="1.47304">
        <ele>285.8</ele>
        <time>2023-09-07T06:46:45Z</time>
      </trkpt>
      <trkpt lat="44.42813" lon="1.47298">
        <ele>285.7</ele>
        <time>2023-09-07T06:46:49Z</time>
      </trkpt>
      <trkpt lat="44.42813" lon="1.47291">
        <ele>285.1</ele>
        <time>2023-09-07T06:46:53Z</time>
      </trkpt>
      <trkpt lat="44.42814" lon="1.47284">
        <ele>285.1</ele>
        <time>2023-09-07T06:46:57Z</time>
      </trkpt>
      <trkpt lat="44.42813" lon="1.47278">
        <ele>283.5</ele>
        <time>2023-09-07T06:47:01Z</time>
      </trkpt>
      <trkpt lat="44.42813" lon="1.47271">
        <ele>283.2</ele>
        <time>2023-09-07T06:47:05Z</time>
      </trkpt>
      <trkpt lat="44.42813" lon="1.47264">
        <ele>283</ele>
        <time>2023-09-07T06:47:09Z</time>
      </trkpt>
      <trkpt lat="44.42814" lon="1.47258">
        <ele>282.2</ele>
        <time>2023-09-07T06:47:13Z</time>
      </trkpt>
      <trkpt lat="44.42815" lon="1.47251">
        <ele>282.1</ele>
        <time>2023-09-07T06:47:17Z</time>
      </trkpt>
      <trkpt lat="44.42816" lon="1.47244">
        <ele>281.6</ele>
        <time>2023-09-07T06:47:22Z</time>
      </trkpt>
      <trkpt lat="44.42817" lon="1.47237">
        <ele>281.7</ele>
        <time>2023-09-07T06:47:27Z</time>
      </trkpt>
      <trkpt lat="44.42817" lon="1.4723">
        <ele>281.3</ele>
        <time>2023-09-07T06:47:31Z</time>
      </trkpt>
      <trkpt lat="44.42818" lon="1.47223">
        <ele>280</ele>
        <time>2023-09-07T06:47:35Z</time>
      </trkpt>
      <trkpt lat="44.42819" lon="1.47216">
        <ele>280</ele>
        <time>2023-09-07T06:47:39Z</time>
      </trkpt>
      <trkpt lat="44.42819" lon="1.4721">
        <ele>280</ele>
        <time>2023-09-07T06:47:43Z</time>
      </trkpt>
      <trkpt lat="44.4282" lon="1.47203">
        <ele>278.4</ele>
        <time>2023-09-07T06:47:47Z</time>
      </trkpt>
      <trkpt lat="44.42822" lon="1.47197">
        <ele>278.2</ele>
        <time>2023-09-07T06:47:51Z</time>
      </trkpt>
      <trkpt lat="44.42823" lon="1.4719">
        <ele>278.2</ele>
        <time>2023-09-07T06:47:55Z</time>
      </trkpt>
      <trkpt lat="44.42824" lon="1.47184">
        <ele>278.4</ele>
        <time>2023-09-07T06:47:59Z</time>
      </trkpt>
      <trkpt lat="44.42825" lon="1.47176">
        <ele>277.6</ele>
        <time>2023-09-07T06:48:04Z</time>
      </trkpt>
      <trkpt lat="44.42826" lon="1.4717">
        <ele>277.9</ele>
        <time>2023-09-07T06:48:08Z</time>
      </trkpt>
      <trkpt lat="44.42827" lon="1.47163">
        <ele>277</ele>
        <time>2023-09-07T06:48:12Z</time>
      </trkpt>
      <trkpt lat="44.42828" lon="1.47156">
        <ele>276.5</ele>
        <time>2023-09-07T06:48:17Z</time>
      </trkpt>
      <trkpt lat="44.42829" lon="1.47148">
        <ele>276.5</ele>
        <time>2023-09-07T06:48:22Z</time>
      </trkpt>
      <trkpt lat="44.4283" lon="1.47142">
        <ele>275.9</ele>
        <time>2023-09-07T06:48:26Z</time>
      </trkpt>
      <trkpt lat="44.42831" lon="1.47135">
        <ele>275.8</ele>
        <time>2023-09-07T06:48:30Z</time>
      </trkpt>
      <trkpt lat="44.42832" lon="1.47129">
        <ele>275</ele>
        <time>2023-09-07T06:48:34Z</time>
      </trkpt>
      <trkpt lat="44.42834" lon="1.47122">
        <ele>274.2</ele>
        <time>2023-09-07T06:48:38Z</time>
      </trkpt>
      <trkpt lat="44.42835" lon="1.47116">
        <ele>274.3</ele>
        <time>2023-09-07T06:48:42Z</time>
      </trkpt>
      <trkpt lat="44.42836" lon="1.4711">
        <ele>274.1</ele>
        <time>2023-09-07T06:48:46Z</time>
      </trkpt>
      <trkpt lat="44.42837" lon="1.47104">
        <ele>273.9</ele>
        <time>2023-09-07T06:48:50Z</time>
      </trkpt>
      <trkpt lat="44.42838" lon="1.47098">
        <ele>272.6</ele>
        <time>2023-09-07T06:48:54Z</time>
      </trkpt>
      <trkpt lat="44.42839" lon="1.47091">
        <ele>271.8</ele>
        <time>2023-09-07T06:48:58Z</time>
      </trkpt>
      <trkpt lat="44.4284" lon="1.47085">
        <ele>271.5</ele>
        <time>2023-09-07T06:49:02Z</time>
      </trkpt>
      <trkpt lat="44.42841" lon="1.47078">
        <ele>271.2</ele>
        <time>2023-09-07T06:49:06Z</time>
      </trkpt>
      <trkpt lat="44.42841" lon="1.47071">
        <ele>271.4</ele>
        <time>2023-09-07T06:49:10Z</time>
      </trkpt>
      <trkpt lat="44.42841" lon="1.47064">
        <ele>271.1</ele>
        <time>2023-09-07T06:49:14Z</time>
      </trkpt>
      <trkpt lat="44.42841" lon="1.47058">
        <ele>271.2</ele>
        <time>2023-09-07T06:49:18Z</time>
      </trkpt>
      <trkpt lat="44.4284" lon="1.47051">
        <ele>271.7</ele>
        <time>2023-09-07T06:49:23Z</time>
      </trkpt>
      <trkpt lat="44.42841" lon="1.47044">
        <ele>271.2</ele>
        <time>2023-09-07T06:49:27Z</time>
      </trkpt>
      <trkpt lat="44.42841" lon="1.47038">
        <ele>270.6</ele>
        <time>2023-09-07T06:49:31Z</time>
      </trkpt>
      <trkpt lat="44.42842" lon="1.4703">
        <ele>269.6</ele>
        <time>2023-09-07T06:49:36Z</time>
      </trkpt>
      <trkpt lat="44.42842" lon="1.47022">
        <ele>269.5</ele>
        <time>2023-09-07T06:49:41Z</time>
      </trkpt>
      <trkpt lat="44.42843" lon="1.47016">
        <ele>269</ele>
        <time>2023-09-07T06:49:45Z</time>
      </trkpt>
      <trkpt lat="44.42844" lon="1.47008">
        <ele>269.5</ele>
        <time>2023-09-07T06:49:50Z</time>
      </trkpt>
      <trkpt lat="44.42844" lon="1.47001">
        <ele>269.1</ele>
        <time>2023-09-07T06:49:54Z</time>
      </trkpt>
      <trkpt lat="44.42845" lon="1.46995">
        <ele>269.2</ele>
        <time>2023-09-07T06:49:58Z</time>
      </trkpt>
      <trkpt lat="44.42846" lon="1.46988">
        <ele>268.2</ele>
        <time>2023-09-07T06:50:02Z</time>
      </trkpt>
      <trkpt lat="44.42847" lon="1.46981">
        <ele>267.3</ele>
        <time>2023-09-07T06:50:06Z</time>
      </trkpt>
      <trkpt lat="44.42848" lon="1.46975">
        <ele>267.5</ele>
        <time>2023-09-07T06:50:10Z</time>
      </trkpt>
      <trkpt lat="44.42849" lon="1.46968">
        <ele>267.1</ele>
        <time>2023-09-07T06:50:14Z</time>
      </trkpt>
      <trkpt lat="44.4285" lon="1.46962">
        <ele>266.9</ele>
        <time>2023-09-07T06:50:18Z</time>
      </trkpt>
      <trkpt lat="44.42851" lon="1.46955">
        <ele>267.2</ele>
        <time>2023-09-07T06:50:22Z</time>
      </trkpt>
      <trkpt lat="44.42852" lon="1.46948">
        <ele>267.5</ele>
        <time>2023-09-07T06:50:26Z</time>
      </trkpt>
      <trkpt lat="44.42853" lon="1.4694">
        <ele>267.2</ele>
        <time>2023-09-07T06:50:31Z</time>
      </trkpt>
      <trkpt lat="44.42853" lon="1.46933">
        <ele>267.2</ele>
        <time>2023-09-07T06:50:35Z</time>
      </trkpt>
      <trkpt lat="44.42854" lon="1.46927">
        <ele>266.6</ele>
        <time>2023-09-07T06:50:39Z</time>
      </trkpt>
      <trkpt lat="44.42855" lon="1.46919">
        <ele>266</ele>
        <time>2023-09-07T06:50:44Z</time>
      </trkpt>
      <trkpt lat="44.42856" lon="1.46913">
        <ele>265.8</ele>
        <time>2023-09-07T06:50:48Z</time>
      </trkpt>
      <trkpt lat="44.42857" lon="1.46906">
        <ele>265.8</ele>
        <time>2023-09-07T06:50:52Z</time>
      </trkpt>
      <trkpt lat="44.42858" lon="1.469">
        <ele>265.6</ele>
        <time>2023-09-07T06:50:56Z</time>
      </trkpt>
      <trkpt lat="44.42859" lon="1.46893">
        <ele>265.1</ele>
        <time>2023-09-07T06:51:00Z</time>
      </trkpt>
      <trkpt lat="44.4286" lon="1.46887">
        <ele>263.9</ele>
        <time>2023-09-07T06:51:04Z</time>
      </trkpt>
      <trkpt lat="44.42862" lon="1.46878">
        <ele>271.6</ele>
        <time>2023-09-07T06:51:21Z</time>
      </trkpt>
      <trkpt lat="44.42864" lon="1.46866">
        <ele>267.7</ele>
        <time>2023-09-07T06:51:23Z</time>
      </trkpt>
      <trkpt lat="44.42865" lon="1.46859">
        <ele>263.9</ele>
        <time>2023-09-07T06:51:27Z</time>
      </trkpt>
      <trkpt lat="44.42866" lon="1.46853">
        <ele>263.5</ele>
        <time>2023-09-07T06:51:31Z</time>
      </trkpt>
      <trkpt lat="44.42867" lon="1.46847">
        <ele>263.5</ele>
        <time>2023-09-07T06:51:35Z</time>
      </trkpt>
      <trkpt lat="44.42868" lon="1.46839">
        <ele>263.1</ele>
        <time>2023-09-07T06:51:39Z</time>
      </trkpt>
      <trkpt lat="44.4287" lon="1.46832">
        <ele>262.8</ele>
        <time>2023-09-07T06:51:43Z</time>
      </trkpt>
      <trkpt lat="44.4287" lon="1.46825">
        <ele>260.6</ele>
        <time>2023-09-07T06:51:47Z</time>
      </trkpt>
      <trkpt lat="44.42871" lon="1.46819">
        <ele>260.5</ele>
        <time>2023-09-07T06:51:51Z</time>
      </trkpt>
      <trkpt lat="44.42872" lon="1.46812">
        <ele>260.5</ele>
        <time>2023-09-07T06:51:55Z</time>
      </trkpt>
      <trkpt lat="44.42873" lon="1.46805">
        <ele>260.7</ele>
        <time>2023-09-07T06:51:59Z</time>
      </trkpt>
      <trkpt lat="44.42874" lon="1.46798">
        <ele>261</ele>
        <time>2023-09-07T06:52:03Z</time>
      </trkpt>
      <trkpt lat="44.42875" lon="1.46791">
        <ele>260.8</ele>
        <time>2023-09-07T06:52:07Z</time>
      </trkpt>
      <trkpt lat="44.42876" lon="1.46784">
        <ele>261.5</ele>
        <time>2023-09-07T06:52:11Z</time>
      </trkpt>
      <trkpt lat="44.42876" lon="1.46778">
        <ele>263.3</ele>
        <time>2023-09-07T06:52:16Z</time>
      </trkpt>
      <trkpt lat="44.42877" lon="1.46771">
        <ele>262.8</ele>
        <time>2023-09-07T06:52:22Z</time>
      </trkpt>
      <trkpt lat="44.42878" lon="1.46764">
        <ele>262.8</ele>
        <time>2023-09-07T06:52:27Z</time>
      </trkpt>
      <trkpt lat="44.42878" lon="1.46757">
        <ele>257.4</ele>
        <time>2023-09-07T06:52:44Z</time>
      </trkpt>
      <trkpt lat="44.42878" lon="1.4675">
        <ele>256</ele>
        <time>2023-09-07T06:52:49Z</time>
      </trkpt>
      <trkpt lat="44.42878" lon="1.46743">
        <ele>255.8</ele>
        <time>2023-09-07T06:52:54Z</time>
      </trkpt>
      <trkpt lat="44.42878" lon="1.46736">
        <ele>255.6</ele>
        <time>2023-09-07T06:52:59Z</time>
      </trkpt>
      <trkpt lat="44.42879" lon="1.46729">
        <ele>256.8</ele>
        <time>2023-09-07T06:53:04Z</time>
      </trkpt>
      <trkpt lat="44.4288" lon="1.46722">
        <ele>255.8</ele>
        <time>2023-09-07T06:53:09Z</time>
      </trkpt>
      <trkpt lat="44.42882" lon="1.46716">
        <ele>255.4</ele>
        <time>2023-09-07T06:53:13Z</time>
      </trkpt>
      <trkpt lat="44.42883" lon="1.46709">
        <ele>254</ele>
        <time>2023-09-07T06:53:18Z</time>
      </trkpt>
      <trkpt lat="44.42884" lon="1.46702">
        <ele>253.5</ele>
        <time>2023-09-07T06:53:23Z</time>
      </trkpt>
      <trkpt lat="44.42886" lon="1.46695">
        <ele>253.1</ele>
        <time>2023-09-07T06:53:28Z</time>
      </trkpt>
      <trkpt lat="44.42888" lon="1.46689">
        <ele>251.3</ele>
        <time>2023-09-07T06:53:33Z</time>
      </trkpt>
      <trkpt lat="44.4289" lon="1.46682">
        <ele>251.2</ele>
        <time>2023-09-07T06:53:38Z</time>
      </trkpt>
      <trkpt lat="44.42892" lon="1.46676">
        <ele>252</ele>
        <time>2023-09-07T06:53:43Z</time>
      </trkpt>
      <trkpt lat="44.42895" lon="1.4667">
        <ele>250.4</ele>
        <time>2023-09-07T06:53:48Z</time>
      </trkpt>
      <trkpt lat="44.42897" lon="1.46664">
        <ele>250.4</ele>
        <time>2023-09-07T06:53:53Z</time>
      </trkpt>
      <trkpt lat="44.42898" lon="1.46656">
        <ele>249.8</ele>
        <time>2023-09-07T06:53:58Z</time>
      </trkpt>
      <trkpt lat="44.429" lon="1.46649">
        <ele>249.3</ele>
        <time>2023-09-07T06:54:03Z</time>
      </trkpt>
      <trkpt lat="44.42902" lon="1.46642">
        <ele>249.3</ele>
        <time>2023-09-07T06:54:08Z</time>
      </trkpt>
      <trkpt lat="44.42905" lon="1.46636">
        <ele>246.8</ele>
        <time>2023-09-07T06:54:13Z</time>
      </trkpt>
      <trkpt lat="44.42908" lon="1.4663">
        <ele>246.6</ele>
        <time>2023-09-07T06:54:18Z</time>
      </trkpt>
      <trkpt lat="44.42911" lon="1.46624">
        <ele>245.4</ele>
        <time>2023-09-07T06:54:23Z</time>
      </trkpt>
      <trkpt lat="44.42914" lon="1.46617">
        <ele>244.6</ele>
        <time>2023-09-07T06:54:28Z</time>
      </trkpt>
      <trkpt lat="44.42916" lon="1.46611">
        <ele>246.7</ele>
        <time>2023-09-07T06:54:33Z</time>
      </trkpt>
      <trkpt lat="44.42918" lon="1.46606">
        <ele>245.6</ele>
        <time>2023-09-07T06:54:38Z</time>
      </trkpt>
      <trkpt lat="44.42922" lon="1.466">
        <ele>245.3</ele>
        <time>2023-09-07T06:54:43Z</time>
      </trkpt>
      <trkpt lat="44.42926" lon="1.46596">
        <ele>246.2</ele>
        <time>2023-09-07T06:54:47Z</time>
      </trkpt>
      <trkpt lat="44.42929" lon="1.4659">
        <ele>245.4</ele>
        <time>2023-09-07T06:54:52Z</time>
      </trkpt>
      <trkpt lat="44.42933" lon="1.46585">
        <ele>244.8</ele>
        <time>2023-09-07T06:54:56Z</time>
      </trkpt>
      <trkpt lat="44.42936" lon="1.46581">
        <ele>244.6</ele>
        <time>2023-09-07T06:55:00Z</time>
      </trkpt>
      <trkpt lat="44.4294" lon="1.46576">
        <ele>244.6</ele>
        <time>2023-09-07T06:55:05Z</time>
      </trkpt>
      <trkpt lat="44.42945" lon="1.46573">
        <ele>244.4</ele>
        <time>2023-09-07T06:55:09Z</time>
      </trkpt>
      <trkpt lat="44.42948" lon="1.46569">
        <ele>243.5</ele>
        <time>2023-09-07T06:55:13Z</time>
      </trkpt>
      <trkpt lat="44.42951" lon="1.46564">
        <ele>241.2</ele>
        <time>2023-09-07T06:55:24Z</time>
      </trkpt>
      <trkpt lat="44.42953" lon="1.46557">
        <ele>239</ele>
        <time>2023-09-07T06:55:55Z</time>
      </trkpt>
      <trkpt lat="44.42956" lon="1.46551">
        <ele>238.9</ele>
        <time>2023-09-07T06:56:00Z</time>
      </trkpt>
      <trkpt lat="44.42958" lon="1.46545">
        <ele>238</ele>
        <time>2023-09-07T06:56:05Z</time>
      </trkpt>
      <trkpt lat="44.42961" lon="1.46538">
        <ele>237.6</ele>
        <time>2023-09-07T06:56:10Z</time>
      </trkpt>
      <trkpt lat="44.42964" lon="1.46532">
        <ele>236.1</ele>
        <time>2023-09-07T06:56:15Z</time>
      </trkpt>
      <trkpt lat="44.42967" lon="1.46525">
        <ele>236.6</ele>
        <time>2023-09-07T06:56:20Z</time>
      </trkpt>
      <trkpt lat="44.42969" lon="1.46519">
        <ele>236.6</ele>
        <time>2023-09-07T06:56:24Z</time>
      </trkpt>
      <trkpt lat="44.42972" lon="1.46514">
        <ele>237.1</ele>
        <time>2023-09-07T06:56:28Z</time>
      </trkpt>
      <trkpt lat="44.42973" lon="1.46506">
        <ele>234.6</ele>
        <time>2023-09-07T06:56:33Z</time>
      </trkpt>
      <trkpt lat="44.42975" lon="1.46501">
        <ele>233.8</ele>
        <time>2023-09-07T06:56:37Z</time>
      </trkpt>
      <trkpt lat="44.42978" lon="1.46495">
        <ele>233.4</ele>
        <time>2023-09-07T06:56:41Z</time>
      </trkpt>
      <trkpt lat="44.4298" lon="1.46489">
        <ele>232.1</ele>
        <time>2023-09-07T06:56:45Z</time>
      </trkpt>
      <trkpt lat="44.42981" lon="1.46483">
        <ele>230.8</ele>
        <time>2023-09-07T06:56:49Z</time>
      </trkpt>
      <trkpt lat="44.42983" lon="1.46476">
        <ele>231.2</ele>
        <time>2023-09-07T06:56:53Z</time>
      </trkpt>
      <trkpt lat="44.42985" lon="1.4647">
        <ele>230.4</ele>
        <time>2023-09-07T06:56:57Z</time>
      </trkpt>
      <trkpt lat="44.42987" lon="1.46464">
        <ele>229.8</ele>
        <time>2023-09-07T06:57:01Z</time>
      </trkpt>
      <trkpt lat="44.42988" lon="1.46457">
        <ele>230.5</ele>
        <time>2023-09-07T06:57:05Z</time>
      </trkpt>
      <trkpt lat="44.4299" lon="1.46451">
        <ele>230.3</ele>
        <time>2023-09-07T06:57:09Z</time>
      </trkpt>
      <trkpt lat="44.42991" lon="1.46443">
        <ele>229.8</ele>
        <time>2023-09-07T06:57:14Z</time>
      </trkpt>
      <trkpt lat="44.42992" lon="1.46437">
        <ele>229.2</ele>
        <time>2023-09-07T06:57:18Z</time>
      </trkpt>
      <trkpt lat="44.42994" lon="1.4643">
        <ele>228.4</ele>
        <time>2023-09-07T06:57:22Z</time>
      </trkpt>
      <trkpt lat="44.42995" lon="1.46424">
        <ele>227.2</ele>
        <time>2023-09-07T06:57:26Z</time>
      </trkpt>
      <trkpt lat="44.42997" lon="1.46417">
        <ele>227.3</ele>
        <time>2023-09-07T06:57:31Z</time>
      </trkpt>
      <trkpt lat="44.42999" lon="1.4641">
        <ele>227.6</ele>
        <time>2023-09-07T06:57:36Z</time>
      </trkpt>
      <trkpt lat="44.43001" lon="1.46404">
        <ele>227.5</ele>
        <time>2023-09-07T06:57:40Z</time>
      </trkpt>
      <trkpt lat="44.43002" lon="1.46398">
        <ele>228.2</ele>
        <time>2023-09-07T06:57:44Z</time>
      </trkpt>
      <trkpt lat="44.43003" lon="1.46391">
        <ele>227.6</ele>
        <time>2023-09-07T06:57:48Z</time>
      </trkpt>
      <trkpt lat="44.43004" lon="1.46385">
        <ele>225.6</ele>
        <time>2023-09-07T06:57:53Z</time>
      </trkpt>
      <trkpt lat="44.43006" lon="1.46378">
        <ele>224.2</ele>
        <time>2023-09-07T06:57:58Z</time>
      </trkpt>
      <trkpt lat="44.43008" lon="1.46372">
        <ele>223.8</ele>
        <time>2023-09-07T06:58:03Z</time>
      </trkpt>
      <trkpt lat="44.4301" lon="1.46365">
        <ele>222.9</ele>
        <time>2023-09-07T06:58:08Z</time>
      </trkpt>
      <trkpt lat="44.43011" lon="1.46359">
        <ele>222.8</ele>
        <time>2023-09-07T06:58:13Z</time>
      </trkpt>
      <trkpt lat="44.43013" lon="1.46352">
        <ele>223.2</ele>
        <time>2023-09-07T06:58:18Z</time>
      </trkpt>
      <trkpt lat="44.43013" lon="1.46346">
        <ele>222.9</ele>
        <time>2023-09-07T06:58:23Z</time>
      </trkpt>
      <trkpt lat="44.43014" lon="1.46339">
        <ele>221</ele>
        <time>2023-09-07T06:58:28Z</time>
      </trkpt>
      <trkpt lat="44.43016" lon="1.46333">
        <ele>220.2</ele>
        <time>2023-09-07T06:58:33Z</time>
      </trkpt>
      <trkpt lat="44.43016" lon="1.46326">
        <ele>220.6</ele>
        <time>2023-09-07T06:58:38Z</time>
      </trkpt>
      <trkpt lat="44.43018" lon="1.4632">
        <ele>221.3</ele>
        <time>2023-09-07T06:58:43Z</time>
      </trkpt>
      <trkpt lat="44.43018" lon="1.46313">
        <ele>220.5</ele>
        <time>2023-09-07T06:58:49Z</time>
      </trkpt>
      <trkpt lat="44.4302" lon="1.46307">
        <ele>219.5</ele>
        <time>2023-09-07T06:58:54Z</time>
      </trkpt>
      <trkpt lat="44.43022" lon="1.46301">
        <ele>218.8</ele>
        <time>2023-09-07T06:58:59Z</time>
      </trkpt>
      <trkpt lat="44.43024" lon="1.46294">
        <ele>217.9</ele>
        <time>2023-09-07T06:59:04Z</time>
      </trkpt>
      <trkpt lat="44.43025" lon="1.46287">
        <ele>215.9</ele>
        <time>2023-09-07T06:59:09Z</time>
      </trkpt>
      <trkpt lat="44.43026" lon="1.46281">
        <ele>214.9</ele>
        <time>2023-09-07T06:59:14Z</time>
      </trkpt>
      <trkpt lat="44.43028" lon="1.46274">
        <ele>215.8</ele>
        <time>2023-09-07T06:59:21Z</time>
      </trkpt>
      <trkpt lat="44.43026" lon="1.46268">
        <ele>216.1</ele>
        <time>2023-09-07T06:59:27Z</time>
      </trkpt>
      <trkpt lat="44.43025" lon="1.46261">
        <ele>215.3</ele>
        <time>2023-09-07T06:59:33Z</time>
      </trkpt>
      <trkpt lat="44.43029" lon="1.46254">
        <ele>209.3</ele>
        <time>2023-09-07T06:59:37Z</time>
      </trkpt>
      <trkpt lat="44.43032" lon="1.4625">
        <ele>208.6</ele>
        <time>2023-09-07T06:59:40Z</time>
      </trkpt>
      <trkpt lat="44.43036" lon="1.46243">
        <ele>207.9</ele>
        <time>2023-09-07T06:59:44Z</time>
      </trkpt>
      <trkpt lat="44.43039" lon="1.46238">
        <ele>207.9</ele>
        <time>2023-09-07T06:59:48Z</time>
      </trkpt>
      <trkpt lat="44.43043" lon="1.46234">
        <ele>210.1</ele>
        <time>2023-09-07T06:59:52Z</time>
      </trkpt>
      <trkpt lat="44.43046" lon="1.46229">
        <ele>210.4</ele>
        <time>2023-09-07T06:59:56Z</time>
      </trkpt>
      <trkpt lat="44.43048" lon="1.46224">
        <ele>208.9</ele>
        <time>2023-09-07T07:00:01Z</time>
      </trkpt>
      <trkpt lat="44.43051" lon="1.46219">
        <ele>207.4</ele>
        <time>2023-09-07T07:00:06Z</time>
      </trkpt>
      <trkpt lat="44.43054" lon="1.46213">
        <ele>208.6</ele>
        <time>2023-09-07T07:00:11Z</time>
      </trkpt>
      <trkpt lat="44.43056" lon="1.46207">
        <ele>208</ele>
        <time>2023-09-07T07:00:16Z</time>
      </trkpt>
      <trkpt lat="44.43057" lon="1.462">
        <ele>207.7</ele>
        <time>2023-09-07T07:00:21Z</time>
      </trkpt>
      <trkpt lat="44.4306" lon="1.46193">
        <ele>208.1</ele>
        <time>2023-09-07T07:00:26Z</time>
      </trkpt>
      <trkpt lat="44.43064" lon="1.46189">
        <ele>205.7</ele>
        <time>2023-09-07T07:00:34Z</time>
      </trkpt>
      <trkpt lat="44.43067" lon="1.46184">
        <ele>203.5</ele>
        <time>2023-09-07T07:00:38Z</time>
      </trkpt>
      <trkpt lat="44.4307" lon="1.46179">
        <ele>201.1</ele>
        <time>2023-09-07T07:00:42Z</time>
      </trkpt>
      <trkpt lat="44.43073" lon="1.46173">
        <ele>200.7</ele>
        <time>2023-09-07T07:00:46Z</time>
      </trkpt>
      <trkpt lat="44.43077" lon="1.46167">
        <ele>200.6</ele>
        <time>2023-09-07T07:00:50Z</time>
      </trkpt>
      <trkpt lat="44.43079" lon="1.46161">
        <ele>201.2</ele>
        <time>2023-09-07T07:00:55Z</time>
      </trkpt>
      <trkpt lat="44.43082" lon="1.46155">
        <ele>200.5</ele>
        <time>2023-09-07T07:00:59Z</time>
      </trkpt>
      <trkpt lat="44.43086" lon="1.46151">
        <ele>198</ele>
        <time>2023-09-07T07:01:04Z</time>
      </trkpt>
      <trkpt lat="44.4309" lon="1.46146">
        <ele>197.2</ele>
        <time>2023-09-07T07:01:08Z</time>
      </trkpt>
      <trkpt lat="44.43093" lon="1.4614">
        <ele>197.2</ele>
        <time>2023-09-07T07:01:12Z</time>
      </trkpt>
      <trkpt lat="44.43096" lon="1.46135">
        <ele>199.5</ele>
        <time>2023-09-07T07:01:17Z</time>
      </trkpt>
      <trkpt lat="44.43099" lon="1.4613">
        <ele>200</ele>
        <time>2023-09-07T07:01:21Z</time>
      </trkpt>
      <trkpt lat="44.43102" lon="1.46124">
        <ele>199.5</ele>
        <time>2023-09-07T07:01:26Z</time>
      </trkpt>
      <trkpt lat="44.43106" lon="1.46119">
        <ele>198.6</ele>
        <time>2023-09-07T07:01:31Z</time>
      </trkpt>
      <trkpt lat="44.4311" lon="1.46114">
        <ele>197.9</ele>
        <time>2023-09-07T07:01:36Z</time>
      </trkpt>
      <trkpt lat="44.43113" lon="1.46109">
        <ele>197.8</ele>
        <time>2023-09-07T07:01:41Z</time>
      </trkpt>
      <trkpt lat="44.43117" lon="1.46104">
        <ele>195.3</ele>
        <time>2023-09-07T07:01:46Z</time>
      </trkpt>
      <trkpt lat="44.43121" lon="1.46099">
        <ele>195.7</ele>
        <time>2023-09-07T07:01:51Z</time>
      </trkpt>
      <trkpt lat="44.43124" lon="1.46094">
        <ele>196</ele>
        <time>2023-09-07T07:01:56Z</time>
      </trkpt>
      <trkpt lat="44.43128" lon="1.46089">
        <ele>195.3</ele>
        <time>2023-09-07T07:02:01Z</time>
      </trkpt>
      <trkpt lat="44.43132" lon="1.46086">
        <ele>194.9</ele>
        <time>2023-09-07T07:02:06Z</time>
      </trkpt>
      <trkpt lat="44.43136" lon="1.46081">
        <ele>194.7</ele>
        <time>2023-09-07T07:02:12Z</time>
      </trkpt>
      <trkpt lat="44.4314" lon="1.46077">
        <ele>193.5</ele>
        <time>2023-09-07T07:02:17Z</time>
      </trkpt>
      <trkpt lat="44.43144" lon="1.46071">
        <ele>191.3</ele>
        <time>2023-09-07T07:02:22Z</time>
      </trkpt>
      <trkpt lat="44.43147" lon="1.46067">
        <ele>189.5</ele>
        <time>2023-09-07T07:02:27Z</time>
      </trkpt>
      <trkpt lat="44.43149" lon="1.46061">
        <ele>190.2</ele>
        <time>2023-09-07T07:02:32Z</time>
      </trkpt>
      <trkpt lat="44.43152" lon="1.46056">
        <ele>191.8</ele>
        <time>2023-09-07T07:02:37Z</time>
      </trkpt>
      <trkpt lat="44.43155" lon="1.46051">
        <ele>191.9</ele>
        <time>2023-09-07T07:02:42Z</time>
      </trkpt>
      <trkpt lat="44.43158" lon="1.46046">
        <ele>192.4</ele>
        <time>2023-09-07T07:02:47Z</time>
      </trkpt>
      <trkpt lat="44.43162" lon="1.46041">
        <ele>192.3</ele>
        <time>2023-09-07T07:02:53Z</time>
      </trkpt>
      <trkpt lat="44.43166" lon="1.46037">
        <ele>190.6</ele>
        <time>2023-09-07T07:02:58Z</time>
      </trkpt>
      <trkpt lat="44.4317" lon="1.46033">
        <ele>189.8</ele>
        <time>2023-09-07T07:03:04Z</time>
      </trkpt>
      <trkpt lat="44.43174" lon="1.46028">
        <ele>191.3</ele>
        <time>2023-09-07T07:03:10Z</time>
      </trkpt>
      <trkpt lat="44.43178" lon="1.46023">
        <ele>191.3</ele>
        <time>2023-09-07T07:03:15Z</time>
      </trkpt>
      <trkpt lat="44.43181" lon="1.46018">
        <ele>189.2</ele>
        <time>2023-09-07T07:03:20Z</time>
      </trkpt>
      <trkpt lat="44.43185" lon="1.46014">
        <ele>189.4</ele>
        <time>2023-09-07T07:03:25Z</time>
      </trkpt>
      <trkpt lat="44.43188" lon="1.46009">
        <ele>189</ele>
        <time>2023-09-07T07:03:30Z</time>
      </trkpt>
      <trkpt lat="44.43192" lon="1.46005">
        <ele>189.2</ele>
        <time>2023-09-07T07:03:35Z</time>
      </trkpt>
      <trkpt lat="44.43195" lon="1.46">
        <ele>188.6</ele>
        <time>2023-09-07T07:03:40Z</time>
      </trkpt>
      <trkpt lat="44.43198" lon="1.45995">
        <ele>187.4</ele>
        <time>2023-09-07T07:03:45Z</time>
      </trkpt>
      <trkpt lat="44.43202" lon="1.45989">
        <ele>187.3</ele>
        <time>2023-09-07T07:03:50Z</time>
      </trkpt>
      <trkpt lat="44.43205" lon="1.45985">
        <ele>187.1</ele>
        <time>2023-09-07T07:03:54Z</time>
      </trkpt>
      <trkpt lat="44.4321" lon="1.45982">
        <ele>185.3</ele>
        <time>2023-09-07T07:04:00Z</time>
      </trkpt>
      <trkpt lat="44.43215" lon="1.45979">
        <ele>184</ele>
        <time>2023-09-07T07:04:05Z</time>
      </trkpt>
      <trkpt lat="44.43218" lon="1.45974">
        <ele>183.8</ele>
        <time>2023-09-07T07:04:12Z</time>
      </trkpt>
      <trkpt lat="44.43222" lon="1.4597">
        <ele>183.1</ele>
        <time>2023-09-07T07:04:19Z</time>
      </trkpt>
      <trkpt lat="44.43226" lon="1.45967">
        <ele>178.4</ele>
        <time>2023-09-07T07:04:26Z</time>
      </trkpt>
      <trkpt lat="44.4323" lon="1.45963">
        <ele>179</ele>
        <time>2023-09-07T07:04:33Z</time>
      </trkpt>
      <trkpt lat="44.43233" lon="1.45958">
        <ele>176.6</ele>
        <time>2023-09-07T07:04:40Z</time>
      </trkpt>
      <trkpt lat="44.43237" lon="1.45954">
        <ele>175.4</ele>
        <time>2023-09-07T07:04:46Z</time>
      </trkpt>
      <trkpt lat="44.4324" lon="1.45949">
        <ele>174.4</ele>
        <time>2023-09-07T07:04:54Z</time>
      </trkpt>
      <trkpt lat="44.43245" lon="1.45947">
        <ele>171.9</ele>
        <time>2023-09-07T07:05:02Z</time>
      </trkpt>
      <trkpt lat="44.43249" lon="1.45943">
        <ele>171.7</ele>
        <time>2023-09-07T07:05:08Z</time>
      </trkpt>
      <trkpt lat="44.43253" lon="1.45937">
        <ele>171.7</ele>
        <time>2023-09-07T07:05:14Z</time>
      </trkpt>
      <trkpt lat="44.43257" lon="1.45934">
        <ele>169.5</ele>
        <time>2023-09-07T07:05:19Z</time>
      </trkpt>
      <trkpt lat="44.4326" lon="1.45929">
        <ele>168.1</ele>
        <time>2023-09-07T07:05:25Z</time>
      </trkpt>
      <trkpt lat="44.43264" lon="1.45924">
        <ele>167.7</ele>
        <time>2023-09-07T07:05:31Z</time>
      </trkpt>
      <trkpt lat="44.43267" lon="1.45919">
        <ele>168.8</ele>
        <time>2023-09-07T07:05:37Z</time>
      </trkpt>
      <trkpt lat="44.4327" lon="1.45914">
        <ele>169.7</ele>
        <time>2023-09-07T07:05:44Z</time>
      </trkpt>
      <trkpt lat="44.43273" lon="1.45908">
        <ele>169.3</ele>
        <time>2023-09-07T07:05:53Z</time>
      </trkpt>
      <trkpt lat="44.43274" lon="1.45901">
        <ele>167</ele>
        <time>2023-09-07T07:06:00Z</time>
      </trkpt>
      <trkpt lat="44.43275" lon="1.45895">
        <ele>167.7</ele>
        <time>2023-09-07T07:06:06Z</time>
      </trkpt>
      <trkpt lat="44.43278" lon="1.45889">
        <ele>167.5</ele>
        <time>2023-09-07T07:06:12Z</time>
      </trkpt>
      <trkpt lat="44.43282" lon="1.45885">
        <ele>168.8</ele>
        <time>2023-09-07T07:06:18Z</time>
      </trkpt>
      <trkpt lat="44.43283" lon="1.45879">
        <ele>169.8</ele>
        <time>2023-09-07T07:06:25Z</time>
      </trkpt>
      <trkpt lat="44.43285" lon="1.45872">
        <ele>169.4</ele>
        <time>2023-09-07T07:06:31Z</time>
      </trkpt>
      <trkpt lat="44.43284" lon="1.45866">
        <ele>166.5</ele>
        <time>2023-09-07T07:06:36Z</time>
      </trkpt>
      <trkpt lat="44.43283" lon="1.45859">
        <ele>165.4</ele>
        <time>2023-09-07T07:06:40Z</time>
      </trkpt>
      <trkpt lat="44.43284" lon="1.45853">
        <ele>162.8</ele>
        <time>2023-09-07T07:06:45Z</time>
      </trkpt>
      <trkpt lat="44.43285" lon="1.45847">
        <ele>161.6</ele>
        <time>2023-09-07T07:06:50Z</time>
      </trkpt>
      <trkpt lat="44.43285" lon="1.4584">
        <ele>162.1</ele>
        <time>2023-09-07T07:06:55Z</time>
      </trkpt>
      <trkpt lat="44.43287" lon="1.45834">
        <ele>162.1</ele>
        <time>2023-09-07T07:07:00Z</time>
      </trkpt>
      <trkpt lat="44.43288" lon="1.45828">
        <ele>159.2</ele>
        <time>2023-09-07T07:07:05Z</time>
      </trkpt>
      <trkpt lat="44.43288" lon="1.4582">
        <ele>155</ele>
        <time>2023-09-07T07:07:10Z</time>
      </trkpt>
      <trkpt lat="44.43288" lon="1.45813">
        <ele>153.2</ele>
        <time>2023-09-07T07:07:15Z</time>
      </trkpt>
      <trkpt lat="44.43288" lon="1.45806">
        <ele>152.5</ele>
        <time>2023-09-07T07:07:20Z</time>
      </trkpt>
      <trkpt lat="44.43288" lon="1.45798">
        <ele>152.3</ele>
        <time>2023-09-07T07:07:25Z</time>
      </trkpt>
      <trkpt lat="44.43288" lon="1.45791">
        <ele>151.8</ele>
        <time>2023-09-07T07:07:29Z</time>
      </trkpt>
      <trkpt lat="44.43289" lon="1.45785">
        <ele>151.3</ele>
        <time>2023-09-07T07:07:33Z</time>
      </trkpt>
      <trkpt lat="44.43289" lon="1.45778">
        <ele>151.6</ele>
        <time>2023-09-07T07:07:37Z</time>
      </trkpt>
      <trkpt lat="44.43288" lon="1.45771">
        <ele>151</ele>
        <time>2023-09-07T07:07:41Z</time>
      </trkpt>
      <trkpt lat="44.43287" lon="1.45765">
        <ele>150.8</ele>
        <time>2023-09-07T07:07:45Z</time>
      </trkpt>
      <trkpt lat="44.43287" lon="1.45757">
        <ele>152</ele>
        <time>2023-09-07T07:07:50Z</time>
      </trkpt>
      <trkpt lat="44.43286" lon="1.4575">
        <ele>152</ele>
        <time>2023-09-07T07:07:55Z</time>
      </trkpt>
      <trkpt lat="44.43285" lon="1.45743">
        <ele>151.7</ele>
        <time>2023-09-07T07:07:59Z</time>
      </trkpt>
      <trkpt lat="44.43283" lon="1.45736">
        <ele>151.2</ele>
        <time>2023-09-07T07:08:03Z</time>
      </trkpt>
      <trkpt lat="44.43281" lon="1.45729">
        <ele>151</ele>
        <time>2023-09-07T07:08:07Z</time>
      </trkpt>
      <trkpt lat="44.43281" lon="1.45723">
        <ele>150.1</ele>
        <time>2023-09-07T07:08:11Z</time>
      </trkpt>
      <trkpt lat="44.4328" lon="1.45715">
        <ele>145.9</ele>
        <time>2023-09-07T07:08:16Z</time>
      </trkpt>
      <trkpt lat="44.4328" lon="1.45708">
        <ele>146.6</ele>
        <time>2023-09-07T07:08:20Z</time>
      </trkpt>
      <trkpt lat="44.4328" lon="1.45701">
        <ele>146.9</ele>
        <time>2023-09-07T07:08:24Z</time>
      </trkpt>
      <trkpt lat="44.4328" lon="1.45694">
        <ele>146.6</ele>
        <time>2023-09-07T07:08:28Z</time>
      </trkpt>
      <trkpt lat="44.43279" lon="1.45687">
        <ele>145.3</ele>
        <time>2023-09-07T07:08:32Z</time>
      </trkpt>
      <trkpt lat="44.43277" lon="1.45682">
        <ele>147.9</ele>
        <time>2023-09-07T07:08:38Z</time>
      </trkpt>
      <trkpt lat="44.43274" lon="1.45677">
        <ele>153.4</ele>
        <time>2023-09-07T07:11:58Z</time>
      </trkpt>
      <trkpt lat="44.4327" lon="1.45672">
        <ele>152.6</ele>
        <time>2023-09-07T07:12:03Z</time>
      </trkpt>
      <trkpt lat="44.43269" lon="1.45665">
        <ele>155.6</ele>
        <time>2023-09-07T07:12:08Z</time>
      </trkpt>
      <trkpt lat="44.43267" lon="1.45657">
        <ele>156.7</ele>
        <time>2023-09-07T07:12:13Z</time>
      </trkpt>
      <trkpt lat="44.43266" lon="1.4565">
        <ele>157.4</ele>
        <time>2023-09-07T07:12:18Z</time>
      </trkpt>
      <trkpt lat="44.43261" lon="1.45646">
        <ele>156.9</ele>
        <time>2023-09-07T07:12:23Z</time>
      </trkpt>
      <trkpt lat="44.43256" lon="1.45647">
        <ele>155.1</ele>
        <time>2023-09-07T07:12:27Z</time>
      </trkpt>
      <trkpt lat="44.43252" lon="1.4565">
        <ele>154</ele>
        <time>2023-09-07T07:12:32Z</time>
      </trkpt>
      <trkpt lat="44.4325" lon="1.45656">
        <ele>151.3</ele>
        <time>2023-09-07T07:12:36Z</time>
      </trkpt>
      <trkpt lat="44.43245" lon="1.45658">
        <ele>148.1</ele>
        <time>2023-09-07T07:12:42Z</time>
      </trkpt>
      <trkpt lat="44.4324" lon="1.45661">
        <ele>145.5</ele>
        <time>2023-09-07T07:12:47Z</time>
      </trkpt>
      <trkpt lat="44.43235" lon="1.45664">
        <ele>143.9</ele>
        <time>2023-09-07T07:12:52Z</time>
      </trkpt>
      <trkpt lat="44.43231" lon="1.45667">
        <ele>144.2</ele>
        <time>2023-09-07T07:12:56Z</time>
      </trkpt>
      <trkpt lat="44.43226" lon="1.4567">
        <ele>144.9</ele>
        <time>2023-09-07T07:13:00Z</time>
      </trkpt>
      <trkpt lat="44.43222" lon="1.45672">
        <ele>145.9</ele>
        <time>2023-09-07T07:13:04Z</time>
      </trkpt>
      <trkpt lat="44.43215" lon="1.45675">
        <ele>147.9</ele>
        <time>2023-09-07T07:13:08Z</time>
      </trkpt>
      <trkpt lat="44.4321" lon="1.45677">
        <ele>149.2</ele>
        <time>2023-09-07T07:13:12Z</time>
      </trkpt>
      <trkpt lat="44.43205" lon="1.45679">
        <ele>150.7</ele>
        <time>2023-09-07T07:13:17Z</time>
      </trkpt>
      <trkpt lat="44.432" lon="1.45681">
        <ele>151.1</ele>
        <time>2023-09-07T07:13:22Z</time>
      </trkpt>
      <trkpt lat="44.43196" lon="1.45683">
        <ele>153.7</ele>
        <time>2023-09-07T07:13:28Z</time>
      </trkpt>
      <trkpt lat="44.4319" lon="1.45683">
        <ele>153.1</ele>
        <time>2023-09-07T07:13:33Z</time>
      </trkpt>
      <trkpt lat="44.43184" lon="1.45685">
        <ele>152.9</ele>
        <time>2023-09-07T07:13:37Z</time>
      </trkpt>
      <trkpt lat="44.43179" lon="1.45687">
        <ele>152.1</ele>
        <time>2023-09-07T07:13:41Z</time>
      </trkpt>
      <trkpt lat="44.43174" lon="1.45687">
        <ele>150.7</ele>
        <time>2023-09-07T07:13:46Z</time>
      </trkpt>
      <trkpt lat="44.43173" lon="1.45693">
        <ele>151.2</ele>
        <time>2023-09-07T07:13:51Z</time>
      </trkpt>
      <trkpt lat="44.43169" lon="1.45696">
        <ele>153.3</ele>
        <time>2023-09-07T07:13:54Z</time>
      </trkpt>
      <trkpt lat="44.43164" lon="1.45696">
        <ele>154.1</ele>
        <time>2023-09-07T07:13:58Z</time>
      </trkpt>
      <trkpt lat="44.43158" lon="1.45695">
        <ele>155.1</ele>
        <time>2023-09-07T07:14:02Z</time>
      </trkpt>
      <trkpt lat="44.43153" lon="1.45696">
        <ele>157.5</ele>
        <time>2023-09-07T07:14:06Z</time>
      </trkpt>
      <trkpt lat="44.43149" lon="1.45696">
        <ele>159.4</ele>
        <time>2023-09-07T07:14:10Z</time>
      </trkpt>
      <trkpt lat="44.43144" lon="1.45696">
        <ele>159.3</ele>
        <time>2023-09-07T07:14:14Z</time>
      </trkpt>
      <trkpt lat="44.43139" lon="1.45697">
        <ele>158.6</ele>
        <time>2023-09-07T07:14:19Z</time>
      </trkpt>
      <trkpt lat="44.43134" lon="1.45695">
        <ele>155.6</ele>
        <time>2023-09-07T07:14:24Z</time>
      </trkpt>
      <trkpt lat="44.43129" lon="1.45695">
        <ele>154.3</ele>
        <time>2023-09-07T07:14:28Z</time>
      </trkpt>
      <trkpt lat="44.43124" lon="1.45697">
        <ele>155.1</ele>
        <time>2023-09-07T07:14:33Z</time>
      </trkpt>
      <trkpt lat="44.43119" lon="1.45699">
        <ele>154.7</ele>
        <time>2023-09-07T07:14:38Z</time>
      </trkpt>
      <trkpt lat="44.43115" lon="1.45702">
        <ele>155.6</ele>
        <time>2023-09-07T07:14:43Z</time>
      </trkpt>
      <trkpt lat="44.4311" lon="1.45705">
        <ele>156.3</ele>
        <time>2023-09-07T07:14:59Z</time>
      </trkpt>
      <trkpt lat="44.43106" lon="1.45707">
        <ele>155.5</ele>
        <time>2023-09-07T07:15:03Z</time>
      </trkpt>
      <trkpt lat="44.43102" lon="1.4571">
        <ele>154.5</ele>
        <time>2023-09-07T07:15:07Z</time>
      </trkpt>
      <trkpt lat="44.43097" lon="1.45712">
        <ele>155.3</ele>
        <time>2023-09-07T07:15:11Z</time>
      </trkpt>
      <trkpt lat="44.43092" lon="1.45715">
        <ele>156.1</ele>
        <time>2023-09-07T07:15:15Z</time>
      </trkpt>
      <trkpt lat="44.43088" lon="1.45718">
        <ele>156.8</ele>
        <time>2023-09-07T07:15:19Z</time>
      </trkpt>
      <trkpt lat="44.43083" lon="1.45721">
        <ele>156.4</ele>
        <time>2023-09-07T07:15:23Z</time>
      </trkpt>
      <trkpt lat="44.43078" lon="1.45723">
        <ele>155.2</ele>
        <time>2023-09-07T07:15:27Z</time>
      </trkpt>
      <trkpt lat="44.43074" lon="1.45725">
        <ele>153.3</ele>
        <time>2023-09-07T07:15:31Z</time>
      </trkpt>
      <trkpt lat="44.43069" lon="1.45728">
        <ele>153.7</ele>
        <time>2023-09-07T07:15:35Z</time>
      </trkpt>
      <trkpt lat="44.43065" lon="1.45729">
        <ele>154.6</ele>
        <time>2023-09-07T07:15:39Z</time>
      </trkpt>
      <trkpt lat="44.4306" lon="1.45732">
        <ele>154.5</ele>
        <time>2023-09-07T07:15:42Z</time>
      </trkpt>
      <trkpt lat="44.43055" lon="1.45735">
        <ele>154.4</ele>
        <time>2023-09-07T07:15:46Z</time>
      </trkpt>
      <trkpt lat="44.43051" lon="1.45737">
        <ele>154.4</ele>
        <time>2023-09-07T07:15:50Z</time>
      </trkpt>
      <trkpt lat="44.43046" lon="1.45738">
        <ele>155.6</ele>
        <time>2023-09-07T07:15:54Z</time>
      </trkpt>
      <trkpt lat="44.43041" lon="1.45738">
        <ele>155.7</ele>
        <time>2023-09-07T07:15:58Z</time>
      </trkpt>
      <trkpt lat="44.43037" lon="1.45739">
        <ele>155.9</ele>
        <time>2023-09-07T07:16:02Z</time>
      </trkpt>
      <trkpt lat="44.43032" lon="1.45742">
        <ele>157.4</ele>
        <time>2023-09-07T07:16:06Z</time>
      </trkpt>
      <trkpt lat="44.43026" lon="1.45743">
        <ele>158.7</ele>
        <time>2023-09-07T07:16:11Z</time>
      </trkpt>
      <trkpt lat="44.43022" lon="1.45743">
        <ele>158.4</ele>
        <time>2023-09-07T07:16:15Z</time>
      </trkpt>
      <trkpt lat="44.43017" lon="1.45745">
        <ele>158.3</ele>
        <time>2023-09-07T07:16:19Z</time>
      </trkpt>
      <trkpt lat="44.43012" lon="1.45747">
        <ele>159.1</ele>
        <time>2023-09-07T07:16:24Z</time>
      </trkpt>
      <trkpt lat="44.43006" lon="1.45749">
        <ele>158.5</ele>
        <time>2023-09-07T07:16:29Z</time>
      </trkpt>
      <trkpt lat="44.43001" lon="1.45751">
        <ele>159.3</ele>
        <time>2023-09-07T07:16:34Z</time>
      </trkpt>
      <trkpt lat="44.42997" lon="1.45751">
        <ele>158.9</ele>
        <time>2023-09-07T07:16:38Z</time>
      </trkpt>
      <trkpt lat="44.42992" lon="1.45754">
        <ele>159.3</ele>
        <time>2023-09-07T07:16:43Z</time>
      </trkpt>
      <trkpt lat="44.42986" lon="1.45756">
        <ele>160.3</ele>
        <time>2023-09-07T07:16:47Z</time>
      </trkpt>
      <trkpt lat="44.42981" lon="1.45757">
        <ele>159.2</ele>
        <time>2023-09-07T07:16:51Z</time>
      </trkpt>
      <trkpt lat="44.42976" lon="1.45759">
        <ele>159.2</ele>
        <time>2023-09-07T07:16:55Z</time>
      </trkpt>
      <trkpt lat="44.42971" lon="1.45761">
        <ele>160.1</ele>
        <time>2023-09-07T07:16:59Z</time>
      </trkpt>
      <trkpt lat="44.42966" lon="1.45762">
        <ele>161.3</ele>
        <time>2023-09-07T07:17:04Z</time>
      </trkpt>
      <trkpt lat="44.42961" lon="1.45763">
        <ele>161.8</ele>
        <time>2023-09-07T07:17:09Z</time>
      </trkpt>
      <trkpt lat="44.42956" lon="1.45765">
        <ele>161.8</ele>
        <time>2023-09-07T07:17:15Z</time>
      </trkpt>
      <trkpt lat="44.42951" lon="1.45766">
        <ele>161.8</ele>
        <time>2023-09-07T07:17:20Z</time>
      </trkpt>
      <trkpt lat="44.42945" lon="1.45767">
        <ele>161.7</ele>
        <time>2023-09-07T07:17:25Z</time>
      </trkpt>
      <trkpt lat="44.4294" lon="1.45769">
        <ele>161.8</ele>
        <time>2023-09-07T07:17:30Z</time>
      </trkpt>
      <trkpt lat="44.42935" lon="1.45771">
        <ele>161.1</ele>
        <time>2023-09-07T07:17:35Z</time>
      </trkpt>
      <trkpt lat="44.42931" lon="1.45766">
        <ele>161.1</ele>
        <time>2023-09-07T07:17:40Z</time>
      </trkpt>
      <trkpt lat="44.42927" lon="1.45763">
        <ele>161.2</ele>
        <time>2023-09-07T07:17:43Z</time>
      </trkpt>
      <trkpt lat="44.42922" lon="1.45764">
        <ele>161.2</ele>
        <time>2023-09-07T07:17:49Z</time>
      </trkpt>
      <trkpt lat="44.42917" lon="1.45765">
        <ele>160.9</ele>
        <time>2023-09-07T07:17:54Z</time>
      </trkpt>
      <trkpt lat="44.42912" lon="1.45767">
        <ele>160.3</ele>
        <time>2023-09-07T07:17:59Z</time>
      </trkpt>
      <trkpt lat="44.42907" lon="1.45769">
        <ele>159.8</ele>
        <time>2023-09-07T07:18:04Z</time>
      </trkpt>
      <trkpt lat="44.42903" lon="1.45771">
        <ele>160.8</ele>
        <time>2023-09-07T07:18:08Z</time>
      </trkpt>
      <trkpt lat="44.42897" lon="1.45773">
        <ele>161</ele>
        <time>2023-09-07T07:18:12Z</time>
      </trkpt>
      <trkpt lat="44.42892" lon="1.45775">
        <ele>163.6</ele>
        <time>2023-09-07T07:18:17Z</time>
      </trkpt>
      <trkpt lat="44.42888" lon="1.45773">
        <ele>163.1</ele>
        <time>2023-09-07T07:18:21Z</time>
      </trkpt>
      <trkpt lat="44.42883" lon="1.45774">
        <ele>166.9</ele>
        <time>2023-09-07T07:18:26Z</time>
      </trkpt>
      <trkpt lat="44.42879" lon="1.45776">
        <ele>167.9</ele>
        <time>2023-09-07T07:18:31Z</time>
      </trkpt>
      <trkpt lat="44.42874" lon="1.45779">
        <ele>180.7</ele>
        <time>2023-09-07T07:18:36Z</time>
      </trkpt>
      <trkpt lat="44.42869" lon="1.4578">
        <ele>182.8</ele>
        <time>2023-09-07T07:18:42Z</time>
      </trkpt>
      <trkpt lat="44.42864" lon="1.45781">
        <ele>177.9</ele>
        <time>2023-09-07T07:18:47Z</time>
      </trkpt>
      <trkpt lat="44.42859" lon="1.45783">
        <ele>176.1</ele>
        <time>2023-09-07T07:18:51Z</time>
      </trkpt>
      <trkpt lat="44.42855" lon="1.45785">
        <ele>171.8</ele>
        <time>2023-09-07T07:18:56Z</time>
      </trkpt>
      <trkpt lat="44.42849" lon="1.45785">
        <ele>172.4</ele>
        <time>2023-09-07T07:19:03Z</time>
      </trkpt>
      <trkpt lat="44.42844" lon="1.45788">
        <ele>175.3</ele>
        <time>2023-09-07T07:19:07Z</time>
      </trkpt>
      <trkpt lat="44.42841" lon="1.45794">
        <ele>175.6</ele>
        <time>2023-09-07T07:19:11Z</time>
      </trkpt>
      <trkpt lat="44.42837" lon="1.45797">
        <ele>173.4</ele>
        <time>2023-09-07T07:19:17Z</time>
      </trkpt>
      <trkpt lat="44.42833" lon="1.45802">
        <ele>173.8</ele>
        <time>2023-09-07T07:19:23Z</time>
      </trkpt>
      <trkpt lat="44.4283" lon="1.45808">
        <ele>177.5</ele>
        <time>2023-09-07T07:19:28Z</time>
      </trkpt>
      <trkpt lat="44.42826" lon="1.45806">
        <ele>177.7</ele>
        <time>2023-09-07T07:19:34Z</time>
      </trkpt>
      <trkpt lat="44.42822" lon="1.4581">
        <ele>179</ele>
        <time>2023-09-07T07:19:41Z</time>
      </trkpt>
      <trkpt lat="44.42818" lon="1.45814">
        <ele>178.2</ele>
        <time>2023-09-07T07:19:48Z</time>
      </trkpt>
      <trkpt lat="44.42814" lon="1.4582">
        <ele>178.6</ele>
        <time>2023-09-07T07:19:55Z</time>
      </trkpt>
      <trkpt lat="44.42809" lon="1.45822">
        <ele>179.9</ele>
        <time>2023-09-07T07:20:00Z</time>
      </trkpt>
      <trkpt lat="44.42805" lon="1.45827">
        <ele>173.9</ele>
        <time>2023-09-07T07:20:13Z</time>
      </trkpt>
      <trkpt lat="44.42801" lon="1.45829">
        <ele>173.7</ele>
        <time>2023-09-07T07:20:19Z</time>
      </trkpt>
      <trkpt lat="44.42797" lon="1.45832">
        <ele>174.5</ele>
        <time>2023-09-07T07:20:25Z</time>
      </trkpt>
      <trkpt lat="44.42792" lon="1.45835">
        <ele>176.7</ele>
        <time>2023-09-07T07:20:32Z</time>
      </trkpt>
      <trkpt lat="44.42787" lon="1.45835">
        <ele>177.3</ele>
        <time>2023-09-07T07:20:38Z</time>
      </trkpt>
      <trkpt lat="44.42782" lon="1.45836">
        <ele>178.1</ele>
        <time>2023-09-07T07:20:45Z</time>
      </trkpt>
      <trkpt lat="44.42778" lon="1.45832">
        <ele>177.7</ele>
        <time>2023-09-07T07:20:51Z</time>
      </trkpt>
      <trkpt lat="44.42773" lon="1.45834">
        <ele>177.1</ele>
        <time>2023-09-07T07:21:06Z</time>
      </trkpt>
      <trkpt lat="44.42771" lon="1.45841">
        <ele>176.9</ele>
        <time>2023-09-07T07:21:12Z</time>
      </trkpt>
      <trkpt lat="44.42771" lon="1.45848">
        <ele>180.6</ele>
        <time>2023-09-07T07:21:18Z</time>
      </trkpt>
      <trkpt lat="44.42766" lon="1.45848">
        <ele>180.8</ele>
        <time>2023-09-07T07:21:25Z</time>
      </trkpt>
      <trkpt lat="44.42762" lon="1.4585">
        <ele>181</ele>
        <time>2023-09-07T07:21:31Z</time>
      </trkpt>
      <trkpt lat="44.42757" lon="1.45846">
        <ele>182.4</ele>
        <time>2023-09-07T07:21:37Z</time>
      </trkpt>
      <trkpt lat="44.42752" lon="1.45845">
        <ele>182.8</ele>
        <time>2023-09-07T07:21:44Z</time>
      </trkpt>
      <trkpt lat="44.42754" lon="1.45839">
        <ele>181.6</ele>
        <time>2023-09-07T07:21:54Z</time>
      </trkpt>
      <trkpt lat="44.42749" lon="1.45843">
        <ele>183.1</ele>
        <time>2023-09-07T07:22:03Z</time>
      </trkpt>
      <trkpt lat="44.42746" lon="1.45838">
        <ele>183</ele>
        <time>2023-09-07T07:22:08Z</time>
      </trkpt>
      <trkpt lat="44.42744" lon="1.45832">
        <ele>180.9</ele>
        <time>2023-09-07T07:22:16Z</time>
      </trkpt>
      <trkpt lat="44.42746" lon="1.45826">
        <ele>171.2</ele>
        <time>2023-09-07T07:22:24Z</time>
      </trkpt>
      <trkpt lat="44.42746" lon="1.45819">
        <ele>168.4</ele>
        <time>2023-09-07T07:22:34Z</time>
      </trkpt>
      <trkpt lat="44.42747" lon="1.45813">
        <ele>173.8</ele>
        <time>2023-09-07T07:22:50Z</time>
      </trkpt>
      <trkpt lat="44.42751" lon="1.45813">
        <ele>179.2</ele>
        <time>2023-09-07T07:22:57Z</time>
      </trkpt>
      <trkpt lat="44.42757" lon="1.45812">
        <ele>183.7</ele>
        <time>2023-09-07T07:23:03Z</time>
      </trkpt>
      <trkpt lat="44.4276" lon="1.45808">
        <ele>182.3</ele>
        <time>2023-09-07T07:23:11Z</time>
      </trkpt>
      <trkpt lat="44.42763" lon="1.45814">
        <ele>182.3</ele>
        <time>2023-09-07T07:23:20Z</time>
      </trkpt>
      <trkpt lat="44.42759" lon="1.45809">
        <ele>182.9</ele>
        <time>2023-09-07T07:23:26Z</time>
      </trkpt>
      <trkpt lat="44.42755" lon="1.45805">
        <ele>185.6</ele>
        <time>2023-09-07T07:23:35Z</time>
      </trkpt>
      <trkpt lat="44.42753" lon="1.458">
        <ele>186.1</ele>
        <time>2023-09-07T07:23:42Z</time>
      </trkpt>
      <trkpt lat="44.42751" lon="1.45793">
        <ele>189.1</ele>
        <time>2023-09-07T07:24:00Z</time>
      </trkpt>
      <trkpt lat="44.42752" lon="1.45786">
        <ele>190.9</ele>
        <time>2023-09-07T07:24:16Z</time>
      </trkpt>
      <trkpt lat="44.4275" lon="1.4578">
        <ele>192.8</ele>
        <time>2023-09-07T07:24:26Z</time>
      </trkpt>
      <trkpt lat="44.42751" lon="1.45773">
        <ele>196.8</ele>
        <time>2023-09-07T07:24:37Z</time>
      </trkpt>
      <trkpt lat="44.42755" lon="1.4577">
        <ele>195.7</ele>
        <time>2023-09-07T07:24:44Z</time>
      </trkpt>
      <trkpt lat="44.4276" lon="1.45772">
        <ele>189.4</ele>
        <time>2023-09-07T07:24:50Z</time>
      </trkpt>
      <trkpt lat="44.42764" lon="1.45768">
        <ele>192.7</ele>
        <time>2023-09-07T07:25:33Z</time>
      </trkpt>
      <trkpt lat="44.42768" lon="1.45764">
        <ele>194.1</ele>
        <time>2023-09-07T07:26:55Z</time>
      </trkpt>
      <trkpt lat="44.42771" lon="1.45759">
        <ele>190.2</ele>
        <time>2023-09-07T07:27:06Z</time>
      </trkpt>
      <trkpt lat="44.42767" lon="1.45755">
        <ele>195.6</ele>
        <time>2023-09-07T07:27:12Z</time>
      </trkpt>
      <trkpt lat="44.42763" lon="1.45751">
        <ele>194.3</ele>
        <time>2023-09-07T07:27:18Z</time>
      </trkpt>
      <trkpt lat="44.4276" lon="1.45747">
        <ele>194.7</ele>
        <time>2023-09-07T07:27:25Z</time>
      </trkpt>
      <trkpt lat="44.42756" lon="1.45743">
        <ele>197.2</ele>
        <time>2023-09-07T07:27:36Z</time>
      </trkpt>
      <trkpt lat="44.42752" lon="1.45739">
        <ele>194.6</ele>
        <time>2023-09-07T07:27:43Z</time>
      </trkpt>
      <trkpt lat="44.42751" lon="1.45732">
        <ele>199.5</ele>
        <time>2023-09-07T07:27:53Z</time>
      </trkpt>
      <trkpt lat="44.42749" lon="1.45726">
        <ele>201.2</ele>
        <time>2023-09-07T07:28:03Z</time>
      </trkpt>
      <trkpt lat="44.42749" lon="1.45719">
        <ele>206.7</ele>
        <time>2023-09-07T07:28:15Z</time>
      </trkpt>
      <trkpt lat="44.42747" lon="1.45712">
        <ele>207.7</ele>
        <time>2023-09-07T07:28:26Z</time>
      </trkpt>
      <trkpt lat="44.4275" lon="1.45707">
        <ele>211.4</ele>
        <time>2023-09-07T07:28:41Z</time>
      </trkpt>
      <trkpt lat="44.42748" lon="1.45701">
        <ele>210.5</ele>
        <time>2023-09-07T07:30:28Z</time>
      </trkpt>
      <trkpt lat="44.42749" lon="1.45694">
        <ele>213.6</ele>
        <time>2023-09-07T07:30:35Z</time>
      </trkpt>
      <trkpt lat="44.42748" lon="1.45688">
        <ele>215.8</ele>
        <time>2023-09-07T07:30:44Z</time>
      </trkpt>
      <trkpt lat="44.42748" lon="1.45681">
        <ele>216.9</ele>
        <time>2023-09-07T07:30:55Z</time>
      </trkpt>
      <trkpt lat="44.42749" lon="1.45675">
        <ele>217.6</ele>
        <time>2023-09-07T07:31:40Z</time>
      </trkpt>
      <trkpt lat="44.42747" lon="1.45669">
        <ele>219</ele>
        <time>2023-09-07T07:31:49Z</time>
      </trkpt>
      <trkpt lat="44.42748" lon="1.45662">
        <ele>219.2</ele>
        <time>2023-09-07T07:31:58Z</time>
      </trkpt>
      <trkpt lat="44.42749" lon="1.45655">
        <ele>220.2</ele>
        <time>2023-09-07T07:32:15Z</time>
      </trkpt>
      <trkpt lat="44.42748" lon="1.45649">
        <ele>222.7</ele>
        <time>2023-09-07T07:32:25Z</time>
      </trkpt>
      <trkpt lat="44.42747" lon="1.45643">
        <ele>225</ele>
        <time>2023-09-07T07:32:34Z</time>
      </trkpt>
      <trkpt lat="44.42745" lon="1.45637">
        <ele>228.5</ele>
        <time>2023-09-07T07:32:45Z</time>
      </trkpt>
      <trkpt lat="44.42747" lon="1.45631">
        <ele>230</ele>
        <time>2023-09-07T07:32:55Z</time>
      </trkpt>
      <trkpt lat="44.42749" lon="1.45625">
        <ele>233.2</ele>
        <time>2023-09-07T07:33:05Z</time>
      </trkpt>
      <trkpt lat="44.42749" lon="1.45619">
        <ele>232.7</ele>
        <time>2023-09-07T07:33:11Z</time>
      </trkpt>
      <trkpt lat="44.42744" lon="1.45618">
        <ele>235.8</ele>
        <time>2023-09-07T07:34:55Z</time>
      </trkpt>
      <trkpt lat="44.42743" lon="1.45612">
        <ele>235.4</ele>
        <time>2023-09-07T07:35:03Z</time>
      </trkpt>
      <trkpt lat="44.42742" lon="1.45606">
        <ele>235.5</ele>
        <time>2023-09-07T07:35:13Z</time>
      </trkpt>
      <trkpt lat="44.42739" lon="1.45601">
        <ele>238.3</ele>
        <time>2023-09-07T07:35:23Z</time>
      </trkpt>
      <trkpt lat="44.42738" lon="1.45594">
        <ele>240.8</ele>
        <time>2023-09-07T07:35:37Z</time>
      </trkpt>
      <trkpt lat="44.42737" lon="1.45587">
        <ele>242.4</ele>
        <time>2023-09-07T07:35:50Z</time>
      </trkpt>
      <trkpt lat="44.42734" lon="1.45583">
        <ele>243.9</ele>
        <time>2023-09-07T07:35:58Z</time>
      </trkpt>
      <trkpt lat="44.42734" lon="1.45576">
        <ele>246.4</ele>
        <time>2023-09-07T07:36:10Z</time>
      </trkpt>
      <trkpt lat="44.42736" lon="1.4557">
        <ele>250.5</ele>
        <time>2023-09-07T07:36:20Z</time>
      </trkpt>
      <trkpt lat="44.42733" lon="1.45565">
        <ele>251.5</ele>
        <time>2023-09-07T07:36:29Z</time>
      </trkpt>
      <trkpt lat="44.42731" lon="1.45558">
        <ele>252.3</ele>
        <time>2023-09-07T07:36:36Z</time>
      </trkpt>
      <trkpt lat="44.4273" lon="1.45551">
        <ele>256</ele>
        <time>2023-09-07T07:36:41Z</time>
      </trkpt>
      <trkpt lat="44.42732" lon="1.45545">
        <ele>257.5</ele>
        <time>2023-09-07T07:36:50Z</time>
      </trkpt>
      <trkpt lat="44.42733" lon="1.45538">
        <ele>259.3</ele>
        <time>2023-09-07T07:36:59Z</time>
      </trkpt>
      <trkpt lat="44.42735" lon="1.45532">
        <ele>257.9</ele>
        <time>2023-09-07T07:37:07Z</time>
      </trkpt>
      <trkpt lat="44.42736" lon="1.45525">
        <ele>257.8</ele>
        <time>2023-09-07T07:37:15Z</time>
      </trkpt>
      <trkpt lat="44.42736" lon="1.45518">
        <ele>258.3</ele>
        <time>2023-09-07T07:37:21Z</time>
      </trkpt>
      <trkpt lat="44.42736" lon="1.45511">
        <ele>258.8</ele>
        <time>2023-09-07T07:37:27Z</time>
      </trkpt>
      <trkpt lat="44.42733" lon="1.45505">
        <ele>259.3</ele>
        <time>2023-09-07T07:37:32Z</time>
      </trkpt>
      <trkpt lat="44.42729" lon="1.45502">
        <ele>261.6</ele>
        <time>2023-09-07T07:37:50Z</time>
      </trkpt>
      <trkpt lat="44.42724" lon="1.45499">
        <ele>262.9</ele>
        <time>2023-09-07T07:38:53Z</time>
      </trkpt>
      <trkpt lat="44.4272" lon="1.45496">
        <ele>263.2</ele>
        <time>2023-09-07T07:38:59Z</time>
      </trkpt>
      <trkpt lat="44.42716" lon="1.45492">
        <ele>263.4</ele>
        <time>2023-09-07T07:39:05Z</time>
      </trkpt>
      <trkpt lat="44.42712" lon="1.45488">
        <ele>262.8</ele>
        <time>2023-09-07T07:39:12Z</time>
      </trkpt>
      <trkpt lat="44.42707" lon="1.45484">
        <ele>262.3</ele>
        <time>2023-09-07T07:39:18Z</time>
      </trkpt>
      <trkpt lat="44.42704" lon="1.45481">
        <ele>262.2</ele>
        <time>2023-09-07T07:39:25Z</time>
      </trkpt>
      <trkpt lat="44.42699" lon="1.45478">
        <ele>263.1</ele>
        <time>2023-09-07T07:39:30Z</time>
      </trkpt>
      <trkpt lat="44.42701" lon="1.45487">
        <ele>263.3</ele>
        <time>2023-09-07T07:45:04Z</time>
      </trkpt>
      <trkpt lat="44.42696" lon="1.45486">
        <ele>263.6</ele>
        <time>2023-09-07T07:46:24Z</time>
      </trkpt>
      <trkpt lat="44.42691" lon="1.4549">
        <ele>265.5</ele>
        <time>2023-09-07T07:46:29Z</time>
      </trkpt>
      <trkpt lat="44.42687" lon="1.45493">
        <ele>266</ele>
        <time>2023-09-07T07:46:35Z</time>
      </trkpt>
      <trkpt lat="44.42682" lon="1.45493">
        <ele>264.7</ele>
        <time>2023-09-07T07:46:41Z</time>
      </trkpt>
      <trkpt lat="44.42677" lon="1.45492">
        <ele>263.5</ele>
        <time>2023-09-07T07:46:47Z</time>
      </trkpt>
      <trkpt lat="44.42672" lon="1.45491">
        <ele>262.4</ele>
        <time>2023-09-07T07:46:53Z</time>
      </trkpt>
      <trkpt lat="44.42668" lon="1.4549">
        <ele>260.7</ele>
        <time>2023-09-07T07:46:59Z</time>
      </trkpt>
      <trkpt lat="44.42663" lon="1.4549">
        <ele>259.7</ele>
        <time>2023-09-07T07:47:05Z</time>
      </trkpt>
      <trkpt lat="44.42658" lon="1.4549">
        <ele>258.6</ele>
        <time>2023-09-07T07:47:11Z</time>
      </trkpt>
      <trkpt lat="44.42653" lon="1.4549">
        <ele>258.1</ele>
        <time>2023-09-07T07:47:17Z</time>
      </trkpt>
      <trkpt lat="44.42648" lon="1.4549">
        <ele>257.7</ele>
        <time>2023-09-07T07:47:23Z</time>
      </trkpt>
      <trkpt lat="44.42643" lon="1.45489">
        <ele>257</ele>
        <time>2023-09-07T07:47:29Z</time>
      </trkpt>
      <trkpt lat="44.42638" lon="1.45488">
        <ele>255.9</ele>
        <time>2023-09-07T07:47:35Z</time>
      </trkpt>
      <trkpt lat="44.42633" lon="1.45486">
        <ele>254.6</ele>
        <time>2023-09-07T07:47:41Z</time>
      </trkpt>
      <trkpt lat="44.42628" lon="1.45486">
        <ele>253.5</ele>
        <time>2023-09-07T07:47:47Z</time>
      </trkpt>
      <trkpt lat="44.42623" lon="1.45485">
        <ele>252.5</ele>
        <time>2023-09-07T07:47:52Z</time>
      </trkpt>
      <trkpt lat="44.42618" lon="1.45484">
        <ele>251.9</ele>
        <time>2023-09-07T07:47:57Z</time>
      </trkpt>
      <trkpt lat="44.42613" lon="1.45483">
        <ele>251.7</ele>
        <time>2023-09-07T07:48:02Z</time>
      </trkpt>
      <trkpt lat="44.42609" lon="1.45482">
        <ele>251.3</ele>
        <time>2023-09-07T07:48:07Z</time>
      </trkpt>
      <trkpt lat="44.42605" lon="1.45481">
        <ele>250.8</ele>
        <time>2023-09-07T07:48:11Z</time>
      </trkpt>
      <trkpt lat="44.426" lon="1.4548">
        <ele>250.9</ele>
        <time>2023-09-07T07:48:16Z</time>
      </trkpt>
      <trkpt lat="44.42595" lon="1.45478">
        <ele>251.4</ele>
        <time>2023-09-07T07:48:21Z</time>
      </trkpt>
      <trkpt lat="44.4259" lon="1.45477">
        <ele>251.7</ele>
        <time>2023-09-07T07:48:26Z</time>
      </trkpt>
      <trkpt lat="44.42585" lon="1.45478">
        <ele>251.4</ele>
        <time>2023-09-07T07:48:31Z</time>
      </trkpt>
      <trkpt lat="44.4258" lon="1.45477">
        <ele>250.7</ele>
        <time>2023-09-07T07:48:36Z</time>
      </trkpt>
      <trkpt lat="44.42575" lon="1.45476">
        <ele>250.6</ele>
        <time>2023-09-07T07:48:41Z</time>
      </trkpt>
      <trkpt lat="44.4257" lon="1.45475">
        <ele>250.8</ele>
        <time>2023-09-07T07:48:46Z</time>
      </trkpt>
      <trkpt lat="44.42566" lon="1.45473">
        <ele>250.5</ele>
        <time>2023-09-07T07:48:51Z</time>
      </trkpt>
      <trkpt lat="44.42561" lon="1.4547">
        <ele>249.4</ele>
        <time>2023-09-07T07:48:56Z</time>
      </trkpt>
      <trkpt lat="44.42557" lon="1.45469">
        <ele>249.2</ele>
        <time>2023-09-07T07:49:01Z</time>
      </trkpt>
      <trkpt lat="44.42552" lon="1.45467">
        <ele>248.5</ele>
        <time>2023-09-07T07:49:05Z</time>
      </trkpt>
      <trkpt lat="44.42547" lon="1.45467">
        <ele>248.7</ele>
        <time>2023-09-07T07:49:10Z</time>
      </trkpt>
      <trkpt lat="44.42542" lon="1.45468">
        <ele>248.8</ele>
        <time>2023-09-07T07:49:14Z</time>
      </trkpt>
      <trkpt lat="44.42537" lon="1.45468">
        <ele>249.4</ele>
        <time>2023-09-07T07:49:19Z</time>
      </trkpt>
      <trkpt lat="44.42532" lon="1.45467">
        <ele>250</ele>
        <time>2023-09-07T07:49:24Z</time>
      </trkpt>
      <trkpt lat="44.42528" lon="1.45464">
        <ele>250.2</ele>
        <time>2023-09-07T07:49:30Z</time>
      </trkpt>
      <trkpt lat="44.42523" lon="1.45461">
        <ele>250.9</ele>
        <time>2023-09-07T07:49:36Z</time>
      </trkpt>
      <trkpt lat="44.42519" lon="1.45457">
        <ele>253</ele>
        <time>2023-09-07T07:49:42Z</time>
      </trkpt>
      <trkpt lat="44.42515" lon="1.45455">
        <ele>252.2</ele>
        <time>2023-09-07T07:49:48Z</time>
      </trkpt>
      <trkpt lat="44.4251" lon="1.45453">
        <ele>252.8</ele>
        <time>2023-09-07T07:49:54Z</time>
      </trkpt>
      <trkpt lat="44.42505" lon="1.45452">
        <ele>252.5</ele>
        <time>2023-09-07T07:49:59Z</time>
      </trkpt>
      <trkpt lat="44.425" lon="1.45452">
        <ele>251.6</ele>
        <time>2023-09-07T07:50:04Z</time>
      </trkpt>
      <trkpt lat="44.42495" lon="1.4545">
        <ele>252.1</ele>
        <time>2023-09-07T07:50:09Z</time>
      </trkpt>
      <trkpt lat="44.4249" lon="1.4545">
        <ele>252.3</ele>
        <time>2023-09-07T07:50:14Z</time>
      </trkpt>
      <trkpt lat="44.42485" lon="1.45449">
        <ele>251.8</ele>
        <time>2023-09-07T07:50:20Z</time>
      </trkpt>
      <trkpt lat="44.42479" lon="1.45449">
        <ele>252.8</ele>
        <time>2023-09-07T07:50:25Z</time>
      </trkpt>
      <trkpt lat="44.42474" lon="1.4545">
        <ele>253.4</ele>
        <time>2023-09-07T07:50:30Z</time>
      </trkpt>
      <trkpt lat="44.42469" lon="1.45451">
        <ele>254.2</ele>
        <time>2023-09-07T07:50:34Z</time>
      </trkpt>
      <trkpt lat="44.42464" lon="1.45453">
        <ele>255.9</ele>
        <time>2023-09-07T07:50:38Z</time>
      </trkpt>
      <trkpt lat="44.42459" lon="1.45455">
        <ele>256.3</ele>
        <time>2023-09-07T07:50:42Z</time>
      </trkpt>
      <trkpt lat="44.42454" lon="1.45457">
        <ele>257.3</ele>
        <time>2023-09-07T07:50:46Z</time>
      </trkpt>
      <trkpt lat="44.42449" lon="1.45458">
        <ele>256.9</ele>
        <time>2023-09-07T07:50:51Z</time>
      </trkpt>
      <trkpt lat="44.42444" lon="1.45458">
        <ele>256.5</ele>
        <time>2023-09-07T07:50:56Z</time>
      </trkpt>
      <trkpt lat="44.42438" lon="1.45459">
        <ele>256.7</ele>
        <time>2023-09-07T07:51:01Z</time>
      </trkpt>
      <trkpt lat="44.42434" lon="1.4546">
        <ele>257.3</ele>
        <time>2023-09-07T07:51:05Z</time>
      </trkpt>
      <trkpt lat="44.42429" lon="1.45462">
        <ele>257.6</ele>
        <time>2023-09-07T07:51:10Z</time>
      </trkpt>
      <trkpt lat="44.42424" lon="1.45462">
        <ele>257.1</ele>
        <time>2023-09-07T07:51:15Z</time>
      </trkpt>
      <trkpt lat="44.42419" lon="1.45462">
        <ele>256.8</ele>
        <time>2023-09-07T07:51:21Z</time>
      </trkpt>
      <trkpt lat="44.42414" lon="1.45462">
        <ele>256.4</ele>
        <time>2023-09-07T07:51:27Z</time>
      </trkpt>
      <trkpt lat="44.42409" lon="1.45461">
        <ele>254.8</ele>
        <time>2023-09-07T07:51:32Z</time>
      </trkpt>
      <trkpt lat="44.42404" lon="1.45461">
        <ele>254.3</ele>
        <time>2023-09-07T07:51:36Z</time>
      </trkpt>
      <trkpt lat="44.42399" lon="1.45461">
        <ele>253.5</ele>
        <time>2023-09-07T07:51:41Z</time>
      </trkpt>
      <trkpt lat="44.42394" lon="1.45461">
        <ele>253.1</ele>
        <time>2023-09-07T07:51:46Z</time>
      </trkpt>
      <trkpt lat="44.42389" lon="1.45462">
        <ele>253</ele>
        <time>2023-09-07T07:51:51Z</time>
      </trkpt>
      <trkpt lat="44.42384" lon="1.45461">
        <ele>252.9</ele>
        <time>2023-09-07T07:51:56Z</time>
      </trkpt>
      <trkpt lat="44.42379" lon="1.45459">
        <ele>252.8</ele>
        <time>2023-09-07T07:52:02Z</time>
      </trkpt>
      <trkpt lat="44.42374" lon="1.45457">
        <ele>252.6</ele>
        <time>2023-09-07T07:52:07Z</time>
      </trkpt>
      <trkpt lat="44.4237" lon="1.45455">
        <ele>252.7</ele>
        <time>2023-09-07T07:52:12Z</time>
      </trkpt>
      <trkpt lat="44.42365" lon="1.45453">
        <ele>252.1</ele>
        <time>2023-09-07T07:52:17Z</time>
      </trkpt>
      <trkpt lat="44.42361" lon="1.45451">
        <ele>251</ele>
        <time>2023-09-07T07:52:22Z</time>
      </trkpt>
      <trkpt lat="44.42356" lon="1.45449">
        <ele>250.6</ele>
        <time>2023-09-07T07:52:27Z</time>
      </trkpt>
      <trkpt lat="44.42351" lon="1.45446">
        <ele>250.3</ele>
        <time>2023-09-07T07:52:32Z</time>
      </trkpt>
      <trkpt lat="44.42346" lon="1.45444">
        <ele>249.8</ele>
        <time>2023-09-07T07:52:38Z</time>
      </trkpt>
      <trkpt lat="44.42341" lon="1.45443">
        <ele>249.9</ele>
        <time>2023-09-07T07:52:43Z</time>
      </trkpt>
      <trkpt lat="44.42336" lon="1.45442">
        <ele>251.2</ele>
        <time>2023-09-07T07:52:48Z</time>
      </trkpt>
      <trkpt lat="44.42332" lon="1.45446">
        <ele>254.9</ele>
        <time>2023-09-07T07:52:56Z</time>
      </trkpt>
      <trkpt lat="44.4233" lon="1.4544">
        <ele>258.8</ele>
        <time>2023-09-07T07:56:37Z</time>
      </trkpt>
      <trkpt lat="44.4233" lon="1.45446">
        <ele>261.3</ele>
        <time>2023-09-07T07:58:17Z</time>
      </trkpt>
      <trkpt lat="44.42329" lon="1.4544">
        <ele>256.6</ele>
        <time>2023-09-07T08:03:20Z</time>
      </trkpt>
      <trkpt lat="44.42324" lon="1.45441">
        <ele>253.6</ele>
        <time>2023-09-07T08:03:33Z</time>
      </trkpt>
      <trkpt lat="44.42319" lon="1.45438">
        <ele>253.6</ele>
        <time>2023-09-07T08:03:40Z</time>
      </trkpt>
      <trkpt lat="44.42314" lon="1.45438">
        <ele>252</ele>
        <time>2023-09-07T08:03:46Z</time>
      </trkpt>
      <trkpt lat="44.42309" lon="1.45439">
        <ele>252.4</ele>
        <time>2023-09-07T08:03:51Z</time>
      </trkpt>
      <trkpt lat="44.42304" lon="1.45439">
        <ele>252.4</ele>
        <time>2023-09-07T08:03:55Z</time>
      </trkpt>
      <trkpt lat="44.42299" lon="1.45439">
        <ele>252.9</ele>
        <time>2023-09-07T08:04:00Z</time>
      </trkpt>
      <trkpt lat="44.42294" lon="1.45437">
        <ele>252.3</ele>
        <time>2023-09-07T08:04:05Z</time>
      </trkpt>
      <trkpt lat="44.42289" lon="1.45436">
        <ele>252.2</ele>
        <time>2023-09-07T08:04:10Z</time>
      </trkpt>
      <trkpt lat="44.42284" lon="1.45435">
        <ele>251.9</ele>
        <time>2023-09-07T08:04:14Z</time>
      </trkpt>
      <trkpt lat="44.42279" lon="1.45435">
        <ele>251.9</ele>
        <time>2023-09-07T08:04:19Z</time>
      </trkpt>
      <trkpt lat="44.42273" lon="1.45433">
        <ele>250.8</ele>
        <time>2023-09-07T08:04:24Z</time>
      </trkpt>
      <trkpt lat="44.42268" lon="1.45431">
        <ele>250.7</ele>
        <time>2023-09-07T08:04:29Z</time>
      </trkpt>
      <trkpt lat="44.42262" lon="1.4543">
        <ele>251</ele>
        <time>2023-09-07T08:04:34Z</time>
      </trkpt>
      <trkpt lat="44.42257" lon="1.45431">
        <ele>250.7</ele>
        <time>2023-09-07T08:04:39Z</time>
      </trkpt>
      <trkpt lat="44.42252" lon="1.45432">
        <ele>250.6</ele>
        <time>2023-09-07T08:04:44Z</time>
      </trkpt>
      <trkpt lat="44.42248" lon="1.45434">
        <ele>251</ele>
        <time>2023-09-07T08:04:48Z</time>
      </trkpt>
      <trkpt lat="44.42242" lon="1.45436">
        <ele>252.1</ele>
        <time>2023-09-07T08:04:53Z</time>
      </trkpt>
      <trkpt lat="44.42238" lon="1.45438">
        <ele>253</ele>
        <time>2023-09-07T08:04:58Z</time>
      </trkpt>
      <trkpt lat="44.42233" lon="1.45441">
        <ele>253</ele>
        <time>2023-09-07T08:05:03Z</time>
      </trkpt>
      <trkpt lat="44.42227" lon="1.45444">
        <ele>253.8</ele>
        <time>2023-09-07T08:05:08Z</time>
      </trkpt>
      <trkpt lat="44.42223" lon="1.45446">
        <ele>254.7</ele>
        <time>2023-09-07T08:05:13Z</time>
      </trkpt>
      <trkpt lat="44.42218" lon="1.45448">
        <ele>255.9</ele>
        <time>2023-09-07T08:05:19Z</time>
      </trkpt>
      <trkpt lat="44.42213" lon="1.4545">
        <ele>257.2</ele>
        <time>2023-09-07T08:05:25Z</time>
      </trkpt>
      <trkpt lat="44.42208" lon="1.45451">
        <ele>257.3</ele>
        <time>2023-09-07T08:05:31Z</time>
      </trkpt>
      <trkpt lat="44.42203" lon="1.45453">
        <ele>258.2</ele>
        <time>2023-09-07T08:05:36Z</time>
      </trkpt>
      <trkpt lat="44.42198" lon="1.45455">
        <ele>258.9</ele>
        <time>2023-09-07T08:05:41Z</time>
      </trkpt>
      <trkpt lat="44.42194" lon="1.45458">
        <ele>259.6</ele>
        <time>2023-09-07T08:05:45Z</time>
      </trkpt>
      <trkpt lat="44.42189" lon="1.45462">
        <ele>261.8</ele>
        <time>2023-09-07T08:05:49Z</time>
      </trkpt>
      <trkpt lat="44.42184" lon="1.45465">
        <ele>262.8</ele>
        <time>2023-09-07T08:05:53Z</time>
      </trkpt>
      <trkpt lat="44.42179" lon="1.45467">
        <ele>262.9</ele>
        <time>2023-09-07T08:05:59Z</time>
      </trkpt>
      <trkpt lat="44.42174" lon="1.4547">
        <ele>263</ele>
        <time>2023-09-07T08:06:03Z</time>
      </trkpt>
      <trkpt lat="44.42169" lon="1.45473">
        <ele>264</ele>
        <time>2023-09-07T08:06:07Z</time>
      </trkpt>
      <trkpt lat="44.42164" lon="1.45475">
        <ele>263.8</ele>
        <time>2023-09-07T08:06:10Z</time>
      </trkpt>
      <trkpt lat="44.42159" lon="1.45478">
        <ele>263.3</ele>
        <time>2023-09-07T08:06:13Z</time>
      </trkpt>
      <trkpt lat="44.42155" lon="1.4548">
        <ele>266.2</ele>
        <time>2023-09-07T08:06:16Z</time>
      </trkpt>
      <trkpt lat="44.4215" lon="1.45477">
        <ele>265.9</ele>
        <time>2023-09-07T08:06:23Z</time>
      </trkpt>
      <trkpt lat="44.42147" lon="1.45473">
        <ele>266.1</ele>
        <time>2023-09-07T08:06:29Z</time>
      </trkpt>
      <trkpt lat="44.42144" lon="1.45467">
        <ele>264.2</ele>
        <time>2023-09-07T08:06:35Z</time>
      </trkpt>
      <trkpt lat="44.4214" lon="1.45462">
        <ele>263</ele>
        <time>2023-09-07T08:06:41Z</time>
      </trkpt>
      <trkpt lat="44.42136" lon="1.45459">
        <ele>262.3</ele>
        <time>2023-09-07T08:06:46Z</time>
      </trkpt>
      <trkpt lat="44.42131" lon="1.45457">
        <ele>261.3</ele>
        <time>2023-09-07T08:06:52Z</time>
      </trkpt>
      <trkpt lat="44.42126" lon="1.45457">
        <ele>261.5</ele>
        <time>2023-09-07T08:06:57Z</time>
      </trkpt>
      <trkpt lat="44.42122" lon="1.45458">
        <ele>261.8</ele>
        <time>2023-09-07T08:07:02Z</time>
      </trkpt>
      <trkpt lat="44.42117" lon="1.45459">
        <ele>262</ele>
        <time>2023-09-07T08:07:07Z</time>
      </trkpt>
      <trkpt lat="44.42112" lon="1.45459">
        <ele>261.5</ele>
        <time>2023-09-07T08:07:12Z</time>
      </trkpt>
      <trkpt lat="44.42107" lon="1.45462">
        <ele>261.1</ele>
        <time>2023-09-07T08:07:17Z</time>
      </trkpt>
      <trkpt lat="44.42102" lon="1.45464">
        <ele>260.5</ele>
        <time>2023-09-07T08:07:22Z</time>
      </trkpt>
      <trkpt lat="44.42097" lon="1.45467">
        <ele>259.5</ele>
        <time>2023-09-07T08:07:27Z</time>
      </trkpt>
      <trkpt lat="44.42092" lon="1.4547">
        <ele>258.8</ele>
        <time>2023-09-07T08:07:32Z</time>
      </trkpt>
      <trkpt lat="44.42088" lon="1.45472">
        <ele>258.7</ele>
        <time>2023-09-07T08:07:37Z</time>
      </trkpt>
      <trkpt lat="44.42083" lon="1.45474">
        <ele>258.9</ele>
        <time>2023-09-07T08:07:42Z</time>
      </trkpt>
      <trkpt lat="44.42078" lon="1.45475">
        <ele>258.1</ele>
        <time>2023-09-07T08:07:47Z</time>
      </trkpt>
      <trkpt lat="44.42073" lon="1.45477">
        <ele>258.1</ele>
        <time>2023-09-07T08:07:52Z</time>
      </trkpt>
      <trkpt lat="44.42068" lon="1.45479">
        <ele>257.6</ele>
        <time>2023-09-07T08:07:57Z</time>
      </trkpt>
      <trkpt lat="44.42063" lon="1.45479">
        <ele>256.9</ele>
        <time>2023-09-07T08:08:02Z</time>
      </trkpt>
      <trkpt lat="44.42057" lon="1.45479">
        <ele>256.3</ele>
        <time>2023-09-07T08:08:07Z</time>
      </trkpt>
      <trkpt lat="44.42052" lon="1.45479">
        <ele>255.8</ele>
        <time>2023-09-07T08:08:12Z</time>
      </trkpt>
      <trkpt lat="44.42047" lon="1.4548">
        <ele>255.6</ele>
        <time>2023-09-07T08:08:17Z</time>
      </trkpt>
      <trkpt lat="44.42042" lon="1.45483">
        <ele>255.5</ele>
        <time>2023-09-07T08:08:22Z</time>
      </trkpt>
      <trkpt lat="44.42038" lon="1.45488">
        <ele>255.5</ele>
        <time>2023-09-07T08:08:27Z</time>
      </trkpt>
      <trkpt lat="44.42035" lon="1.45494">
        <ele>255.7</ele>
        <time>2023-09-07T08:08:32Z</time>
      </trkpt>
      <trkpt lat="44.42033" lon="1.455">
        <ele>255.6</ele>
        <time>2023-09-07T08:08:37Z</time>
      </trkpt>
      <trkpt lat="44.4203" lon="1.45506">
        <ele>256</ele>
        <time>2023-09-07T08:08:42Z</time>
      </trkpt>
      <trkpt lat="44.42026" lon="1.45511">
        <ele>256.4</ele>
        <time>2023-09-07T08:08:47Z</time>
      </trkpt>
      <trkpt lat="44.42022" lon="1.45515">
        <ele>256.7</ele>
        <time>2023-09-07T08:08:52Z</time>
      </trkpt>
      <trkpt lat="44.42017" lon="1.4552">
        <ele>256.2</ele>
        <time>2023-09-07T08:08:57Z</time>
      </trkpt>
      <trkpt lat="44.42014" lon="1.45523">
        <ele>256</ele>
        <time>2023-09-07T08:09:01Z</time>
      </trkpt>
      <trkpt lat="44.4201" lon="1.45526">
        <ele>255.4</ele>
        <time>2023-09-07T08:09:05Z</time>
      </trkpt>
      <trkpt lat="44.42004" lon="1.45529">
        <ele>254.9</ele>
        <time>2023-09-07T08:09:10Z</time>
      </trkpt>
      <trkpt lat="44.42" lon="1.45534">
        <ele>254.4</ele>
        <time>2023-09-07T08:09:15Z</time>
      </trkpt>
      <trkpt lat="44.41996" lon="1.45538">
        <ele>253.8</ele>
        <time>2023-09-07T08:09:20Z</time>
      </trkpt>
      <trkpt lat="44.41992" lon="1.45542">
        <ele>253.6</ele>
        <time>2023-09-07T08:09:25Z</time>
      </trkpt>
      <trkpt lat="44.41988" lon="1.45548">
        <ele>253.8</ele>
        <time>2023-09-07T08:09:30Z</time>
      </trkpt>
      <trkpt lat="44.41984" lon="1.45553">
        <ele>253.7</ele>
        <time>2023-09-07T08:09:35Z</time>
      </trkpt>
      <trkpt lat="44.4198" lon="1.45558">
        <ele>253.9</ele>
        <time>2023-09-07T08:09:40Z</time>
      </trkpt>
      <trkpt lat="44.41976" lon="1.45563">
        <ele>254</ele>
        <time>2023-09-07T08:09:45Z</time>
      </trkpt>
      <trkpt lat="44.41972" lon="1.45568">
        <ele>254.7</ele>
        <time>2023-09-07T08:09:49Z</time>
      </trkpt>
      <trkpt lat="44.41968" lon="1.45572">
        <ele>255.7</ele>
        <time>2023-09-07T08:09:53Z</time>
      </trkpt>
      <trkpt lat="44.41964" lon="1.45575">
        <ele>255.9</ele>
        <time>2023-09-07T08:09:58Z</time>
      </trkpt>
      <trkpt lat="44.41959" lon="1.45579">
        <ele>255.9</ele>
        <time>2023-09-07T08:10:03Z</time>
      </trkpt>
      <trkpt lat="44.41954" lon="1.45582">
        <ele>255.9</ele>
        <time>2023-09-07T08:10:08Z</time>
      </trkpt>
      <trkpt lat="44.41949" lon="1.45586">
        <ele>255.6</ele>
        <time>2023-09-07T08:10:13Z</time>
      </trkpt>
      <trkpt lat="44.41944" lon="1.45588">
        <ele>255.3</ele>
        <time>2023-09-07T08:10:18Z</time>
      </trkpt>
      <trkpt lat="44.41939" lon="1.45592">
        <ele>255.2</ele>
        <time>2023-09-07T08:10:23Z</time>
      </trkpt>
      <trkpt lat="44.41935" lon="1.45595">
        <ele>254.9</ele>
        <time>2023-09-07T08:10:28Z</time>
      </trkpt>
      <trkpt lat="44.4193" lon="1.45598">
        <ele>254.4</ele>
        <time>2023-09-07T08:10:33Z</time>
      </trkpt>
      <trkpt lat="44.41925" lon="1.456">
        <ele>254.1</ele>
        <time>2023-09-07T08:10:38Z</time>
      </trkpt>
      <trkpt lat="44.4192" lon="1.45603">
        <ele>254.2</ele>
        <time>2023-09-07T08:10:43Z</time>
      </trkpt>
      <trkpt lat="44.41915" lon="1.45606">
        <ele>253.9</ele>
        <time>2023-09-07T08:10:48Z</time>
      </trkpt>
      <trkpt lat="44.41911" lon="1.45609">
        <ele>253.6</ele>
        <time>2023-09-07T08:10:52Z</time>
      </trkpt>
      <trkpt lat="44.41906" lon="1.45612">
        <ele>253.7</ele>
        <time>2023-09-07T08:10:57Z</time>
      </trkpt>
      <trkpt lat="44.41901" lon="1.45614">
        <ele>253.9</ele>
        <time>2023-09-07T08:11:02Z</time>
      </trkpt>
      <trkpt lat="44.41897" lon="1.45615">
        <ele>253.9</ele>
        <time>2023-09-07T08:11:06Z</time>
      </trkpt>
      <trkpt lat="44.41892" lon="1.45617">
        <ele>253.7</ele>
        <time>2023-09-07T08:11:10Z</time>
      </trkpt>
      <trkpt lat="44.41888" lon="1.45619">
        <ele>253.9</ele>
        <time>2023-09-07T08:11:14Z</time>
      </trkpt>
      <trkpt lat="44.41883" lon="1.45621">
        <ele>253.7</ele>
        <time>2023-09-07T08:11:18Z</time>
      </trkpt>
      <trkpt lat="44.41879" lon="1.45622">
        <ele>253.6</ele>
        <time>2023-09-07T08:11:22Z</time>
      </trkpt>
      <trkpt lat="44.41874" lon="1.45624">
        <ele>254</ele>
        <time>2023-09-07T08:11:26Z</time>
      </trkpt>
      <trkpt lat="44.41869" lon="1.45627">
        <ele>254.2</ele>
        <time>2023-09-07T08:11:31Z</time>
      </trkpt>
      <trkpt lat="44.41865" lon="1.4563">
        <ele>254.7</ele>
        <time>2023-09-07T08:11:35Z</time>
      </trkpt>
      <trkpt lat="44.4186" lon="1.45632">
        <ele>255.3</ele>
        <time>2023-09-07T08:11:39Z</time>
      </trkpt>
      <trkpt lat="44.41855" lon="1.45635">
        <ele>255.6</ele>
        <time>2023-09-07T08:11:44Z</time>
      </trkpt>
      <trkpt lat="44.41851" lon="1.45639">
        <ele>256.8</ele>
        <time>2023-09-07T08:11:49Z</time>
      </trkpt>
      <trkpt lat="44.41847" lon="1.45643">
        <ele>257.1</ele>
        <time>2023-09-07T08:11:53Z</time>
      </trkpt>
      <trkpt lat="44.41842" lon="1.45646">
        <ele>257.9</ele>
        <time>2023-09-07T08:11:58Z</time>
      </trkpt>
      <trkpt lat="44.41837" lon="1.45649">
        <ele>258.2</ele>
        <time>2023-09-07T08:12:03Z</time>
      </trkpt>
      <trkpt lat="44.41833" lon="1.45652">
        <ele>258.7</ele>
        <time>2023-09-07T08:12:07Z</time>
      </trkpt>
      <trkpt lat="44.41828" lon="1.45656">
        <ele>260.1</ele>
        <time>2023-09-07T08:12:11Z</time>
      </trkpt>
      <trkpt lat="44.41823" lon="1.45659">
        <ele>259.9</ele>
        <time>2023-09-07T08:12:16Z</time>
      </trkpt>
      <trkpt lat="44.41818" lon="1.45662">
        <ele>260.6</ele>
        <time>2023-09-07T08:12:20Z</time>
      </trkpt>
      <trkpt lat="44.41814" lon="1.45666">
        <ele>261.5</ele>
        <time>2023-09-07T08:12:24Z</time>
      </trkpt>
      <trkpt lat="44.41809" lon="1.45667">
        <ele>261.2</ele>
        <time>2023-09-07T08:12:29Z</time>
      </trkpt>
      <trkpt lat="44.41804" lon="1.45669">
        <ele>261.6</ele>
        <time>2023-09-07T08:12:34Z</time>
      </trkpt>
      <trkpt lat="44.41799" lon="1.45672">
        <ele>261</ele>
        <time>2023-09-07T08:12:39Z</time>
      </trkpt>
      <trkpt lat="44.41796" lon="1.45676">
        <ele>260.9</ele>
        <time>2023-09-07T08:12:44Z</time>
      </trkpt>
      <trkpt lat="44.41791" lon="1.45679">
        <ele>261.4</ele>
        <time>2023-09-07T08:12:49Z</time>
      </trkpt>
      <trkpt lat="44.41787" lon="1.45682">
        <ele>261.5</ele>
        <time>2023-09-07T08:12:54Z</time>
      </trkpt>
      <trkpt lat="44.41782" lon="1.45686">
        <ele>262.1</ele>
        <time>2023-09-07T08:12:59Z</time>
      </trkpt>
      <trkpt lat="44.41779" lon="1.4569">
        <ele>261.9</ele>
        <time>2023-09-07T08:13:03Z</time>
      </trkpt>
      <trkpt lat="44.41775" lon="1.45696">
        <ele>262.8</ele>
        <time>2023-09-07T08:13:07Z</time>
      </trkpt>
      <trkpt lat="44.4177" lon="1.45697">
        <ele>262.3</ele>
        <time>2023-09-07T08:13:12Z</time>
      </trkpt>
      <trkpt lat="44.41767" lon="1.45701">
        <ele>260.1</ele>
        <time>2023-09-07T08:13:17Z</time>
      </trkpt>
      <trkpt lat="44.41765" lon="1.45708">
        <ele>259.9</ele>
        <time>2023-09-07T08:13:22Z</time>
      </trkpt>
      <trkpt lat="44.41764" lon="1.45714">
        <ele>260.3</ele>
        <time>2023-09-07T08:13:26Z</time>
      </trkpt>
      <trkpt lat="44.41763" lon="1.45721">
        <ele>260.5</ele>
        <time>2023-09-07T08:13:31Z</time>
      </trkpt>
      <trkpt lat="44.41764" lon="1.45728">
        <ele>261.1</ele>
        <time>2023-09-07T08:13:36Z</time>
      </trkpt>
      <trkpt lat="44.41764" lon="1.45735">
        <ele>261</ele>
        <time>2023-09-07T08:13:41Z</time>
      </trkpt>
      <trkpt lat="44.41764" lon="1.45743">
        <ele>262.1</ele>
        <time>2023-09-07T08:13:46Z</time>
      </trkpt>
      <trkpt lat="44.41761" lon="1.4575">
        <ele>262.2</ele>
        <time>2023-09-07T08:13:51Z</time>
      </trkpt>
      <trkpt lat="44.41759" lon="1.45756">
        <ele>262.1</ele>
        <time>2023-09-07T08:13:55Z</time>
      </trkpt>
      <trkpt lat="44.41757" lon="1.45761">
        <ele>262.6</ele>
        <time>2023-09-07T08:13:59Z</time>
      </trkpt>
      <trkpt lat="44.41755" lon="1.45767">
        <ele>263.1</ele>
        <time>2023-09-07T08:14:03Z</time>
      </trkpt>
      <trkpt lat="44.41753" lon="1.45774">
        <ele>263.4</ele>
        <time>2023-09-07T08:14:08Z</time>
      </trkpt>
      <trkpt lat="44.41752" lon="1.45782">
        <ele>263.4</ele>
        <time>2023-09-07T08:14:13Z</time>
      </trkpt>
      <trkpt lat="44.41752" lon="1.4579">
        <ele>264.2</ele>
        <time>2023-09-07T08:14:18Z</time>
      </trkpt>
      <trkpt lat="44.41752" lon="1.45798">
        <ele>264.5</ele>
        <time>2023-09-07T08:14:23Z</time>
      </trkpt>
      <trkpt lat="44.41752" lon="1.45805">
        <ele>264.6</ele>
        <time>2023-09-07T08:14:28Z</time>
      </trkpt>
      <trkpt lat="44.41753" lon="1.45813">
        <ele>264.8</ele>
        <time>2023-09-07T08:14:33Z</time>
      </trkpt>
      <trkpt lat="44.41753" lon="1.4582">
        <ele>265.6</ele>
        <time>2023-09-07T08:14:37Z</time>
      </trkpt>
      <trkpt lat="44.41752" lon="1.45827">
        <ele>265.5</ele>
        <time>2023-09-07T08:14:42Z</time>
      </trkpt>
      <trkpt lat="44.41752" lon="1.45835">
        <ele>265.9</ele>
        <time>2023-09-07T08:14:47Z</time>
      </trkpt>
      <trkpt lat="44.4175" lon="1.45841">
        <ele>265.9</ele>
        <time>2023-09-07T08:14:51Z</time>
      </trkpt>
      <trkpt lat="44.41749" lon="1.45847">
        <ele>266</ele>
        <time>2023-09-07T08:14:56Z</time>
      </trkpt>
      <trkpt lat="44.41747" lon="1.45854">
        <ele>265.8</ele>
        <time>2023-09-07T08:15:01Z</time>
      </trkpt>
      <trkpt lat="44.41745" lon="1.4586">
        <ele>266.1</ele>
        <time>2023-09-07T08:15:05Z</time>
      </trkpt>
      <trkpt lat="44.41743" lon="1.45867">
        <ele>266.3</ele>
        <time>2023-09-07T08:15:10Z</time>
      </trkpt>
      <trkpt lat="44.41741" lon="1.45874">
        <ele>266.6</ele>
        <time>2023-09-07T08:15:15Z</time>
      </trkpt>
      <trkpt lat="44.41739" lon="1.45881">
        <ele>266.3</ele>
        <time>2023-09-07T08:15:20Z</time>
      </trkpt>
      <trkpt lat="44.41737" lon="1.45888">
        <ele>266.3</ele>
        <time>2023-09-07T08:15:25Z</time>
      </trkpt>
      <trkpt lat="44.41735" lon="1.45895">
        <ele>266.4</ele>
        <time>2023-09-07T08:15:30Z</time>
      </trkpt>
      <trkpt lat="44.41734" lon="1.45902">
        <ele>266.4</ele>
        <time>2023-09-07T08:15:35Z</time>
      </trkpt>
      <trkpt lat="44.41732" lon="1.45909">
        <ele>266.8</ele>
        <time>2023-09-07T08:15:40Z</time>
      </trkpt>
      <trkpt lat="44.41731" lon="1.45915">
        <ele>267.7</ele>
        <time>2023-09-07T08:15:45Z</time>
      </trkpt>
      <trkpt lat="44.4173" lon="1.45922">
        <ele>268.1</ele>
        <time>2023-09-07T08:15:50Z</time>
      </trkpt>
      <trkpt lat="44.41729" lon="1.45928">
        <ele>268</ele>
        <time>2023-09-07T08:15:55Z</time>
      </trkpt>
      <trkpt lat="44.41728" lon="1.45935">
        <ele>268.9</ele>
        <time>2023-09-07T08:16:00Z</time>
      </trkpt>
      <trkpt lat="44.41727" lon="1.45942">
        <ele>269.5</ele>
        <time>2023-09-07T08:16:05Z</time>
      </trkpt>
      <trkpt lat="44.41726" lon="1.45949">
        <ele>269.9</ele>
        <time>2023-09-07T08:16:09Z</time>
      </trkpt>
      <trkpt lat="44.41725" lon="1.45956">
        <ele>270.1</ele>
        <time>2023-09-07T08:16:14Z</time>
      </trkpt>
      <trkpt lat="44.41724" lon="1.45963">
        <ele>270.1</ele>
        <time>2023-09-07T08:16:19Z</time>
      </trkpt>
      <trkpt lat="44.41723" lon="1.4597">
        <ele>270.4</ele>
        <time>2023-09-07T08:16:24Z</time>
      </trkpt>
      <trkpt lat="44.41722" lon="1.45977">
        <ele>270.8</ele>
        <time>2023-09-07T08:16:29Z</time>
      </trkpt>
      <trkpt lat="44.41721" lon="1.45985">
        <ele>271.4</ele>
        <time>2023-09-07T08:16:34Z</time>
      </trkpt>
      <trkpt lat="44.41719" lon="1.45992">
        <ele>271.6</ele>
        <time>2023-09-07T08:16:39Z</time>
      </trkpt>
      <trkpt lat="44.41717" lon="1.45999">
        <ele>272.4</ele>
        <time>2023-09-07T08:16:44Z</time>
      </trkpt>
      <trkpt lat="44.41715" lon="1.46006">
        <ele>272.8</ele>
        <time>2023-09-07T08:16:49Z</time>
      </trkpt>
      <trkpt lat="44.41714" lon="1.46013">
        <ele>273.7</ele>
        <time>2023-09-07T08:16:53Z</time>
      </trkpt>
      <trkpt lat="44.41713" lon="1.46019">
        <ele>275.8</ele>
        <time>2023-09-07T08:16:56Z</time>
      </trkpt>
      <trkpt lat="44.41713" lon="1.46025">
        <ele>278</ele>
        <time>2023-09-07T08:16:59Z</time>
      </trkpt>
      <trkpt lat="44.41713" lon="1.46033">
        <ele>279.9</ele>
        <time>2023-09-07T08:17:02Z</time>
      </trkpt>
      <trkpt lat="44.41713" lon="1.46041">
        <ele>284.2</ele>
        <time>2023-09-07T08:17:05Z</time>
      </trkpt>
      <trkpt lat="44.41713" lon="1.46049">
        <ele>288.4</ele>
        <time>2023-09-07T08:17:08Z</time>
      </trkpt>
      <trkpt lat="44.41714" lon="1.46055">
        <ele>289.6</ele>
        <time>2023-09-07T08:17:11Z</time>
      </trkpt>
      <trkpt lat="44.41713" lon="1.46062">
        <ele>290.3</ele>
        <time>2023-09-07T08:17:16Z</time>
      </trkpt>
      <trkpt lat="44.41711" lon="1.46068">
        <ele>289.6</ele>
        <time>2023-09-07T08:17:22Z</time>
      </trkpt>
      <trkpt lat="44.41708" lon="1.46074">
        <ele>289.2</ele>
        <time>2023-09-07T08:17:28Z</time>
      </trkpt>
      <trkpt lat="44.41705" lon="1.46079">
        <ele>288.1</ele>
        <time>2023-09-07T08:17:33Z</time>
      </trkpt>
      <trkpt lat="44.41702" lon="1.46085">
        <ele>286.4</ele>
        <time>2023-09-07T08:17:39Z</time>
      </trkpt>
      <trkpt lat="44.41699" lon="1.46091">
        <ele>285.5</ele>
        <time>2023-09-07T08:17:45Z</time>
      </trkpt>
      <trkpt lat="44.41697" lon="1.46097">
        <ele>283.7</ele>
        <time>2023-09-07T08:17:51Z</time>
      </trkpt>
      <trkpt lat="44.41695" lon="1.46104">
        <ele>283.4</ele>
        <time>2023-09-07T08:17:57Z</time>
      </trkpt>
      <trkpt lat="44.41694" lon="1.4611">
        <ele>283.6</ele>
        <time>2023-09-07T08:18:02Z</time>
      </trkpt>
      <trkpt lat="44.41692" lon="1.46117">
        <ele>283</ele>
        <time>2023-09-07T08:18:07Z</time>
      </trkpt>
      <trkpt lat="44.41691" lon="1.46124">
        <ele>283.5</ele>
        <time>2023-09-07T08:18:12Z</time>
      </trkpt>
      <trkpt lat="44.4169" lon="1.4613">
        <ele>284.4</ele>
        <time>2023-09-07T08:18:16Z</time>
      </trkpt>
      <trkpt lat="44.41688" lon="1.46138">
        <ele>285.2</ele>
        <time>2023-09-07T08:18:21Z</time>
      </trkpt>
      <trkpt lat="44.41687" lon="1.46145">
        <ele>286.1</ele>
        <time>2023-09-07T08:18:25Z</time>
      </trkpt>
      <trkpt lat="44.41685" lon="1.46152">
        <ele>287.1</ele>
        <time>2023-09-07T08:18:28Z</time>
      </trkpt>
      <trkpt lat="44.41682" lon="1.46158">
        <ele>288</ele>
        <time>2023-09-07T08:18:31Z</time>
      </trkpt>
      <trkpt lat="44.4168" lon="1.46165">
        <ele>289.1</ele>
        <time>2023-09-07T08:18:34Z</time>
      </trkpt>
      <trkpt lat="44.41676" lon="1.46171">
        <ele>289.5</ele>
        <time>2023-09-07T08:18:40Z</time>
      </trkpt>
      <trkpt lat="44.41673" lon="1.46175">
        <ele>288.7</ele>
        <time>2023-09-07T08:18:46Z</time>
      </trkpt>
      <trkpt lat="44.41668" lon="1.46178">
        <ele>286.4</ele>
        <time>2023-09-07T08:18:52Z</time>
      </trkpt>
      <trkpt lat="44.41664" lon="1.46181">
        <ele>286.2</ele>
        <time>2023-09-07T08:18:57Z</time>
      </trkpt>
      <trkpt lat="44.4166" lon="1.46185">
        <ele>285.4</ele>
        <time>2023-09-07T08:19:02Z</time>
      </trkpt>
      <trkpt lat="44.41655" lon="1.46189">
        <ele>283.8</ele>
        <time>2023-09-07T08:19:07Z</time>
      </trkpt>
      <trkpt lat="44.4165" lon="1.46192">
        <ele>283.2</ele>
        <time>2023-09-07T08:19:12Z</time>
      </trkpt>
      <trkpt lat="44.41646" lon="1.46196">
        <ele>281.5</ele>
        <time>2023-09-07T08:19:17Z</time>
      </trkpt>
      <trkpt lat="44.41642" lon="1.462">
        <ele>280.4</ele>
        <time>2023-09-07T08:19:22Z</time>
      </trkpt>
      <trkpt lat="44.41638" lon="1.46205">
        <ele>278.6</ele>
        <time>2023-09-07T08:19:27Z</time>
      </trkpt>
      <trkpt lat="44.41633" lon="1.46209">
        <ele>278.2</ele>
        <time>2023-09-07T08:19:32Z</time>
      </trkpt>
      <trkpt lat="44.41629" lon="1.46211">
        <ele>277.6</ele>
        <time>2023-09-07T08:19:36Z</time>
      </trkpt>
      <trkpt lat="44.41624" lon="1.46213">
        <ele>276.4</ele>
        <time>2023-09-07T08:19:41Z</time>
      </trkpt>
      <trkpt lat="44.4162" lon="1.46217">
        <ele>277.2</ele>
        <time>2023-09-07T08:19:45Z</time>
      </trkpt>
      <trkpt lat="44.41616" lon="1.46221">
        <ele>276.9</ele>
        <time>2023-09-07T08:19:49Z</time>
      </trkpt>
      <trkpt lat="44.41612" lon="1.46226">
        <ele>274.6</ele>
        <time>2023-09-07T08:19:54Z</time>
      </trkpt>
      <trkpt lat="44.41608" lon="1.4623">
        <ele>273.9</ele>
        <time>2023-09-07T08:19:59Z</time>
      </trkpt>
      <trkpt lat="44.41604" lon="1.46233">
        <ele>274.2</ele>
        <time>2023-09-07T08:20:03Z</time>
      </trkpt>
      <trkpt lat="44.41599" lon="1.46238">
        <ele>274.5</ele>
        <time>2023-09-07T08:20:08Z</time>
      </trkpt>
      <trkpt lat="44.41594" lon="1.46241">
        <ele>275</ele>
        <time>2023-09-07T08:20:13Z</time>
      </trkpt>
      <trkpt lat="44.41591" lon="1.46245">
        <ele>275.6</ele>
        <time>2023-09-07T08:20:17Z</time>
      </trkpt>
      <trkpt lat="44.41587" lon="1.4625">
        <ele>276.4</ele>
        <time>2023-09-07T08:20:21Z</time>
      </trkpt>
      <trkpt lat="44.41584" lon="1.46256">
        <ele>276.3</ele>
        <time>2023-09-07T08:20:26Z</time>
      </trkpt>
      <trkpt lat="44.41581" lon="1.46261">
        <ele>275.6</ele>
        <time>2023-09-07T08:20:31Z</time>
      </trkpt>
      <trkpt lat="44.41579" lon="1.46268">
        <ele>274.9</ele>
        <time>2023-09-07T08:20:36Z</time>
      </trkpt>
      <trkpt lat="44.41576" lon="1.46275">
        <ele>274.8</ele>
        <time>2023-09-07T08:20:41Z</time>
      </trkpt>
      <trkpt lat="44.41573" lon="1.46281">
        <ele>274.5</ele>
        <time>2023-09-07T08:20:46Z</time>
      </trkpt>
      <trkpt lat="44.41571" lon="1.46288">
        <ele>274.5</ele>
        <time>2023-09-07T08:20:51Z</time>
      </trkpt>
      <trkpt lat="44.41568" lon="1.46294">
        <ele>274.2</ele>
        <time>2023-09-07T08:20:56Z</time>
      </trkpt>
      <trkpt lat="44.41567" lon="1.46302">
        <ele>273.6</ele>
        <time>2023-09-07T08:21:01Z</time>
      </trkpt>
      <trkpt lat="44.41568" lon="1.46308">
        <ele>273.4</ele>
        <time>2023-09-07T08:21:05Z</time>
      </trkpt>
      <trkpt lat="44.41569" lon="1.46316">
        <ele>273.3</ele>
        <time>2023-09-07T08:21:10Z</time>
      </trkpt>
      <trkpt lat="44.41569" lon="1.46322">
        <ele>273.7</ele>
        <time>2023-09-07T08:21:14Z</time>
      </trkpt>
      <trkpt lat="44.41567" lon="1.46328">
        <ele>273.1</ele>
        <time>2023-09-07T08:21:18Z</time>
      </trkpt>
      <trkpt lat="44.41563" lon="1.46334">
        <ele>272.8</ele>
        <time>2023-09-07T08:21:23Z</time>
      </trkpt>
      <trkpt lat="44.4156" lon="1.4634">
        <ele>272.4</ele>
        <time>2023-09-07T08:21:28Z</time>
      </trkpt>
      <trkpt lat="44.41558" lon="1.46346">
        <ele>272.4</ele>
        <time>2023-09-07T08:21:32Z</time>
      </trkpt>
      <trkpt lat="44.41554" lon="1.46351">
        <ele>272.1</ele>
        <time>2023-09-07T08:21:37Z</time>
      </trkpt>
      <trkpt lat="44.41551" lon="1.46356">
        <ele>271.4</ele>
        <time>2023-09-07T08:21:42Z</time>
      </trkpt>
      <trkpt lat="44.41547" lon="1.46361">
        <ele>270.4</ele>
        <time>2023-09-07T08:21:47Z</time>
      </trkpt>
      <trkpt lat="44.41544" lon="1.46366">
        <ele>270.6</ele>
        <time>2023-09-07T08:21:51Z</time>
      </trkpt>
      <trkpt lat="44.41541" lon="1.46371">
        <ele>270.6</ele>
        <time>2023-09-07T08:21:55Z</time>
      </trkpt>
      <trkpt lat="44.41537" lon="1.46376">
        <ele>270</ele>
        <time>2023-09-07T08:22:00Z</time>
      </trkpt>
      <trkpt lat="44.41534" lon="1.46382">
        <ele>269.7</ele>
        <time>2023-09-07T08:22:06Z</time>
      </trkpt>
      <trkpt lat="44.41532" lon="1.46387">
        <ele>269.9</ele>
        <time>2023-09-07T08:22:11Z</time>
      </trkpt>
      <trkpt lat="44.41528" lon="1.46393">
        <ele>269.3</ele>
        <time>2023-09-07T08:22:16Z</time>
      </trkpt>
      <trkpt lat="44.41525" lon="1.46399">
        <ele>268.8</ele>
        <time>2023-09-07T08:22:21Z</time>
      </trkpt>
      <trkpt lat="44.41523" lon="1.46405">
        <ele>268.2</ele>
        <time>2023-09-07T08:22:27Z</time>
      </trkpt>
      <trkpt lat="44.41519" lon="1.46411">
        <ele>267.7</ele>
        <time>2023-09-07T08:22:33Z</time>
      </trkpt>
      <trkpt lat="44.41516" lon="1.46417">
        <ele>267.6</ele>
        <time>2023-09-07T08:22:38Z</time>
      </trkpt>
      <trkpt lat="44.41514" lon="1.46422">
        <ele>267.5</ele>
        <time>2023-09-07T08:22:42Z</time>
      </trkpt>
      <trkpt lat="44.41511" lon="1.46427">
        <ele>267</ele>
        <time>2023-09-07T08:22:47Z</time>
      </trkpt>
      <trkpt lat="44.41508" lon="1.46433">
        <ele>266.7</ele>
        <time>2023-09-07T08:22:52Z</time>
      </trkpt>
      <trkpt lat="44.41505" lon="1.46439">
        <ele>266.3</ele>
        <time>2023-09-07T08:22:57Z</time>
      </trkpt>
      <trkpt lat="44.41502" lon="1.46445">
        <ele>265.7</ele>
        <time>2023-09-07T08:23:02Z</time>
      </trkpt>
      <trkpt lat="44.41499" lon="1.4645">
        <ele>265.5</ele>
        <time>2023-09-07T08:23:06Z</time>
      </trkpt>
      <trkpt lat="44.41496" lon="1.46455">
        <ele>265</ele>
        <time>2023-09-07T08:23:11Z</time>
      </trkpt>
      <trkpt lat="44.41493" lon="1.46461">
        <ele>265.2</ele>
        <time>2023-09-07T08:23:16Z</time>
      </trkpt>
      <trkpt lat="44.41491" lon="1.46469">
        <ele>266.5</ele>
        <time>2023-09-07T08:23:20Z</time>
      </trkpt>
      <trkpt lat="44.41489" lon="1.46475">
        <ele>266.5</ele>
        <time>2023-09-07T08:23:24Z</time>
      </trkpt>
      <trkpt lat="44.41488" lon="1.46482">
        <ele>266.8</ele>
        <time>2023-09-07T08:23:29Z</time>
      </trkpt>
      <trkpt lat="44.41486" lon="1.46488">
        <ele>267.5</ele>
        <time>2023-09-07T08:23:33Z</time>
      </trkpt>
      <trkpt lat="44.41484" lon="1.46495">
        <ele>267.8</ele>
        <time>2023-09-07T08:23:38Z</time>
      </trkpt>
      <trkpt lat="44.41481" lon="1.46501">
        <ele>267.6</ele>
        <time>2023-09-07T08:23:43Z</time>
      </trkpt>
      <trkpt lat="44.41478" lon="1.46507">
        <ele>267.7</ele>
        <time>2023-09-07T08:23:48Z</time>
      </trkpt>
      <trkpt lat="44.41475" lon="1.46511">
        <ele>267.3</ele>
        <time>2023-09-07T08:23:52Z</time>
      </trkpt>
      <trkpt lat="44.41471" lon="1.46517">
        <ele>266.8</ele>
        <time>2023-09-07T08:23:57Z</time>
      </trkpt>
      <trkpt lat="44.41467" lon="1.46522">
        <ele>266.6</ele>
        <time>2023-09-07T08:24:02Z</time>
      </trkpt>
      <trkpt lat="44.41464" lon="1.46529">
        <ele>267.5</ele>
        <time>2023-09-07T08:24:06Z</time>
      </trkpt>
      <trkpt lat="44.41461" lon="1.46534">
        <ele>268.6</ele>
        <time>2023-09-07T08:24:09Z</time>
      </trkpt>
      <trkpt lat="44.41457" lon="1.46539">
        <ele>270.9</ele>
        <time>2023-09-07T08:24:13Z</time>
      </trkpt>
      <trkpt lat="44.41454" lon="1.46545">
        <ele>270.8</ele>
        <time>2023-09-07T08:24:18Z</time>
      </trkpt>
      <trkpt lat="44.4145" lon="1.46549">
        <ele>270.5</ele>
        <time>2023-09-07T08:24:22Z</time>
      </trkpt>
      <trkpt lat="44.41446" lon="1.46553">
        <ele>270.5</ele>
        <time>2023-09-07T08:24:27Z</time>
      </trkpt>
      <trkpt lat="44.41442" lon="1.46557">
        <ele>269.8</ele>
        <time>2023-09-07T08:24:32Z</time>
      </trkpt>
      <trkpt lat="44.41438" lon="1.46562">
        <ele>269.3</ele>
        <time>2023-09-07T08:24:37Z</time>
      </trkpt>
      <trkpt lat="44.41435" lon="1.46566">
        <ele>269.3</ele>
        <time>2023-09-07T08:24:41Z</time>
      </trkpt>
      <trkpt lat="44.41432" lon="1.46571">
        <ele>270.2</ele>
        <time>2023-09-07T08:24:45Z</time>
      </trkpt>
      <trkpt lat="44.41428" lon="1.46576">
        <ele>269.1</ele>
        <time>2023-09-07T08:24:50Z</time>
      </trkpt>
      <trkpt lat="44.41424" lon="1.46582">
        <ele>268.8</ele>
        <time>2023-09-07T08:24:55Z</time>
      </trkpt>
      <trkpt lat="44.41421" lon="1.46586">
        <ele>269.2</ele>
        <time>2023-09-07T08:24:59Z</time>
      </trkpt>
      <trkpt lat="44.41417" lon="1.46591">
        <ele>269.4</ele>
        <time>2023-09-07T08:25:03Z</time>
      </trkpt>
      <trkpt lat="44.41413" lon="1.46595">
        <ele>268.6</ele>
        <time>2023-09-07T08:25:08Z</time>
      </trkpt>
      <trkpt lat="44.41409" lon="1.466">
        <ele>268.6</ele>
        <time>2023-09-07T08:25:13Z</time>
      </trkpt>
      <trkpt lat="44.41405" lon="1.46604">
        <ele>268.3</ele>
        <time>2023-09-07T08:25:18Z</time>
      </trkpt>
      <trkpt lat="44.41401" lon="1.46608">
        <ele>267.9</ele>
        <time>2023-09-07T08:25:23Z</time>
      </trkpt>
      <trkpt lat="44.41397" lon="1.46613">
        <ele>267.6</ele>
        <time>2023-09-07T08:25:28Z</time>
      </trkpt>
      <trkpt lat="44.41393" lon="1.46618">
        <ele>267.7</ele>
        <time>2023-09-07T08:25:33Z</time>
      </trkpt>
      <trkpt lat="44.4139" lon="1.46624">
        <ele>269.6</ele>
        <time>2023-09-07T08:25:37Z</time>
      </trkpt>
      <trkpt lat="44.41387" lon="1.46629">
        <ele>269.5</ele>
        <time>2023-09-07T08:25:42Z</time>
      </trkpt>
      <trkpt lat="44.41384" lon="1.46635">
        <ele>269</ele>
        <time>2023-09-07T08:25:47Z</time>
      </trkpt>
      <trkpt lat="44.4138" lon="1.4664">
        <ele>268.7</ele>
        <time>2023-09-07T08:25:52Z</time>
      </trkpt>
      <trkpt lat="44.41377" lon="1.46645">
        <ele>268.7</ele>
        <time>2023-09-07T08:25:57Z</time>
      </trkpt>
      <trkpt lat="44.41373" lon="1.46651">
        <ele>268.7</ele>
        <time>2023-09-07T08:26:02Z</time>
      </trkpt>
      <trkpt lat="44.41371" lon="1.46656">
        <ele>268.6</ele>
        <time>2023-09-07T08:26:06Z</time>
      </trkpt>
      <trkpt lat="44.41367" lon="1.46662">
        <ele>268.6</ele>
        <time>2023-09-07T08:26:10Z</time>
      </trkpt>
      <trkpt lat="44.41365" lon="1.46668">
        <ele>268.9</ele>
        <time>2023-09-07T08:26:14Z</time>
      </trkpt>
      <trkpt lat="44.41362" lon="1.46673">
        <ele>269.3</ele>
        <time>2023-09-07T08:26:18Z</time>
      </trkpt>
      <trkpt lat="44.41358" lon="1.46677">
        <ele>268.6</ele>
        <time>2023-09-07T08:26:22Z</time>
      </trkpt>
      <trkpt lat="44.41355" lon="1.46682">
        <ele>268.3</ele>
        <time>2023-09-07T08:26:26Z</time>
      </trkpt>
      <trkpt lat="44.41352" lon="1.46688">
        <ele>268.4</ele>
        <time>2023-09-07T08:26:31Z</time>
      </trkpt>
      <trkpt lat="44.41348" lon="1.46694">
        <ele>268.5</ele>
        <time>2023-09-07T08:26:36Z</time>
      </trkpt>
      <trkpt lat="44.41345" lon="1.467">
        <ele>268.9</ele>
        <time>2023-09-07T08:26:41Z</time>
      </trkpt>
      <trkpt lat="44.41341" lon="1.46706">
        <ele>268.9</ele>
        <time>2023-09-07T08:26:46Z</time>
      </trkpt>
      <trkpt lat="44.41338" lon="1.4671">
        <ele>269</ele>
        <time>2023-09-07T08:26:50Z</time>
      </trkpt>
      <trkpt lat="44.41334" lon="1.46715">
        <ele>268.8</ele>
        <time>2023-09-07T08:26:55Z</time>
      </trkpt>
      <trkpt lat="44.41328" lon="1.46713">
        <ele>275</ele>
        <time>2023-09-07T08:31:30Z</time>
      </trkpt>
      <trkpt lat="44.4133" lon="1.4672">
        <ele>275.1</ele>
        <time>2023-09-07T08:34:50Z</time>
      </trkpt>
      <trkpt lat="44.41327" lon="1.46726">
        <ele>275.8</ele>
        <time>2023-09-07T08:34:55Z</time>
      </trkpt>
      <trkpt lat="44.41324" lon="1.46731">
        <ele>277.2</ele>
        <time>2023-09-07T08:35:00Z</time>
      </trkpt>
      <trkpt lat="44.41321" lon="1.46736">
        <ele>277.3</ele>
        <time>2023-09-07T08:35:05Z</time>
      </trkpt>
      <trkpt lat="44.41319" lon="1.46742">
        <ele>277.1</ele>
        <time>2023-09-07T08:35:10Z</time>
      </trkpt>
      <trkpt lat="44.41318" lon="1.46749">
        <ele>279.2</ele>
        <time>2023-09-07T08:35:16Z</time>
      </trkpt>
      <trkpt lat="44.41317" lon="1.46756">
        <ele>279.8</ele>
        <time>2023-09-07T08:35:21Z</time>
      </trkpt>
      <trkpt lat="44.41312" lon="1.46754">
        <ele>279.8</ele>
        <time>2023-09-07T08:35:27Z</time>
      </trkpt>
      <trkpt lat="44.41307" lon="1.46752">
        <ele>277.6</ele>
        <time>2023-09-07T08:35:37Z</time>
      </trkpt>
      <trkpt lat="44.41306" lon="1.46758">
        <ele>276.8</ele>
        <time>2023-09-07T08:35:40Z</time>
      </trkpt>
      <trkpt lat="44.41304" lon="1.46765">
        <ele>276.2</ele>
        <time>2023-09-07T08:35:43Z</time>
      </trkpt>
      <trkpt lat="44.41301" lon="1.4677">
        <ele>277.2</ele>
        <time>2023-09-07T08:35:48Z</time>
      </trkpt>
      <trkpt lat="44.41298" lon="1.46776">
        <ele>277.6</ele>
        <time>2023-09-07T08:35:54Z</time>
      </trkpt>
      <trkpt lat="44.413" lon="1.46782">
        <ele>277.8</ele>
        <time>2023-09-07T08:36:00Z</time>
      </trkpt>
      <trkpt lat="44.41305" lon="1.46784">
        <ele>277.5</ele>
        <time>2023-09-07T08:36:05Z</time>
      </trkpt>
      <trkpt lat="44.4131" lon="1.46785">
        <ele>277.3</ele>
        <time>2023-09-07T08:36:10Z</time>
      </trkpt>
      <trkpt lat="44.41315" lon="1.46788">
        <ele>277.5</ele>
        <time>2023-09-07T08:36:15Z</time>
      </trkpt>
      <trkpt lat="44.41319" lon="1.46792">
        <ele>277.8</ele>
        <time>2023-09-07T08:36:19Z</time>
      </trkpt>
      <trkpt lat="44.41322" lon="1.46797">
        <ele>277.2</ele>
        <time>2023-09-07T08:36:25Z</time>
      </trkpt>
      <trkpt lat="44.41324" lon="1.46803">
        <ele>276.5</ele>
        <time>2023-09-07T08:36:31Z</time>
      </trkpt>
      <trkpt lat="44.41325" lon="1.46809">
        <ele>276.6</ele>
        <time>2023-09-07T08:36:36Z</time>
      </trkpt>
      <trkpt lat="44.41327" lon="1.46815">
        <ele>275.9</ele>
        <time>2023-09-07T08:36:42Z</time>
      </trkpt>
      <trkpt lat="44.4133" lon="1.46819">
        <ele>274.3</ele>
        <time>2023-09-07T08:37:13Z</time>
      </trkpt>
      <trkpt lat="44.41335" lon="1.46822">
        <ele>272.6</ele>
        <time>2023-09-07T08:37:20Z</time>
      </trkpt>
      <trkpt lat="44.41339" lon="1.46819">
        <ele>271.5</ele>
        <time>2023-09-07T08:37:26Z</time>
      </trkpt>
      <trkpt lat="44.41344" lon="1.46819">
        <ele>271.3</ele>
        <time>2023-09-07T08:37:31Z</time>
      </trkpt>
      <trkpt lat="44.41349" lon="1.46818">
        <ele>270.3</ele>
        <time>2023-09-07T08:37:37Z</time>
      </trkpt>
      <trkpt lat="44.41354" lon="1.46821">
        <ele>270</ele>
        <time>2023-09-07T08:37:42Z</time>
      </trkpt>
      <trkpt lat="44.41358" lon="1.46821">
        <ele>269.3</ele>
        <time>2023-09-07T08:37:47Z</time>
      </trkpt>
      <trkpt lat="44.41363" lon="1.46821">
        <ele>269.2</ele>
        <time>2023-09-07T08:37:52Z</time>
      </trkpt>
      <trkpt lat="44.41368" lon="1.46821">
        <ele>269.7</ele>
        <time>2023-09-07T08:37:58Z</time>
      </trkpt>
      <trkpt lat="44.41373" lon="1.4682">
        <ele>269.5</ele>
        <time>2023-09-07T08:38:06Z</time>
      </trkpt>
      <trkpt lat="44.41375" lon="1.46826">
        <ele>269.4</ele>
        <time>2023-09-07T08:38:13Z</time>
      </trkpt>
      <trkpt lat="44.41378" lon="1.46831">
        <ele>268.4</ele>
        <time>2023-09-07T08:38:21Z</time>
      </trkpt>
      <trkpt lat="44.41382" lon="1.46832">
        <ele>268.1</ele>
        <time>2023-09-07T08:38:28Z</time>
      </trkpt>
      <trkpt lat="44.41387" lon="1.46832">
        <ele>267.9</ele>
        <time>2023-09-07T08:38:35Z</time>
      </trkpt>
      <trkpt lat="44.41391" lon="1.46835">
        <ele>266.1</ele>
        <time>2023-09-07T08:38:44Z</time>
      </trkpt>
      <trkpt lat="44.41395" lon="1.46831">
        <ele>266.2</ele>
        <time>2023-09-07T08:38:51Z</time>
      </trkpt>
      <trkpt lat="44.41398" lon="1.46826">
        <ele>265.6</ele>
        <time>2023-09-07T08:38:58Z</time>
      </trkpt>
      <trkpt lat="44.41402" lon="1.46824">
        <ele>264.8</ele>
        <time>2023-09-07T08:39:05Z</time>
      </trkpt>
      <trkpt lat="44.41407" lon="1.46824">
        <ele>264.1</ele>
        <time>2023-09-07T08:39:13Z</time>
      </trkpt>
      <trkpt lat="44.4141" lon="1.46828">
        <ele>264.2</ele>
        <time>2023-09-07T08:39:19Z</time>
      </trkpt>
      <trkpt lat="44.41414" lon="1.46832">
        <ele>264.1</ele>
        <time>2023-09-07T08:39:25Z</time>
      </trkpt>
      <trkpt lat="44.41418" lon="1.46836">
        <ele>267</ele>
        <time>2023-09-07T08:39:47Z</time>
      </trkpt>
      <trkpt lat="44.41419" lon="1.46843">
        <ele>264.8</ele>
        <time>2023-09-07T08:39:53Z</time>
      </trkpt>
      <trkpt lat="44.41422" lon="1.46846">
        <ele>261.7</ele>
        <time>2023-09-07T08:40:01Z</time>
      </trkpt>
      <trkpt lat="44.41426" lon="1.46843">
        <ele>259.7</ele>
        <time>2023-09-07T08:40:10Z</time>
      </trkpt>
      <trkpt lat="44.41429" lon="1.46848">
        <ele>259.5</ele>
        <time>2023-09-07T08:40:17Z</time>
      </trkpt>
      <trkpt lat="44.41431" lon="1.46854">
        <ele>259</ele>
        <time>2023-09-07T08:40:23Z</time>
      </trkpt>
      <trkpt lat="44.41436" lon="1.46855">
        <ele>258.8</ele>
        <time>2023-09-07T08:40:29Z</time>
      </trkpt>
      <trkpt lat="44.4144" lon="1.46859">
        <ele>259.1</ele>
        <time>2023-09-07T08:40:35Z</time>
      </trkpt>
      <trkpt lat="44.41441" lon="1.46866">
        <ele>256</ele>
        <time>2023-09-07T08:40:49Z</time>
      </trkpt>
      <trkpt lat="44.41445" lon="1.4687">
        <ele>252.7</ele>
        <time>2023-09-07T08:41:15Z</time>
      </trkpt>
      <trkpt lat="44.41449" lon="1.46866">
        <ele>250.8</ele>
        <time>2023-09-07T08:41:31Z</time>
      </trkpt>
      <trkpt lat="44.41453" lon="1.46866">
        <ele>251.8</ele>
        <time>2023-09-07T08:41:35Z</time>
      </trkpt>
      <trkpt lat="44.41458" lon="1.46864">
        <ele>251.3</ele>
        <time>2023-09-07T08:41:41Z</time>
      </trkpt>
      <trkpt lat="44.41457" lon="1.46857">
        <ele>249.2</ele>
        <time>2023-09-07T08:41:51Z</time>
      </trkpt>
      <trkpt lat="44.41459" lon="1.46851">
        <ele>250.3</ele>
        <time>2023-09-07T08:41:58Z</time>
      </trkpt>
      <trkpt lat="44.41461" lon="1.46857">
        <ele>251.4</ele>
        <time>2023-09-07T08:42:08Z</time>
      </trkpt>
      <trkpt lat="44.41465" lon="1.46861">
        <ele>250.3</ele>
        <time>2023-09-07T08:42:31Z</time>
      </trkpt>
      <trkpt lat="44.41468" lon="1.46854">
        <ele>250</ele>
        <time>2023-09-07T08:42:37Z</time>
      </trkpt>
      <trkpt lat="44.4147" lon="1.46849">
        <ele>250.3</ele>
        <time>2023-09-07T08:42:42Z</time>
      </trkpt>
      <trkpt lat="44.4147" lon="1.46841">
        <ele>248.2</ele>
        <time>2023-09-07T08:42:48Z</time>
      </trkpt>
      <trkpt lat="44.41472" lon="1.46834">
        <ele>246.6</ele>
        <time>2023-09-07T08:42:54Z</time>
      </trkpt>
      <trkpt lat="44.41474" lon="1.46828">
        <ele>244.8</ele>
        <time>2023-09-07T08:42:59Z</time>
      </trkpt>
      <trkpt lat="44.41475" lon="1.46821">
        <ele>243.3</ele>
        <time>2023-09-07T08:43:05Z</time>
      </trkpt>
      <trkpt lat="44.41479" lon="1.4682">
        <ele>243.2</ele>
        <time>2023-09-07T08:43:09Z</time>
      </trkpt>
      <trkpt lat="44.41482" lon="1.46815">
        <ele>242.1</ele>
        <time>2023-09-07T08:43:14Z</time>
      </trkpt>
      <trkpt lat="44.41484" lon="1.46808">
        <ele>239.1</ele>
        <time>2023-09-07T08:43:19Z</time>
      </trkpt>
      <trkpt lat="44.41487" lon="1.46803">
        <ele>239.7</ele>
        <time>2023-09-07T08:43:23Z</time>
      </trkpt>
      <trkpt lat="44.41489" lon="1.46797">
        <ele>240.3</ele>
        <time>2023-09-07T08:43:27Z</time>
      </trkpt>
      <trkpt lat="44.41493" lon="1.46792">
        <ele>240.3</ele>
        <time>2023-09-07T08:43:32Z</time>
      </trkpt>
      <trkpt lat="44.41497" lon="1.46788">
        <ele>239.3</ele>
        <time>2023-09-07T08:43:37Z</time>
      </trkpt>
      <trkpt lat="44.41502" lon="1.46784">
        <ele>239.3</ele>
        <time>2023-09-07T08:43:41Z</time>
      </trkpt>
      <trkpt lat="44.41506" lon="1.4678">
        <ele>241</ele>
        <time>2023-09-07T08:43:45Z</time>
      </trkpt>
      <trkpt lat="44.4151" lon="1.46776">
        <ele>241.9</ele>
        <time>2023-09-07T08:43:49Z</time>
      </trkpt>
      <trkpt lat="44.41514" lon="1.46773">
        <ele>241.7</ele>
        <time>2023-09-07T08:43:53Z</time>
      </trkpt>
      <trkpt lat="44.41519" lon="1.4677">
        <ele>242.7</ele>
        <time>2023-09-07T08:43:58Z</time>
      </trkpt>
      <trkpt lat="44.41524" lon="1.46769">
        <ele>243</ele>
        <time>2023-09-07T08:44:02Z</time>
      </trkpt>
      <trkpt lat="44.41528" lon="1.46766">
        <ele>243.4</ele>
        <time>2023-09-07T08:44:06Z</time>
      </trkpt>
      <trkpt lat="44.41533" lon="1.46765">
        <ele>244.4</ele>
        <time>2023-09-07T08:44:11Z</time>
      </trkpt>
      <trkpt lat="44.41538" lon="1.46765">
        <ele>243.3</ele>
        <time>2023-09-07T08:44:15Z</time>
      </trkpt>
      <trkpt lat="44.41542" lon="1.46763">
        <ele>243.1</ele>
        <time>2023-09-07T08:44:19Z</time>
      </trkpt>
      <trkpt lat="44.41548" lon="1.46763">
        <ele>242.5</ele>
        <time>2023-09-07T08:44:24Z</time>
      </trkpt>
      <trkpt lat="44.41553" lon="1.46762">
        <ele>241.7</ele>
        <time>2023-09-07T08:44:29Z</time>
      </trkpt>
      <trkpt lat="44.41557" lon="1.4676">
        <ele>241.4</ele>
        <time>2023-09-07T08:44:33Z</time>
      </trkpt>
      <trkpt lat="44.41562" lon="1.46758">
        <ele>240.9</ele>
        <time>2023-09-07T08:44:37Z</time>
      </trkpt>
      <trkpt lat="44.41566" lon="1.46756">
        <ele>239.4</ele>
        <time>2023-09-07T08:44:41Z</time>
      </trkpt>
      <trkpt lat="44.41571" lon="1.46754">
        <ele>238.4</ele>
        <time>2023-09-07T08:44:45Z</time>
      </trkpt>
      <trkpt lat="44.41575" lon="1.46751">
        <ele>238.4</ele>
        <time>2023-09-07T08:44:49Z</time>
      </trkpt>
      <trkpt lat="44.41579" lon="1.46748">
        <ele>239</ele>
        <time>2023-09-07T08:44:53Z</time>
      </trkpt>
      <trkpt lat="44.41583" lon="1.46745">
        <ele>239.1</ele>
        <time>2023-09-07T08:44:57Z</time>
      </trkpt>
      <trkpt lat="44.41587" lon="1.46741">
        <ele>239</ele>
        <time>2023-09-07T08:45:02Z</time>
      </trkpt>
      <trkpt lat="44.41592" lon="1.46737">
        <ele>238.3</ele>
        <time>2023-09-07T08:45:07Z</time>
      </trkpt>
      <trkpt lat="44.41596" lon="1.46733">
        <ele>236.8</ele>
        <time>2023-09-07T08:45:12Z</time>
      </trkpt>
      <trkpt lat="44.416" lon="1.46729">
        <ele>235.5</ele>
        <time>2023-09-07T08:45:16Z</time>
      </trkpt>
      <trkpt lat="44.41604" lon="1.46726">
        <ele>234.2</ele>
        <time>2023-09-07T08:45:20Z</time>
      </trkpt>
      <trkpt lat="44.41609" lon="1.46722">
        <ele>233.9</ele>
        <time>2023-09-07T08:45:25Z</time>
      </trkpt>
      <trkpt lat="44.41613" lon="1.46718">
        <ele>234.9</ele>
        <time>2023-09-07T08:45:30Z</time>
      </trkpt>
      <trkpt lat="44.41616" lon="1.46712">
        <ele>236.2</ele>
        <time>2023-09-07T08:45:38Z</time>
      </trkpt>
      <trkpt lat="44.4162" lon="1.46708">
        <ele>236.5</ele>
        <time>2023-09-07T08:45:43Z</time>
      </trkpt>
      <trkpt lat="44.41625" lon="1.46704">
        <ele>235.4</ele>
        <time>2023-09-07T08:45:47Z</time>
      </trkpt>
      <trkpt lat="44.4163" lon="1.467">
        <ele>235</ele>
        <time>2023-09-07T08:45:51Z</time>
      </trkpt>
      <trkpt lat="44.41635" lon="1.46697">
        <ele>233</ele>
        <time>2023-09-07T08:45:56Z</time>
      </trkpt>
      <trkpt lat="44.4164" lon="1.46693">
        <ele>232</ele>
        <time>2023-09-07T08:46:00Z</time>
      </trkpt>
      <trkpt lat="44.41643" lon="1.46689">
        <ele>230.7</ele>
        <time>2023-09-07T08:46:04Z</time>
      </trkpt>
      <trkpt lat="44.41647" lon="1.46683">
        <ele>229.4</ele>
        <time>2023-09-07T08:46:09Z</time>
      </trkpt>
      <trkpt lat="44.41651" lon="1.4668">
        <ele>230.5</ele>
        <time>2023-09-07T08:46:13Z</time>
      </trkpt>
      <trkpt lat="44.41654" lon="1.46675">
        <ele>230.6</ele>
        <time>2023-09-07T08:46:17Z</time>
      </trkpt>
      <trkpt lat="44.41658" lon="1.4667">
        <ele>231.1</ele>
        <time>2023-09-07T08:46:21Z</time>
      </trkpt>
      <trkpt lat="44.41662" lon="1.46665">
        <ele>232</ele>
        <time>2023-09-07T08:46:25Z</time>
      </trkpt>
      <trkpt lat="44.41666" lon="1.4666">
        <ele>231.8</ele>
        <time>2023-09-07T08:46:29Z</time>
      </trkpt>
      <trkpt lat="44.4167" lon="1.46657">
        <ele>230.5</ele>
        <time>2023-09-07T08:46:33Z</time>
      </trkpt>
      <trkpt lat="44.41676" lon="1.46655">
        <ele>231.9</ele>
        <time>2023-09-07T08:46:37Z</time>
      </trkpt>
      <trkpt lat="44.4168" lon="1.46651">
        <ele>233.7</ele>
        <time>2023-09-07T08:46:41Z</time>
      </trkpt>
      <trkpt lat="44.41684" lon="1.46649">
        <ele>234.8</ele>
        <time>2023-09-07T08:46:45Z</time>
      </trkpt>
      <trkpt lat="44.41689" lon="1.46647">
        <ele>234.5</ele>
        <time>2023-09-07T08:46:49Z</time>
      </trkpt>
      <trkpt lat="44.41693" lon="1.46644">
        <ele>232.3</ele>
        <time>2023-09-07T08:46:53Z</time>
      </trkpt>
      <trkpt lat="44.41697" lon="1.46642">
        <ele>230.7</ele>
        <time>2023-09-07T08:46:57Z</time>
      </trkpt>
      <trkpt lat="44.41701" lon="1.4664">
        <ele>229.4</ele>
        <time>2023-09-07T08:47:01Z</time>
      </trkpt>
      <trkpt lat="44.41706" lon="1.46637">
        <ele>227.9</ele>
        <time>2023-09-07T08:47:06Z</time>
      </trkpt>
      <trkpt lat="44.41711" lon="1.46634">
        <ele>228.2</ele>
        <time>2023-09-07T08:47:10Z</time>
      </trkpt>
      <trkpt lat="44.41716" lon="1.46631">
        <ele>230</ele>
        <time>2023-09-07T08:47:14Z</time>
      </trkpt>
      <trkpt lat="44.4172" lon="1.46628">
        <ele>229.3</ele>
        <time>2023-09-07T08:47:18Z</time>
      </trkpt>
      <trkpt lat="44.41724" lon="1.46626">
        <ele>228.4</ele>
        <time>2023-09-07T08:47:22Z</time>
      </trkpt>
      <trkpt lat="44.41729" lon="1.46623">
        <ele>228.1</ele>
        <time>2023-09-07T08:47:26Z</time>
      </trkpt>
      <trkpt lat="44.41733" lon="1.4662">
        <ele>229</ele>
        <time>2023-09-07T08:47:30Z</time>
      </trkpt>
      <trkpt lat="44.41738" lon="1.46618">
        <ele>229.1</ele>
        <time>2023-09-07T08:47:34Z</time>
      </trkpt>
      <trkpt lat="44.41742" lon="1.46615">
        <ele>228.7</ele>
        <time>2023-09-07T08:47:38Z</time>
      </trkpt>
      <trkpt lat="44.41746" lon="1.46611">
        <ele>228.8</ele>
        <time>2023-09-07T08:47:42Z</time>
      </trkpt>
      <trkpt lat="44.41751" lon="1.4661">
        <ele>229.9</ele>
        <time>2023-09-07T08:47:47Z</time>
      </trkpt>
      <trkpt lat="44.41756" lon="1.46607">
        <ele>229.1</ele>
        <time>2023-09-07T08:47:52Z</time>
      </trkpt>
      <trkpt lat="44.4176" lon="1.46603">
        <ele>227.6</ele>
        <time>2023-09-07T08:47:56Z</time>
      </trkpt>
      <trkpt lat="44.41764" lon="1.466">
        <ele>227.3</ele>
        <time>2023-09-07T08:48:00Z</time>
      </trkpt>
      <trkpt lat="44.41767" lon="1.46596">
        <ele>225.3</ele>
        <time>2023-09-07T08:48:04Z</time>
      </trkpt>
      <trkpt lat="44.4177" lon="1.46591">
        <ele>226.1</ele>
        <time>2023-09-07T08:48:08Z</time>
      </trkpt>
      <trkpt lat="44.41774" lon="1.46586">
        <ele>224.5</ele>
        <time>2023-09-07T08:48:12Z</time>
      </trkpt>
      <trkpt lat="44.41776" lon="1.4658">
        <ele>223.2</ele>
        <time>2023-09-07T08:48:16Z</time>
      </trkpt>
      <trkpt lat="44.41778" lon="1.46574">
        <ele>222.6</ele>
        <time>2023-09-07T08:48:20Z</time>
      </trkpt>
      <trkpt lat="44.4178" lon="1.46567">
        <ele>222.8</ele>
        <time>2023-09-07T08:48:24Z</time>
      </trkpt>
      <trkpt lat="44.41781" lon="1.4656">
        <ele>224</ele>
        <time>2023-09-07T08:48:28Z</time>
      </trkpt>
      <trkpt lat="44.41781" lon="1.46553">
        <ele>223.2</ele>
        <time>2023-09-07T08:48:32Z</time>
      </trkpt>
      <trkpt lat="44.41783" lon="1.46547">
        <ele>221.9</ele>
        <time>2023-09-07T08:48:36Z</time>
      </trkpt>
      <trkpt lat="44.41785" lon="1.46541">
        <ele>222.5</ele>
        <time>2023-09-07T08:48:40Z</time>
      </trkpt>
      <trkpt lat="44.41787" lon="1.46535">
        <ele>222</ele>
        <time>2023-09-07T08:48:44Z</time>
      </trkpt>
      <trkpt lat="44.41789" lon="1.46529">
        <ele>220.4</ele>
        <time>2023-09-07T08:48:48Z</time>
      </trkpt>
      <trkpt lat="44.41792" lon="1.46523">
        <ele>219.8</ele>
        <time>2023-09-07T08:48:52Z</time>
      </trkpt>
      <trkpt lat="44.41794" lon="1.46517">
        <ele>220.5</ele>
        <time>2023-09-07T08:48:56Z</time>
      </trkpt>
      <trkpt lat="44.41797" lon="1.46512">
        <ele>220.5</ele>
        <time>2023-09-07T08:49:00Z</time>
      </trkpt>
      <trkpt lat="44.41799" lon="1.46506">
        <ele>220.6</ele>
        <time>2023-09-07T08:49:04Z</time>
      </trkpt>
      <trkpt lat="44.41802" lon="1.465">
        <ele>220.8</ele>
        <time>2023-09-07T08:49:08Z</time>
      </trkpt>
      <trkpt lat="44.41805" lon="1.46494">
        <ele>220.6</ele>
        <time>2023-09-07T08:49:12Z</time>
      </trkpt>
      <trkpt lat="44.41808" lon="1.46489">
        <ele>219</ele>
        <time>2023-09-07T08:49:16Z</time>
      </trkpt>
      <trkpt lat="44.41811" lon="1.46485">
        <ele>217.8</ele>
        <time>2023-09-07T08:49:20Z</time>
      </trkpt>
      <trkpt lat="44.41815" lon="1.4648">
        <ele>218.6</ele>
        <time>2023-09-07T08:49:24Z</time>
      </trkpt>
      <trkpt lat="44.41818" lon="1.46475">
        <ele>218.5</ele>
        <time>2023-09-07T08:49:28Z</time>
      </trkpt>
      <trkpt lat="44.41821" lon="1.46468">
        <ele>218.4</ele>
        <time>2023-09-07T08:49:33Z</time>
      </trkpt>
      <trkpt lat="44.41824" lon="1.46462">
        <ele>220.9</ele>
        <time>2023-09-07T08:49:37Z</time>
      </trkpt>
      <trkpt lat="44.41827" lon="1.46457">
        <ele>220.6</ele>
        <time>2023-09-07T08:49:41Z</time>
      </trkpt>
      <trkpt lat="44.4183" lon="1.46452">
        <ele>219.8</ele>
        <time>2023-09-07T08:49:45Z</time>
      </trkpt>
      <trkpt lat="44.41832" lon="1.46446">
        <ele>219.9</ele>
        <time>2023-09-07T08:49:49Z</time>
      </trkpt>
      <trkpt lat="44.41835" lon="1.46441">
        <ele>220.3</ele>
        <time>2023-09-07T08:49:53Z</time>
      </trkpt>
      <trkpt lat="44.41839" lon="1.46437">
        <ele>220.5</ele>
        <time>2023-09-07T08:49:57Z</time>
      </trkpt>
      <trkpt lat="44.41843" lon="1.46433">
        <ele>220.2</ele>
        <time>2023-09-07T08:50:01Z</time>
      </trkpt>
      <trkpt lat="44.41848" lon="1.46431">
        <ele>219.1</ele>
        <time>2023-09-07T08:50:05Z</time>
      </trkpt>
      <trkpt lat="44.41852" lon="1.46428">
        <ele>218.8</ele>
        <time>2023-09-07T08:50:09Z</time>
      </trkpt>
      <trkpt lat="44.41856" lon="1.46424">
        <ele>217.5</ele>
        <time>2023-09-07T08:50:13Z</time>
      </trkpt>
      <trkpt lat="44.4186" lon="1.4642">
        <ele>218.6</ele>
        <time>2023-09-07T08:50:17Z</time>
      </trkpt>
      <trkpt lat="44.41864" lon="1.46417">
        <ele>218.4</ele>
        <time>2023-09-07T08:50:21Z</time>
      </trkpt>
      <trkpt lat="44.41867" lon="1.46412">
        <ele>218</ele>
        <time>2023-09-07T08:50:25Z</time>
      </trkpt>
      <trkpt lat="44.4187" lon="1.46406">
        <ele>215.1</ele>
        <time>2023-09-07T08:50:29Z</time>
      </trkpt>
      <trkpt lat="44.41873" lon="1.46402">
        <ele>214</ele>
        <time>2023-09-07T08:50:33Z</time>
      </trkpt>
      <trkpt lat="44.41876" lon="1.46397">
        <ele>213.8</ele>
        <time>2023-09-07T08:50:37Z</time>
      </trkpt>
      <trkpt lat="44.4188" lon="1.46392">
        <ele>212.7</ele>
        <time>2023-09-07T08:50:41Z</time>
      </trkpt>
      <trkpt lat="44.41883" lon="1.46388">
        <ele>211.5</ele>
        <time>2023-09-07T08:50:45Z</time>
      </trkpt>
      <trkpt lat="44.41886" lon="1.46384">
        <ele>212.6</ele>
        <time>2023-09-07T08:50:49Z</time>
      </trkpt>
      <trkpt lat="44.4189" lon="1.46379">
        <ele>212.5</ele>
        <time>2023-09-07T08:50:53Z</time>
      </trkpt>
      <trkpt lat="44.41893" lon="1.46374">
        <ele>212.3</ele>
        <time>2023-09-07T08:50:57Z</time>
      </trkpt>
      <trkpt lat="44.41897" lon="1.4637">
        <ele>212.3</ele>
        <time>2023-09-07T08:51:01Z</time>
      </trkpt>
      <trkpt lat="44.419" lon="1.46365">
        <ele>211.4</ele>
        <time>2023-09-07T08:51:05Z</time>
      </trkpt>
      <trkpt lat="44.41904" lon="1.46361">
        <ele>211.4</ele>
        <time>2023-09-07T08:51:09Z</time>
      </trkpt>
      <trkpt lat="44.41908" lon="1.46358">
        <ele>211</ele>
        <time>2023-09-07T08:51:13Z</time>
      </trkpt>
      <trkpt lat="44.41912" lon="1.46353">
        <ele>208.9</ele>
        <time>2023-09-07T08:51:17Z</time>
      </trkpt>
      <trkpt lat="44.41916" lon="1.46349">
        <ele>208.6</ele>
        <time>2023-09-07T08:51:21Z</time>
      </trkpt>
      <trkpt lat="44.4192" lon="1.46345">
        <ele>209.4</ele>
        <time>2023-09-07T08:51:25Z</time>
      </trkpt>
      <trkpt lat="44.41923" lon="1.4634">
        <ele>211.2</ele>
        <time>2023-09-07T08:51:29Z</time>
      </trkpt>
      <trkpt lat="44.41927" lon="1.46334">
        <ele>212.3</ele>
        <time>2023-09-07T08:51:33Z</time>
      </trkpt>
      <trkpt lat="44.41931" lon="1.4633">
        <ele>212.7</ele>
        <time>2023-09-07T08:51:37Z</time>
      </trkpt>
      <trkpt lat="44.41935" lon="1.46326">
        <ele>211.9</ele>
        <time>2023-09-07T08:51:41Z</time>
      </trkpt>
      <trkpt lat="44.4194" lon="1.46322">
        <ele>210.5</ele>
        <time>2023-09-07T08:51:45Z</time>
      </trkpt>
      <trkpt lat="44.41944" lon="1.46319">
        <ele>209.1</ele>
        <time>2023-09-07T08:51:49Z</time>
      </trkpt>
      <trkpt lat="44.41948" lon="1.46315">
        <ele>209.2</ele>
        <time>2023-09-07T08:51:54Z</time>
      </trkpt>
      <trkpt lat="44.41953" lon="1.46312">
        <ele>209.2</ele>
        <time>2023-09-07T08:51:58Z</time>
      </trkpt>
      <trkpt lat="44.41957" lon="1.4631">
        <ele>208.6</ele>
        <time>2023-09-07T08:52:02Z</time>
      </trkpt>
      <trkpt lat="44.41962" lon="1.46308">
        <ele>207</ele>
        <time>2023-09-07T08:52:06Z</time>
      </trkpt>
      <trkpt lat="44.41967" lon="1.46308">
        <ele>208.2</ele>
        <time>2023-09-07T08:52:10Z</time>
      </trkpt>
      <trkpt lat="44.41972" lon="1.46306">
        <ele>209</ele>
        <time>2023-09-07T08:52:14Z</time>
      </trkpt>
      <trkpt lat="44.41977" lon="1.46305">
        <ele>212.1</ele>
        <time>2023-09-07T08:52:18Z</time>
      </trkpt>
      <trkpt lat="44.41982" lon="1.46304">
        <ele>212.3</ele>
        <time>2023-09-07T08:52:22Z</time>
      </trkpt>
      <trkpt lat="44.41987" lon="1.46303">
        <ele>212.7</ele>
        <time>2023-09-07T08:52:26Z</time>
      </trkpt>
      <trkpt lat="44.41992" lon="1.46301">
        <ele>214.3</ele>
        <time>2023-09-07T08:52:30Z</time>
      </trkpt>
      <trkpt lat="44.41997" lon="1.463">
        <ele>214.9</ele>
        <time>2023-09-07T08:52:34Z</time>
      </trkpt>
      <trkpt lat="44.42002" lon="1.46299">
        <ele>214.8</ele>
        <time>2023-09-07T08:52:38Z</time>
      </trkpt>
      <trkpt lat="44.42007" lon="1.46299">
        <ele>216.3</ele>
        <time>2023-09-07T08:52:43Z</time>
      </trkpt>
      <trkpt lat="44.42012" lon="1.46301">
        <ele>216.3</ele>
        <time>2023-09-07T08:52:47Z</time>
      </trkpt>
      <trkpt lat="44.42017" lon="1.46302">
        <ele>215.9</ele>
        <time>2023-09-07T08:52:51Z</time>
      </trkpt>
      <trkpt lat="44.42022" lon="1.46305">
        <ele>213.6</ele>
        <time>2023-09-07T08:52:55Z</time>
      </trkpt>
      <trkpt lat="44.42027" lon="1.46307">
        <ele>214.7</ele>
        <time>2023-09-07T08:52:59Z</time>
      </trkpt>
      <trkpt lat="44.42032" lon="1.46309">
        <ele>213.6</ele>
        <time>2023-09-07T08:53:03Z</time>
      </trkpt>
      <trkpt lat="44.42037" lon="1.46312">
        <ele>213</ele>
        <time>2023-09-07T08:53:08Z</time>
      </trkpt>
      <trkpt lat="44.42041" lon="1.46314">
        <ele>212.7</ele>
        <time>2023-09-07T08:53:12Z</time>
      </trkpt>
      <trkpt lat="44.42046" lon="1.46317">
        <ele>213</ele>
        <time>2023-09-07T08:53:16Z</time>
      </trkpt>
      <trkpt lat="44.4205" lon="1.46319">
        <ele>213.4</ele>
        <time>2023-09-07T08:53:20Z</time>
      </trkpt>
      <trkpt lat="44.42055" lon="1.46321">
        <ele>214</ele>
        <time>2023-09-07T08:53:24Z</time>
      </trkpt>
      <trkpt lat="44.4206" lon="1.46323">
        <ele>213.8</ele>
        <time>2023-09-07T08:53:28Z</time>
      </trkpt>
      <trkpt lat="44.42065" lon="1.46326">
        <ele>215.6</ele>
        <time>2023-09-07T08:53:33Z</time>
      </trkpt>
      <trkpt lat="44.42069" lon="1.46329">
        <ele>215.2</ele>
        <time>2023-09-07T08:53:37Z</time>
      </trkpt>
      <trkpt lat="44.42074" lon="1.46331">
        <ele>215.2</ele>
        <time>2023-09-07T08:53:41Z</time>
      </trkpt>
      <trkpt lat="44.42079" lon="1.46333">
        <ele>216</ele>
        <time>2023-09-07T08:53:45Z</time>
      </trkpt>
      <trkpt lat="44.42084" lon="1.46335">
        <ele>216.9</ele>
        <time>2023-09-07T08:53:49Z</time>
      </trkpt>
      <trkpt lat="44.42089" lon="1.46337">
        <ele>216.9</ele>
        <time>2023-09-07T08:53:53Z</time>
      </trkpt>
      <trkpt lat="44.42093" lon="1.46339">
        <ele>216.1</ele>
        <time>2023-09-07T08:53:57Z</time>
      </trkpt>
      <trkpt lat="44.42098" lon="1.4634">
        <ele>216.3</ele>
        <time>2023-09-07T08:54:01Z</time>
      </trkpt>
      <trkpt lat="44.42103" lon="1.46341">
        <ele>216</ele>
        <time>2023-09-07T08:54:05Z</time>
      </trkpt>
      <trkpt lat="44.42108" lon="1.46342">
        <ele>214.9</ele>
        <time>2023-09-07T08:54:09Z</time>
      </trkpt>
      <trkpt lat="44.42112" lon="1.46343">
        <ele>214.1</ele>
        <time>2023-09-07T08:54:13Z</time>
      </trkpt>
      <trkpt lat="44.42117" lon="1.46344">
        <ele>214.2</ele>
        <time>2023-09-07T08:54:17Z</time>
      </trkpt>
      <trkpt lat="44.42122" lon="1.46343">
        <ele>214.8</ele>
        <time>2023-09-07T08:54:21Z</time>
      </trkpt>
      <trkpt lat="44.42126" lon="1.46344">
        <ele>215.7</ele>
        <time>2023-09-07T08:54:25Z</time>
      </trkpt>
      <trkpt lat="44.42131" lon="1.46345">
        <ele>214.4</ele>
        <time>2023-09-07T08:54:29Z</time>
      </trkpt>
      <trkpt lat="44.42136" lon="1.46345">
        <ele>212.6</ele>
        <time>2023-09-07T08:54:33Z</time>
      </trkpt>
      <trkpt lat="44.42141" lon="1.46346">
        <ele>213.3</ele>
        <time>2023-09-07T08:54:37Z</time>
      </trkpt>
      <trkpt lat="44.42146" lon="1.46347">
        <ele>212.8</ele>
        <time>2023-09-07T08:54:42Z</time>
      </trkpt>
      <trkpt lat="44.42152" lon="1.46348">
        <ele>210.9</ele>
        <time>2023-09-07T08:54:47Z</time>
      </trkpt>
      <trkpt lat="44.42156" lon="1.46349">
        <ele>209.6</ele>
        <time>2023-09-07T08:54:51Z</time>
      </trkpt>
      <trkpt lat="44.42161" lon="1.4635">
        <ele>209.4</ele>
        <time>2023-09-07T08:54:55Z</time>
      </trkpt>
      <trkpt lat="44.42166" lon="1.4635">
        <ele>209.6</ele>
        <time>2023-09-07T08:54:59Z</time>
      </trkpt>
      <trkpt lat="44.42171" lon="1.46351">
        <ele>209.5</ele>
        <time>2023-09-07T08:55:03Z</time>
      </trkpt>
      <trkpt lat="44.42176" lon="1.46352">
        <ele>208.2</ele>
        <time>2023-09-07T08:55:07Z</time>
      </trkpt>
      <trkpt lat="44.42181" lon="1.46353">
        <ele>208.1</ele>
        <time>2023-09-07T08:55:11Z</time>
      </trkpt>
      <trkpt lat="44.42186" lon="1.46355">
        <ele>207.2</ele>
        <time>2023-09-07T08:55:15Z</time>
      </trkpt>
      <trkpt lat="44.4219" lon="1.46357">
        <ele>205.7</ele>
        <time>2023-09-07T08:55:19Z</time>
      </trkpt>
      <trkpt lat="44.42195" lon="1.46357">
        <ele>206.6</ele>
        <time>2023-09-07T08:55:23Z</time>
      </trkpt>
      <trkpt lat="44.422" lon="1.46358">
        <ele>206</ele>
        <time>2023-09-07T08:55:27Z</time>
      </trkpt>
      <trkpt lat="44.42205" lon="1.46361">
        <ele>204.9</ele>
        <time>2023-09-07T08:55:31Z</time>
      </trkpt>
      <trkpt lat="44.4221" lon="1.46362">
        <ele>204.6</ele>
        <time>2023-09-07T08:55:35Z</time>
      </trkpt>
      <trkpt lat="44.42214" lon="1.46363">
        <ele>204.6</ele>
        <time>2023-09-07T08:55:39Z</time>
      </trkpt>
      <trkpt lat="44.42219" lon="1.46363">
        <ele>206.1</ele>
        <time>2023-09-07T08:55:43Z</time>
      </trkpt>
      <trkpt lat="44.42224" lon="1.46363">
        <ele>206.1</ele>
        <time>2023-09-07T08:55:47Z</time>
      </trkpt>
      <trkpt lat="44.42229" lon="1.46364">
        <ele>205.6</ele>
        <time>2023-09-07T08:55:51Z</time>
      </trkpt>
      <trkpt lat="44.42234" lon="1.46364">
        <ele>203.9</ele>
        <time>2023-09-07T08:55:55Z</time>
      </trkpt>
      <trkpt lat="44.42239" lon="1.46362">
        <ele>203.6</ele>
        <time>2023-09-07T08:55:59Z</time>
      </trkpt>
      <trkpt lat="44.42243" lon="1.46363">
        <ele>201.6</ele>
        <time>2023-09-07T08:56:03Z</time>
      </trkpt>
      <trkpt lat="44.42248" lon="1.46363">
        <ele>201</ele>
        <time>2023-09-07T08:56:07Z</time>
      </trkpt>
      <trkpt lat="44.42252" lon="1.46361">
        <ele>200.9</ele>
        <time>2023-09-07T08:56:11Z</time>
      </trkpt>
      <trkpt lat="44.42257" lon="1.4636">
        <ele>202.2</ele>
        <time>2023-09-07T08:56:15Z</time>
      </trkpt>
      <trkpt lat="44.42262" lon="1.46358">
        <ele>203</ele>
        <time>2023-09-07T08:56:19Z</time>
      </trkpt>
      <trkpt lat="44.42266" lon="1.46358">
        <ele>202.2</ele>
        <time>2023-09-07T08:56:23Z</time>
      </trkpt>
      <trkpt lat="44.42271" lon="1.46356">
        <ele>202.3</ele>
        <time>2023-09-07T08:56:27Z</time>
      </trkpt>
      <trkpt lat="44.42275" lon="1.46354">
        <ele>202.1</ele>
        <time>2023-09-07T08:56:31Z</time>
      </trkpt>
      <trkpt lat="44.42281" lon="1.46353">
        <ele>200</ele>
        <time>2023-09-07T08:56:36Z</time>
      </trkpt>
      <trkpt lat="44.42286" lon="1.46352">
        <ele>198.9</ele>
        <time>2023-09-07T08:56:41Z</time>
      </trkpt>
      <trkpt lat="44.42291" lon="1.4635">
        <ele>200</ele>
        <time>2023-09-07T08:56:45Z</time>
      </trkpt>
      <trkpt lat="44.42295" lon="1.46347">
        <ele>199.9</ele>
        <time>2023-09-07T08:56:49Z</time>
      </trkpt>
      <trkpt lat="44.423" lon="1.46344">
        <ele>199.2</ele>
        <time>2023-09-07T08:56:53Z</time>
      </trkpt>
      <trkpt lat="44.42304" lon="1.46342">
        <ele>199.2</ele>
        <time>2023-09-07T08:56:57Z</time>
      </trkpt>
      <trkpt lat="44.42309" lon="1.46342">
        <ele>200.3</ele>
        <time>2023-09-07T08:57:01Z</time>
      </trkpt>
      <trkpt lat="44.42314" lon="1.46338">
        <ele>202</ele>
        <time>2023-09-07T08:57:05Z</time>
      </trkpt>
      <trkpt lat="44.42319" lon="1.46336">
        <ele>200.6</ele>
        <time>2023-09-07T08:57:09Z</time>
      </trkpt>
      <trkpt lat="44.42324" lon="1.46334">
        <ele>200.2</ele>
        <time>2023-09-07T08:57:13Z</time>
      </trkpt>
      <trkpt lat="44.42329" lon="1.46331">
        <ele>200.3</ele>
        <time>2023-09-07T08:57:18Z</time>
      </trkpt>
      <trkpt lat="44.42333" lon="1.46329">
        <ele>199.8</ele>
        <time>2023-09-07T08:57:22Z</time>
      </trkpt>
      <trkpt lat="44.42338" lon="1.46329">
        <ele>198.8</ele>
        <time>2023-09-07T08:57:26Z</time>
      </trkpt>
      <trkpt lat="44.42344" lon="1.46329">
        <ele>196.9</ele>
        <time>2023-09-07T08:57:30Z</time>
      </trkpt>
      <trkpt lat="44.42349" lon="1.46329">
        <ele>196.1</ele>
        <time>2023-09-07T08:57:34Z</time>
      </trkpt>
      <trkpt lat="44.42353" lon="1.46328">
        <ele>196.1</ele>
        <time>2023-09-07T08:57:38Z</time>
      </trkpt>
      <trkpt lat="44.42359" lon="1.46328">
        <ele>195.6</ele>
        <time>2023-09-07T08:57:42Z</time>
      </trkpt>
      <trkpt lat="44.42363" lon="1.46327">
        <ele>195.6</ele>
        <time>2023-09-07T08:57:46Z</time>
      </trkpt>
      <trkpt lat="44.42368" lon="1.46326">
        <ele>195.4</ele>
        <time>2023-09-07T08:57:50Z</time>
      </trkpt>
      <trkpt lat="44.42373" lon="1.46326">
        <ele>194.6</ele>
        <time>2023-09-07T08:57:54Z</time>
      </trkpt>
      <trkpt lat="44.42378" lon="1.46327">
        <ele>195.8</ele>
        <time>2023-09-07T08:57:58Z</time>
      </trkpt>
      <trkpt lat="44.42383" lon="1.46329">
        <ele>195.3</ele>
        <time>2023-09-07T08:58:02Z</time>
      </trkpt>
      <trkpt lat="44.42388" lon="1.4633">
        <ele>195.4</ele>
        <time>2023-09-07T08:58:06Z</time>
      </trkpt>
      <trkpt lat="44.42392" lon="1.46332">
        <ele>194.6</ele>
        <time>2023-09-07T08:58:10Z</time>
      </trkpt>
      <trkpt lat="44.42397" lon="1.46335">
        <ele>193.5</ele>
        <time>2023-09-07T08:58:14Z</time>
      </trkpt>
      <trkpt lat="44.42401" lon="1.46337">
        <ele>193.7</ele>
        <time>2023-09-07T08:58:18Z</time>
      </trkpt>
      <trkpt lat="44.42406" lon="1.46338">
        <ele>193.6</ele>
        <time>2023-09-07T08:58:22Z</time>
      </trkpt>
      <trkpt lat="44.42411" lon="1.46339">
        <ele>193.4</ele>
        <time>2023-09-07T08:58:26Z</time>
      </trkpt>
      <trkpt lat="44.42416" lon="1.4634">
        <ele>194.1</ele>
        <time>2023-09-07T08:58:30Z</time>
      </trkpt>
      <trkpt lat="44.4242" lon="1.46343">
        <ele>193.9</ele>
        <time>2023-09-07T08:58:34Z</time>
      </trkpt>
      <trkpt lat="44.42425" lon="1.46345">
        <ele>193.4</ele>
        <time>2023-09-07T08:58:38Z</time>
      </trkpt>
      <trkpt lat="44.42429" lon="1.46348">
        <ele>194</ele>
        <time>2023-09-07T08:58:42Z</time>
      </trkpt>
      <trkpt lat="44.42434" lon="1.46351">
        <ele>193.2</ele>
        <time>2023-09-07T08:58:46Z</time>
      </trkpt>
      <trkpt lat="44.42438" lon="1.46353">
        <ele>193.1</ele>
        <time>2023-09-07T08:58:50Z</time>
      </trkpt>
      <trkpt lat="44.42442" lon="1.46356">
        <ele>191.8</ele>
        <time>2023-09-07T08:58:54Z</time>
      </trkpt>
      <trkpt lat="44.42447" lon="1.46358">
        <ele>192.8</ele>
        <time>2023-09-07T08:58:58Z</time>
      </trkpt>
      <trkpt lat="44.42451" lon="1.46361">
        <ele>192.6</ele>
        <time>2023-09-07T08:59:02Z</time>
      </trkpt>
      <trkpt lat="44.42456" lon="1.46364">
        <ele>192.1</ele>
        <time>2023-09-07T08:59:06Z</time>
      </trkpt>
      <trkpt lat="44.4246" lon="1.46367">
        <ele>191</ele>
        <time>2023-09-07T08:59:10Z</time>
      </trkpt>
      <trkpt lat="44.42466" lon="1.46369">
        <ele>190.4</ele>
        <time>2023-09-07T08:59:14Z</time>
      </trkpt>
      <trkpt lat="44.4247" lon="1.46372">
        <ele>190.4</ele>
        <time>2023-09-07T08:59:18Z</time>
      </trkpt>
      <trkpt lat="44.42475" lon="1.46374">
        <ele>190.8</ele>
        <time>2023-09-07T08:59:22Z</time>
      </trkpt>
      <trkpt lat="44.42479" lon="1.46377">
        <ele>190.5</ele>
        <time>2023-09-07T08:59:26Z</time>
      </trkpt>
      <trkpt lat="44.42484" lon="1.46379">
        <ele>189.9</ele>
        <time>2023-09-07T08:59:31Z</time>
      </trkpt>
      <trkpt lat="44.42489" lon="1.4638">
        <ele>188.5</ele>
        <time>2023-09-07T08:59:35Z</time>
      </trkpt>
      <trkpt lat="44.42494" lon="1.46381">
        <ele>187.8</ele>
        <time>2023-09-07T08:59:40Z</time>
      </trkpt>
      <trkpt lat="44.42499" lon="1.46384">
        <ele>187.3</ele>
        <time>2023-09-07T08:59:44Z</time>
      </trkpt>
      <trkpt lat="44.42504" lon="1.46385">
        <ele>186.6</ele>
        <time>2023-09-07T08:59:49Z</time>
      </trkpt>
      <trkpt lat="44.42509" lon="1.46387">
        <ele>186.2</ele>
        <time>2023-09-07T08:59:54Z</time>
      </trkpt>
      <trkpt lat="44.42514" lon="1.46389">
        <ele>185.6</ele>
        <time>2023-09-07T08:59:58Z</time>
      </trkpt>
      <trkpt lat="44.42518" lon="1.4639">
        <ele>185.1</ele>
        <time>2023-09-07T09:00:02Z</time>
      </trkpt>
      <trkpt lat="44.42524" lon="1.46392">
        <ele>183.1</ele>
        <time>2023-09-07T09:00:07Z</time>
      </trkpt>
      <trkpt lat="44.42528" lon="1.46392">
        <ele>183</ele>
        <time>2023-09-07T09:00:11Z</time>
      </trkpt>
      <trkpt lat="44.42533" lon="1.46395">
        <ele>182.9</ele>
        <time>2023-09-07T09:00:15Z</time>
      </trkpt>
      <trkpt lat="44.42537" lon="1.46397">
        <ele>182.1</ele>
        <time>2023-09-07T09:00:19Z</time>
      </trkpt>
      <trkpt lat="44.42542" lon="1.46398">
        <ele>181.8</ele>
        <time>2023-09-07T09:00:23Z</time>
      </trkpt>
      <trkpt lat="44.42546" lon="1.46399">
        <ele>181.6</ele>
        <time>2023-09-07T09:00:27Z</time>
      </trkpt>
      <trkpt lat="44.42551" lon="1.46399">
        <ele>181.5</ele>
        <time>2023-09-07T09:00:31Z</time>
      </trkpt>
      <trkpt lat="44.42556" lon="1.464">
        <ele>180.9</ele>
        <time>2023-09-07T09:00:35Z</time>
      </trkpt>
      <trkpt lat="44.42561" lon="1.46401">
        <ele>181</ele>
        <time>2023-09-07T09:00:40Z</time>
      </trkpt>
      <trkpt lat="44.42566" lon="1.46404">
        <ele>180.8</ele>
        <time>2023-09-07T09:00:45Z</time>
      </trkpt>
      <trkpt lat="44.42563" lon="1.46409">
        <ele>179.6</ele>
        <time>2023-09-07T09:04:51Z</time>
      </trkpt>
      <trkpt lat="44.42562" lon="1.46415">
        <ele>179.9</ele>
        <time>2023-09-07T09:05:42Z</time>
      </trkpt>
      <trkpt lat="44.42567" lon="1.46417">
        <ele>179.7</ele>
        <time>2023-09-07T09:05:46Z</time>
      </trkpt>
      <trkpt lat="44.42565" lon="1.46425">
        <ele>180.4</ele>
        <time>2023-09-07T09:05:50Z</time>
      </trkpt>
      <trkpt lat="44.42565" lon="1.46433">
        <ele>178.9</ele>
        <time>2023-09-07T09:05:55Z</time>
      </trkpt>
      <trkpt lat="44.42566" lon="1.4644">
        <ele>178.8</ele>
        <time>2023-09-07T09:06:00Z</time>
      </trkpt>
      <trkpt lat="44.42565" lon="1.46446">
        <ele>178.6</ele>
        <time>2023-09-07T09:06:05Z</time>
      </trkpt>
      <trkpt lat="44.42566" lon="1.46453">
        <ele>178.5</ele>
        <time>2023-09-07T09:06:10Z</time>
      </trkpt>
      <trkpt lat="44.42567" lon="1.46459">
        <ele>179.4</ele>
        <time>2023-09-07T09:06:15Z</time>
      </trkpt>
      <trkpt lat="44.42567" lon="1.46466">
        <ele>179.6</ele>
        <time>2023-09-07T09:06:20Z</time>
      </trkpt>
      <trkpt lat="44.42567" lon="1.46472">
        <ele>179.8</ele>
        <time>2023-09-07T09:06:25Z</time>
      </trkpt>
      <trkpt lat="44.42566" lon="1.46479">
        <ele>179.6</ele>
        <time>2023-09-07T09:06:29Z</time>
      </trkpt>
      <trkpt lat="44.42566" lon="1.46486">
        <ele>179.1</ele>
        <time>2023-09-07T09:06:33Z</time>
      </trkpt>
      <trkpt lat="44.42565" lon="1.46493">
        <ele>180.3</ele>
        <time>2023-09-07T09:06:38Z</time>
      </trkpt>
      <trkpt lat="44.42565" lon="1.465">
        <ele>182.8</ele>
        <time>2023-09-07T09:06:43Z</time>
      </trkpt>
      <trkpt lat="44.42564" lon="1.46507">
        <ele>182.5</ele>
        <time>2023-09-07T09:06:48Z</time>
      </trkpt>
      <trkpt lat="44.42562" lon="1.46514">
        <ele>182.4</ele>
        <time>2023-09-07T09:06:53Z</time>
      </trkpt>
      <trkpt lat="44.4256" lon="1.4652">
        <ele>181.4</ele>
        <time>2023-09-07T09:06:58Z</time>
      </trkpt>
      <trkpt lat="44.4256" lon="1.46527">
        <ele>182.4</ele>
        <time>2023-09-07T09:07:03Z</time>
      </trkpt>
      <trkpt lat="44.4256" lon="1.46535">
        <ele>184.2</ele>
        <time>2023-09-07T09:07:08Z</time>
      </trkpt>
      <trkpt lat="44.42557" lon="1.46542">
        <ele>184.8</ele>
        <time>2023-09-07T09:07:13Z</time>
      </trkpt>
      <trkpt lat="44.42555" lon="1.46548">
        <ele>184.2</ele>
        <time>2023-09-07T09:07:18Z</time>
      </trkpt>
      <trkpt lat="44.42552" lon="1.46553">
        <ele>184.7</ele>
        <time>2023-09-07T09:07:23Z</time>
      </trkpt>
      <trkpt lat="44.42549" lon="1.46558">
        <ele>183.5</ele>
        <time>2023-09-07T09:07:27Z</time>
      </trkpt>
      <trkpt lat="44.42547" lon="1.46564">
        <ele>183.3</ele>
        <time>2023-09-07T09:07:31Z</time>
      </trkpt>
      <trkpt lat="44.42544" lon="1.4657">
        <ele>182.8</ele>
        <time>2023-09-07T09:07:36Z</time>
      </trkpt>
      <trkpt lat="44.42542" lon="1.46577">
        <ele>182.4</ele>
        <time>2023-09-07T09:07:41Z</time>
      </trkpt>
      <trkpt lat="44.42539" lon="1.46583">
        <ele>181.4</ele>
        <time>2023-09-07T09:07:46Z</time>
      </trkpt>
      <trkpt lat="44.42537" lon="1.4659">
        <ele>181.5</ele>
        <time>2023-09-07T09:07:51Z</time>
      </trkpt>
      <trkpt lat="44.42534" lon="1.46596">
        <ele>180.7</ele>
        <time>2023-09-07T09:07:55Z</time>
      </trkpt>
      <trkpt lat="44.42531" lon="1.46602">
        <ele>180.2</ele>
        <time>2023-09-07T09:08:00Z</time>
      </trkpt>
      <trkpt lat="44.42528" lon="1.46609">
        <ele>179.4</ele>
        <time>2023-09-07T09:08:04Z</time>
      </trkpt>
      <trkpt lat="44.42525" lon="1.46615">
        <ele>179.8</ele>
        <time>2023-09-07T09:08:08Z</time>
      </trkpt>
      <trkpt lat="44.42524" lon="1.46622">
        <ele>179.7</ele>
        <time>2023-09-07T09:08:12Z</time>
      </trkpt>
      <trkpt lat="44.42522" lon="1.46628">
        <ele>179.5</ele>
        <time>2023-09-07T09:08:16Z</time>
      </trkpt>
      <trkpt lat="44.4252" lon="1.46635">
        <ele>179.5</ele>
        <time>2023-09-07T09:08:20Z</time>
      </trkpt>
      <trkpt lat="44.42519" lon="1.46641">
        <ele>180.2</ele>
        <time>2023-09-07T09:08:24Z</time>
      </trkpt>
      <trkpt lat="44.42517" lon="1.46649">
        <ele>180.3</ele>
        <time>2023-09-07T09:08:29Z</time>
      </trkpt>
      <trkpt lat="44.42516" lon="1.46655">
        <ele>181.1</ele>
        <time>2023-09-07T09:08:33Z</time>
      </trkpt>
      <trkpt lat="44.42515" lon="1.46662">
        <ele>181.5</ele>
        <time>2023-09-07T09:08:37Z</time>
      </trkpt>
      <trkpt lat="44.42515" lon="1.46668">
        <ele>182.1</ele>
        <time>2023-09-07T09:08:41Z</time>
      </trkpt>
      <trkpt lat="44.42514" lon="1.46675">
        <ele>182.4</ele>
        <time>2023-09-07T09:08:45Z</time>
      </trkpt>
      <trkpt lat="44.42514" lon="1.46682">
        <ele>183</ele>
        <time>2023-09-07T09:08:49Z</time>
      </trkpt>
      <trkpt lat="44.42515" lon="1.4669">
        <ele>183.1</ele>
        <time>2023-09-07T09:08:54Z</time>
      </trkpt>
      <trkpt lat="44.42515" lon="1.46696">
        <ele>182.5</ele>
        <time>2023-09-07T09:08:58Z</time>
      </trkpt>
      <trkpt lat="44.42515" lon="1.46703">
        <ele>182.5</ele>
        <time>2023-09-07T09:09:03Z</time>
      </trkpt>
      <trkpt lat="44.42516" lon="1.4671">
        <ele>182.8</ele>
        <time>2023-09-07T09:09:07Z</time>
      </trkpt>
      <trkpt lat="44.42517" lon="1.46717">
        <ele>183.2</ele>
        <time>2023-09-07T09:09:11Z</time>
      </trkpt>
      <trkpt lat="44.42519" lon="1.46723">
        <ele>183.9</ele>
        <time>2023-09-07T09:09:15Z</time>
      </trkpt>
      <trkpt lat="44.4252" lon="1.46729">
        <ele>184.7</ele>
        <time>2023-09-07T09:09:19Z</time>
      </trkpt>
      <trkpt lat="44.42522" lon="1.46735">
        <ele>185.6</ele>
        <time>2023-09-07T09:09:23Z</time>
      </trkpt>
      <trkpt lat="44.42523" lon="1.46742">
        <ele>186.3</ele>
        <time>2023-09-07T09:09:28Z</time>
      </trkpt>
      <trkpt lat="44.42524" lon="1.46749">
        <ele>186.3</ele>
        <time>2023-09-07T09:09:32Z</time>
      </trkpt>
      <trkpt lat="44.42525" lon="1.46755">
        <ele>186.3</ele>
        <time>2023-09-07T09:09:36Z</time>
      </trkpt>
      <trkpt lat="44.42527" lon="1.46761">
        <ele>185.9</ele>
        <time>2023-09-07T09:09:40Z</time>
      </trkpt>
      <trkpt lat="44.42529" lon="1.46768">
        <ele>185.8</ele>
        <time>2023-09-07T09:09:44Z</time>
      </trkpt>
      <trkpt lat="44.4253" lon="1.46774">
        <ele>186.6</ele>
        <time>2023-09-07T09:09:48Z</time>
      </trkpt>
      <trkpt lat="44.42532" lon="1.4678">
        <ele>187.1</ele>
        <time>2023-09-07T09:09:52Z</time>
      </trkpt>
      <trkpt lat="44.42534" lon="1.46786">
        <ele>187</ele>
        <time>2023-09-07T09:09:56Z</time>
      </trkpt>
      <trkpt lat="44.42536" lon="1.46791">
        <ele>187.6</ele>
        <time>2023-09-07T09:10:00Z</time>
      </trkpt>
      <trkpt lat="44.42538" lon="1.46797">
        <ele>188.4</ele>
        <time>2023-09-07T09:10:04Z</time>
      </trkpt>
      <trkpt lat="44.4254" lon="1.46803">
        <ele>188.6</ele>
        <time>2023-09-07T09:10:08Z</time>
      </trkpt>
      <trkpt lat="44.42542" lon="1.46809">
        <ele>188.9</ele>
        <time>2023-09-07T09:10:12Z</time>
      </trkpt>
      <trkpt lat="44.42545" lon="1.46815">
        <ele>189</ele>
        <time>2023-09-07T09:10:16Z</time>
      </trkpt>
      <trkpt lat="44.42547" lon="1.46821">
        <ele>190.2</ele>
        <time>2023-09-07T09:10:20Z</time>
      </trkpt>
      <trkpt lat="44.42549" lon="1.46828">
        <ele>190.7</ele>
        <time>2023-09-07T09:10:24Z</time>
      </trkpt>
      <trkpt lat="44.4255" lon="1.46834">
        <ele>191</ele>
        <time>2023-09-07T09:10:28Z</time>
      </trkpt>
      <trkpt lat="44.42551" lon="1.4684">
        <ele>192.1</ele>
        <time>2023-09-07T09:10:32Z</time>
      </trkpt>
      <trkpt lat="44.42554" lon="1.46847">
        <ele>193.5</ele>
        <time>2023-09-07T09:10:37Z</time>
      </trkpt>
      <trkpt lat="44.42558" lon="1.46851">
        <ele>192.1</ele>
        <time>2023-09-07T09:10:42Z</time>
      </trkpt>
      <trkpt lat="44.4256" lon="1.46857">
        <ele>191.6</ele>
        <time>2023-09-07T09:10:47Z</time>
      </trkpt>
      <trkpt lat="44.42565" lon="1.46855">
        <ele>190.4</ele>
        <time>2023-09-07T09:12:19Z</time>
      </trkpt>
      <trkpt lat="44.42569" lon="1.46855">
        <ele>191.5</ele>
        <time>2023-09-07T09:12:22Z</time>
      </trkpt>
      <trkpt lat="44.42574" lon="1.46851">
        <ele>194.5</ele>
        <time>2023-09-07T09:12:26Z</time>
      </trkpt>
      <trkpt lat="44.42579" lon="1.46852">
        <ele>198.3</ele>
        <time>2023-09-07T09:12:31Z</time>
      </trkpt>
      <trkpt lat="44.42584" lon="1.46853">
        <ele>199.3</ele>
        <time>2023-09-07T09:12:37Z</time>
      </trkpt>
      <trkpt lat="44.42589" lon="1.46855">
        <ele>200.7</ele>
        <time>2023-09-07T09:12:44Z</time>
      </trkpt>
      <trkpt lat="44.42592" lon="1.4686">
        <ele>202.2</ele>
        <time>2023-09-07T09:12:50Z</time>
      </trkpt>
      <trkpt lat="44.42592" lon="1.46868">
        <ele>201.3</ele>
        <time>2023-09-07T09:12:55Z</time>
      </trkpt>
      <trkpt lat="44.42592" lon="1.46875">
        <ele>200.8</ele>
        <time>2023-09-07T09:13:00Z</time>
      </trkpt>
      <trkpt lat="44.42598" lon="1.4688">
        <ele>202</ele>
        <time>2023-09-07T09:13:11Z</time>
      </trkpt>
      <trkpt lat="44.42602" lon="1.46878">
        <ele>199.3</ele>
        <time>2023-09-07T09:13:16Z</time>
      </trkpt>
      <trkpt lat="44.42607" lon="1.46878">
        <ele>196.6</ele>
        <time>2023-09-07T09:13:23Z</time>
      </trkpt>
      <trkpt lat="44.42611" lon="1.46873">
        <ele>195.2</ele>
        <time>2023-09-07T09:13:30Z</time>
      </trkpt>
      <trkpt lat="44.42614" lon="1.46867">
        <ele>194.7</ele>
        <time>2023-09-07T09:13:38Z</time>
      </trkpt>
      <trkpt lat="44.42617" lon="1.46863">
        <ele>195.8</ele>
        <time>2023-09-07T09:13:43Z</time>
      </trkpt>
      <trkpt lat="44.42622" lon="1.46864">
        <ele>202.3</ele>
        <time>2023-09-07T09:13:50Z</time>
      </trkpt>
      <trkpt lat="44.42627" lon="1.46864">
        <ele>204.9</ele>
        <time>2023-09-07T09:13:58Z</time>
      </trkpt>
      <trkpt lat="44.42632" lon="1.46863">
        <ele>207.8</ele>
        <time>2023-09-07T09:14:06Z</time>
      </trkpt>
      <trkpt lat="44.42634" lon="1.4687">
        <ele>207.7</ele>
        <time>2023-09-07T09:14:13Z</time>
      </trkpt>
      <trkpt lat="44.42637" lon="1.46877">
        <ele>209</ele>
        <time>2023-09-07T09:14:18Z</time>
      </trkpt>
      <trkpt lat="44.42642" lon="1.4688">
        <ele>209.5</ele>
        <time>2023-09-07T09:14:22Z</time>
      </trkpt>
      <trkpt lat="44.42647" lon="1.46879">
        <ele>210.6</ele>
        <time>2023-09-07T09:14:28Z</time>
      </trkpt>
      <trkpt lat="44.42652" lon="1.46883">
        <ele>209.7</ele>
        <time>2023-09-07T09:14:33Z</time>
      </trkpt>
      <trkpt lat="44.42654" lon="1.46889">
        <ele>208.1</ele>
        <time>2023-09-07T09:14:36Z</time>
      </trkpt>
      <trkpt lat="44.42655" lon="1.46895">
        <ele>209.1</ele>
        <time>2023-09-07T09:14:41Z</time>
      </trkpt>
      <trkpt lat="44.42657" lon="1.46901">
        <ele>209.4</ele>
        <time>2023-09-07T09:14:47Z</time>
      </trkpt>
      <trkpt lat="44.42658" lon="1.46908">
        <ele>209.7</ele>
        <time>2023-09-07T09:14:58Z</time>
      </trkpt>
      <trkpt lat="44.4266" lon="1.46915">
        <ele>210.3</ele>
        <time>2023-09-07T09:15:03Z</time>
      </trkpt>
      <trkpt lat="44.42662" lon="1.46921">
        <ele>210</ele>
        <time>2023-09-07T09:15:09Z</time>
      </trkpt>
      <trkpt lat="44.42661" lon="1.46928">
        <ele>210.7</ele>
        <time>2023-09-07T09:15:17Z</time>
      </trkpt>
      <trkpt lat="44.42663" lon="1.46933">
        <ele>211.2</ele>
        <time>2023-09-07T09:15:30Z</time>
      </trkpt>
      <trkpt lat="44.42666" lon="1.46939">
        <ele>212.5</ele>
        <time>2023-09-07T09:15:44Z</time>
      </trkpt>
      <trkpt lat="44.4266" lon="1.46939">
        <ele>211.9</ele>
        <time>2023-09-07T09:15:53Z</time>
      </trkpt>
      <trkpt lat="44.42661" lon="1.46945">
        <ele>215.9</ele>
        <time>2023-09-07T09:16:11Z</time>
      </trkpt>
      <trkpt lat="44.42662" lon="1.46952">
        <ele>227</ele>
        <time>2023-09-07T09:16:50Z</time>
      </trkpt>
      <trkpt lat="44.42667" lon="1.4695">
        <ele>225.5</ele>
        <time>2023-09-07T09:17:00Z</time>
      </trkpt>
      <trkpt lat="44.42671" lon="1.46952">
        <ele>224.8</ele>
        <time>2023-09-07T09:17:10Z</time>
      </trkpt>
      <trkpt lat="44.42676" lon="1.46955">
        <ele>223.4</ele>
        <time>2023-09-07T09:17:17Z</time>
      </trkpt>
      <trkpt lat="44.42681" lon="1.46955">
        <ele>222.3</ele>
        <time>2023-09-07T09:17:23Z</time>
      </trkpt>
      <trkpt lat="44.42685" lon="1.46955">
        <ele>222</ele>
        <time>2023-09-07T09:17:28Z</time>
      </trkpt>
      <trkpt lat="44.4269" lon="1.46954">
        <ele>221.6</ele>
        <time>2023-09-07T09:17:33Z</time>
      </trkpt>
      <trkpt lat="44.42694" lon="1.46959">
        <ele>220.8</ele>
        <time>2023-09-07T09:17:42Z</time>
      </trkpt>
      <trkpt lat="44.42697" lon="1.46964">
        <ele>221.5</ele>
        <time>2023-09-07T09:17:48Z</time>
      </trkpt>
      <trkpt lat="44.42701" lon="1.46968">
        <ele>222.9</ele>
        <time>2023-09-07T09:17:55Z</time>
      </trkpt>
      <trkpt lat="44.42704" lon="1.46974">
        <ele>224.6</ele>
        <time>2023-09-07T09:18:02Z</time>
      </trkpt>
      <trkpt lat="44.42706" lon="1.4698">
        <ele>227.2</ele>
        <time>2023-09-07T09:18:10Z</time>
      </trkpt>
      <trkpt lat="44.42711" lon="1.46981">
        <ele>227.9</ele>
        <time>2023-09-07T09:18:16Z</time>
      </trkpt>
      <trkpt lat="44.42714" lon="1.46977">
        <ele>227.1</ele>
        <time>2023-09-07T09:18:21Z</time>
      </trkpt>
      <trkpt lat="44.42719" lon="1.46975">
        <ele>227</ele>
        <time>2023-09-07T09:18:26Z</time>
      </trkpt>
      <trkpt lat="44.42724" lon="1.46975">
        <ele>227.1</ele>
        <time>2023-09-07T09:18:32Z</time>
      </trkpt>
      <trkpt lat="44.42728" lon="1.4698">
        <ele>226.5</ele>
        <time>2023-09-07T09:18:39Z</time>
      </trkpt>
      <trkpt lat="44.42732" lon="1.46981">
        <ele>229</ele>
        <time>2023-09-07T09:18:47Z</time>
      </trkpt>
      <trkpt lat="44.42735" lon="1.46986">
        <ele>232.4</ele>
        <time>2023-09-07T09:18:57Z</time>
      </trkpt>
      <trkpt lat="44.42736" lon="1.46992">
        <ele>234.4</ele>
        <time>2023-09-07T09:19:05Z</time>
      </trkpt>
      <trkpt lat="44.42735" lon="1.46999">
        <ele>238.1</ele>
        <time>2023-09-07T09:19:12Z</time>
      </trkpt>
      <trkpt lat="44.42734" lon="1.47006">
        <ele>238.2</ele>
        <time>2023-09-07T09:19:18Z</time>
      </trkpt>
      <trkpt lat="44.42732" lon="1.47012">
        <ele>238.7</ele>
        <time>2023-09-07T09:19:23Z</time>
      </trkpt>
      <trkpt lat="44.42731" lon="1.47019">
        <ele>238.9</ele>
        <time>2023-09-07T09:19:29Z</time>
      </trkpt>
      <trkpt lat="44.42728" lon="1.47023">
        <ele>238.4</ele>
        <time>2023-09-07T09:19:35Z</time>
      </trkpt>
      <trkpt lat="44.42722" lon="1.47023">
        <ele>236.4</ele>
        <time>2023-09-07T09:19:42Z</time>
      </trkpt>
      <trkpt lat="44.42717" lon="1.47023">
        <ele>236.4</ele>
        <time>2023-09-07T09:19:48Z</time>
      </trkpt>
      <trkpt lat="44.42712" lon="1.47024">
        <ele>234</ele>
        <time>2023-09-07T09:19:54Z</time>
      </trkpt>
      <trkpt lat="44.42713" lon="1.47031">
        <ele>234.3</ele>
        <time>2023-09-07T09:20:00Z</time>
      </trkpt>
      <trkpt lat="44.42716" lon="1.47037">
        <ele>234.8</ele>
        <time>2023-09-07T09:20:07Z</time>
      </trkpt>
      <trkpt lat="44.42716" lon="1.47044">
        <ele>238.5</ele>
        <time>2023-09-07T09:20:16Z</time>
      </trkpt>
      <trkpt lat="44.42718" lon="1.47049">
        <ele>240.6</ele>
        <time>2023-09-07T09:20:24Z</time>
      </trkpt>
      <trkpt lat="44.42719" lon="1.47056">
        <ele>244</ele>
        <time>2023-09-07T09:20:33Z</time>
      </trkpt>
      <trkpt lat="44.42716" lon="1.4706">
        <ele>243.2</ele>
        <time>2023-09-07T09:20:40Z</time>
      </trkpt>
      <trkpt lat="44.42711" lon="1.47063">
        <ele>241.7</ele>
        <time>2023-09-07T09:20:46Z</time>
      </trkpt>
      <trkpt lat="44.42708" lon="1.47067">
        <ele>243.5</ele>
        <time>2023-09-07T09:20:51Z</time>
      </trkpt>
      <trkpt lat="44.42705" lon="1.47073">
        <ele>245</ele>
        <time>2023-09-07T09:20:57Z</time>
      </trkpt>
      <trkpt lat="44.42703" lon="1.4708">
        <ele>246.1</ele>
        <time>2023-09-07T09:21:05Z</time>
      </trkpt>
      <trkpt lat="44.427" lon="1.47086">
        <ele>247.7</ele>
        <time>2023-09-07T09:21:12Z</time>
      </trkpt>
      <trkpt lat="44.42698" lon="1.47092">
        <ele>247.6</ele>
        <time>2023-09-07T09:21:18Z</time>
      </trkpt>
      <trkpt lat="44.42697" lon="1.47098">
        <ele>248.9</ele>
        <time>2023-09-07T09:21:24Z</time>
      </trkpt>
      <trkpt lat="44.42695" lon="1.47104">
        <ele>249.8</ele>
        <time>2023-09-07T09:21:31Z</time>
      </trkpt>
      <trkpt lat="44.42692" lon="1.47109">
        <ele>251.1</ele>
        <time>2023-09-07T09:21:38Z</time>
      </trkpt>
      <trkpt lat="44.42689" lon="1.47114">
        <ele>249.2</ele>
        <time>2023-09-07T09:21:47Z</time>
      </trkpt>
      <trkpt lat="44.42688" lon="1.47121">
        <ele>250.3</ele>
        <time>2023-09-07T09:21:54Z</time>
      </trkpt>
      <trkpt lat="44.42688" lon="1.47127">
        <ele>250.7</ele>
        <time>2023-09-07T09:22:00Z</time>
      </trkpt>
      <trkpt lat="44.42692" lon="1.47131">
        <ele>249.7</ele>
        <time>2023-09-07T09:22:06Z</time>
      </trkpt>
      <trkpt lat="44.42694" lon="1.47137">
        <ele>247.2</ele>
        <time>2023-09-07T09:22:13Z</time>
      </trkpt>
      <trkpt lat="44.42693" lon="1.47144">
        <ele>247</ele>
        <time>2023-09-07T09:22:19Z</time>
      </trkpt>
      <trkpt lat="44.42698" lon="1.47144">
        <ele>245.3</ele>
        <time>2023-09-07T09:22:25Z</time>
      </trkpt>
      <trkpt lat="44.42702" lon="1.47146">
        <ele>246.6</ele>
        <time>2023-09-07T09:22:32Z</time>
      </trkpt>
      <trkpt lat="44.42707" lon="1.47148">
        <ele>247.6</ele>
        <time>2023-09-07T09:22:39Z</time>
      </trkpt>
      <trkpt lat="44.42711" lon="1.47151">
        <ele>249.6</ele>
        <time>2023-09-07T09:22:48Z</time>
      </trkpt>
      <trkpt lat="44.42716" lon="1.47152">
        <ele>250.2</ele>
        <time>2023-09-07T09:22:56Z</time>
      </trkpt>
      <trkpt lat="44.4272" lon="1.47155">
        <ele>252.9</ele>
        <time>2023-09-07T09:23:07Z</time>
      </trkpt>
      <trkpt lat="44.42724" lon="1.47152">
        <ele>251.8</ele>
        <time>2023-09-07T09:23:16Z</time>
      </trkpt>
      <trkpt lat="44.42727" lon="1.47147">
        <ele>253.5</ele>
        <time>2023-09-07T09:23:24Z</time>
      </trkpt>
      <trkpt lat="44.42732" lon="1.47143">
        <ele>253.4</ele>
        <time>2023-09-07T09:23:32Z</time>
      </trkpt>
      <trkpt lat="44.42734" lon="1.47138">
        <ele>252.8</ele>
        <time>2023-09-07T09:23:38Z</time>
      </trkpt>
      <trkpt lat="44.42738" lon="1.47133">
        <ele>251.7</ele>
        <time>2023-09-07T09:23:44Z</time>
      </trkpt>
      <trkpt lat="44.42741" lon="1.47129">
        <ele>252</ele>
        <time>2023-09-07T09:23:50Z</time>
      </trkpt>
      <trkpt lat="44.42744" lon="1.47123">
        <ele>253.5</ele>
        <time>2023-09-07T09:23:55Z</time>
      </trkpt>
      <trkpt lat="44.42746" lon="1.47115">
        <ele>254.9</ele>
        <time>2023-09-07T09:23:59Z</time>
      </trkpt>
      <trkpt lat="44.42749" lon="1.47109">
        <ele>256.6</ele>
        <time>2023-09-07T09:24:02Z</time>
      </trkpt>
      <trkpt lat="44.42752" lon="1.47104">
        <ele>257.1</ele>
        <time>2023-09-07T09:24:06Z</time>
      </trkpt>
      <trkpt lat="44.42757" lon="1.47101">
        <ele>255.3</ele>
        <time>2023-09-07T09:24:14Z</time>
      </trkpt>
      <trkpt lat="44.42761" lon="1.47099">
        <ele>257.2</ele>
        <time>2023-09-07T09:24:23Z</time>
      </trkpt>
      <trkpt lat="44.42765" lon="1.47095">
        <ele>258.9</ele>
        <time>2023-09-07T09:24:31Z</time>
      </trkpt>
      <trkpt lat="44.42768" lon="1.47091">
        <ele>259.3</ele>
        <time>2023-09-07T09:24:38Z</time>
      </trkpt>
      <trkpt lat="44.42772" lon="1.47088">
        <ele>259.3</ele>
        <time>2023-09-07T09:24:44Z</time>
      </trkpt>
      <trkpt lat="44.42777" lon="1.47085">
        <ele>257.9</ele>
        <time>2023-09-07T09:24:52Z</time>
      </trkpt>
      <trkpt lat="44.42779" lon="1.47079">
        <ele>256.1</ele>
        <time>2023-09-07T09:24:59Z</time>
      </trkpt>
      <trkpt lat="44.42782" lon="1.47073">
        <ele>256.1</ele>
        <time>2023-09-07T09:25:04Z</time>
      </trkpt>
      <trkpt lat="44.42785" lon="1.47067">
        <ele>255.7</ele>
        <time>2023-09-07T09:25:09Z</time>
      </trkpt>
      <trkpt lat="44.42787" lon="1.47061">
        <ele>256.2</ele>
        <time>2023-09-07T09:25:13Z</time>
      </trkpt>
      <trkpt lat="44.42791" lon="1.47055">
        <ele>260</ele>
        <time>2023-09-07T09:25:17Z</time>
      </trkpt>
      <trkpt lat="44.42794" lon="1.47049">
        <ele>261.7</ele>
        <time>2023-09-07T09:25:21Z</time>
      </trkpt>
      <trkpt lat="44.42798" lon="1.47048">
        <ele>262.3</ele>
        <time>2023-09-07T09:25:29Z</time>
      </trkpt>
      <trkpt lat="44.428" lon="1.47042">
        <ele>262.7</ele>
        <time>2023-09-07T09:25:37Z</time>
      </trkpt>
      <trkpt lat="44.42806" lon="1.47041">
        <ele>261.4</ele>
        <time>2023-09-07T09:25:43Z</time>
      </trkpt>
      <trkpt lat="44.4281" lon="1.47039">
        <ele>261</ele>
        <time>2023-09-07T09:25:55Z</time>
      </trkpt>
      <trkpt lat="44.42814" lon="1.47034">
        <ele>261.5</ele>
        <time>2023-09-07T09:26:04Z</time>
      </trkpt>
      <trkpt lat="44.42816" lon="1.47028">
        <ele>263.5</ele>
        <time>2023-09-07T09:26:14Z</time>
      </trkpt>
      <trkpt lat="44.4282" lon="1.47025">
        <ele>265.2</ele>
        <time>2023-09-07T09:26:25Z</time>
      </trkpt>
      <trkpt lat="44.42825" lon="1.47028">
        <ele>268.3</ele>
        <time>2023-09-07T09:26:35Z</time>
      </trkpt>
      <trkpt lat="44.42828" lon="1.47032">
        <ele>270.4</ele>
        <time>2023-09-07T09:26:46Z</time>
      </trkpt>
      <trkpt lat="44.42832" lon="1.47028">
        <ele>269.8</ele>
        <time>2023-09-07T09:26:56Z</time>
      </trkpt>
      <trkpt lat="44.42837" lon="1.47027">
        <ele>268.7</ele>
        <time>2023-09-07T09:27:08Z</time>
      </trkpt>
      <trkpt lat="44.42841" lon="1.47029">
        <ele>272.1</ele>
        <time>2023-09-07T09:29:27Z</time>
      </trkpt>
      <trkpt lat="44.42839" lon="1.47034">
        <ele>274.9</ele>
        <time>2023-09-07T09:29:35Z</time>
      </trkpt>
      <trkpt lat="44.42837" lon="1.4704">
        <ele>275.5</ele>
        <time>2023-09-07T09:29:43Z</time>
      </trkpt>
      <trkpt lat="44.42833" lon="1.47036">
        <ele>275.2</ele>
        <time>2023-09-07T09:29:50Z</time>
      </trkpt>
      <trkpt lat="44.42838" lon="1.47038">
        <ele>275.7</ele>
        <time>2023-09-07T09:30:25Z</time>
      </trkpt>
      <trkpt lat="44.42841" lon="1.47043">
        <ele>276.4</ele>
        <time>2023-09-07T09:30:31Z</time>
      </trkpt>
      <trkpt lat="44.42841" lon="1.4705">
        <ele>275.4</ele>
        <time>2023-09-07T09:30:34Z</time>
      </trkpt>
      <trkpt lat="44.4284" lon="1.47057">
        <ele>275.3</ele>
        <time>2023-09-07T09:30:36Z</time>
      </trkpt>
      <trkpt lat="44.4284" lon="1.47063">
        <ele>276.4</ele>
        <time>2023-09-07T09:30:41Z</time>
      </trkpt>
      <trkpt lat="44.42841" lon="1.47071">
        <ele>277.7</ele>
        <time>2023-09-07T09:30:46Z</time>
      </trkpt>
      <trkpt lat="44.42841" lon="1.47078">
        <ele>277.7</ele>
        <time>2023-09-07T09:30:50Z</time>
      </trkpt>
      <trkpt lat="44.4284" lon="1.47085">
        <ele>278.3</ele>
        <time>2023-09-07T09:30:55Z</time>
      </trkpt>
      <trkpt lat="44.4284" lon="1.47092">
        <ele>278</ele>
        <time>2023-09-07T09:31:00Z</time>
      </trkpt>
      <trkpt lat="44.42839" lon="1.47099">
        <ele>278.2</ele>
        <time>2023-09-07T09:31:04Z</time>
      </trkpt>
      <trkpt lat="44.42838" lon="1.47106">
        <ele>278.4</ele>
        <time>2023-09-07T09:31:09Z</time>
      </trkpt>
      <trkpt lat="44.42836" lon="1.47112">
        <ele>277.9</ele>
        <time>2023-09-07T09:31:14Z</time>
      </trkpt>
      <trkpt lat="44.42835" lon="1.4712">
        <ele>279</ele>
        <time>2023-09-07T09:31:19Z</time>
      </trkpt>
      <trkpt lat="44.42834" lon="1.47127">
        <ele>279.8</ele>
        <time>2023-09-07T09:31:23Z</time>
      </trkpt>
      <trkpt lat="44.42833" lon="1.47135">
        <ele>281.4</ele>
        <time>2023-09-07T09:31:27Z</time>
      </trkpt>
      <trkpt lat="44.42832" lon="1.47141">
        <ele>282.2</ele>
        <time>2023-09-07T09:31:31Z</time>
      </trkpt>
      <trkpt lat="44.42831" lon="1.47148">
        <ele>283</ele>
        <time>2023-09-07T09:31:37Z</time>
      </trkpt>
      <trkpt lat="44.4283" lon="1.47154">
        <ele>283.6</ele>
        <time>2023-09-07T09:31:42Z</time>
      </trkpt>
      <trkpt lat="44.42828" lon="1.47161">
        <ele>283.2</ele>
        <time>2023-09-07T09:31:47Z</time>
      </trkpt>
      <trkpt lat="44.42827" lon="1.47167">
        <ele>283.2</ele>
        <time>2023-09-07T09:31:52Z</time>
      </trkpt>
      <trkpt lat="44.42826" lon="1.47173">
        <ele>282.7</ele>
        <time>2023-09-07T09:31:57Z</time>
      </trkpt>
      <trkpt lat="44.42825" lon="1.4718">
        <ele>283.3</ele>
        <time>2023-09-07T09:32:02Z</time>
      </trkpt>
      <trkpt lat="44.42823" lon="1.47187">
        <ele>283.3</ele>
        <time>2023-09-07T09:32:07Z</time>
      </trkpt>
      <trkpt lat="44.42821" lon="1.47194">
        <ele>283</ele>
        <time>2023-09-07T09:32:12Z</time>
      </trkpt>
      <trkpt lat="44.42821" lon="1.472">
        <ele>282.2</ele>
        <time>2023-09-07T09:32:17Z</time>
      </trkpt>
      <trkpt lat="44.42821" lon="1.47207">
        <ele>283.4</ele>
        <time>2023-09-07T09:32:22Z</time>
      </trkpt>
      <trkpt lat="44.42819" lon="1.47213">
        <ele>283</ele>
        <time>2023-09-07T09:32:28Z</time>
      </trkpt>
      <trkpt lat="44.42818" lon="1.47219">
        <ele>283.3</ele>
        <time>2023-09-07T09:32:32Z</time>
      </trkpt>
      <trkpt lat="44.42818" lon="1.47227">
        <ele>284.4</ele>
        <time>2023-09-07T09:32:37Z</time>
      </trkpt>
      <trkpt lat="44.42817" lon="1.47234">
        <ele>283.6</ele>
        <time>2023-09-07T09:32:42Z</time>
      </trkpt>
      <trkpt lat="44.42817" lon="1.4724">
        <ele>282.4</ele>
        <time>2023-09-07T09:32:52Z</time>
      </trkpt>
      <trkpt lat="44.42816" lon="1.47247">
        <ele>283.8</ele>
        <time>2023-09-07T09:33:03Z</time>
      </trkpt>
      <trkpt lat="44.42816" lon="1.47254">
        <ele>284.1</ele>
        <time>2023-09-07T09:33:08Z</time>
      </trkpt>
      <trkpt lat="44.42815" lon="1.47261">
        <ele>285.4</ele>
        <time>2023-09-07T09:33:13Z</time>
      </trkpt>
      <trkpt lat="44.42814" lon="1.47269">
        <ele>285.2</ele>
        <time>2023-09-07T09:33:18Z</time>
      </trkpt>
      <trkpt lat="44.42813" lon="1.47276">
        <ele>285.3</ele>
        <time>2023-09-07T09:33:23Z</time>
      </trkpt>
      <trkpt lat="44.42812" lon="1.47283">
        <ele>285.1</ele>
        <time>2023-09-07T09:33:29Z</time>
      </trkpt>
      <trkpt lat="44.42812" lon="1.4729">
        <ele>284.8</ele>
        <time>2023-09-07T09:33:34Z</time>
      </trkpt>
      <trkpt lat="44.42811" lon="1.47297">
        <ele>284</ele>
        <time>2023-09-07T09:33:38Z</time>
      </trkpt>
      <trkpt lat="44.4281" lon="1.47304">
        <ele>285.4</ele>
        <time>2023-09-07T09:33:42Z</time>
      </trkpt>
      <trkpt lat="44.4281" lon="1.47312">
        <ele>287.5</ele>
        <time>2023-09-07T09:33:46Z</time>
      </trkpt>
      <trkpt lat="44.42809" lon="1.47319">
        <ele>288.7</ele>
        <time>2023-09-07T09:33:50Z</time>
      </trkpt>
      <trkpt lat="44.4281" lon="1.47326">
        <ele>290</ele>
        <time>2023-09-07T09:33:54Z</time>
      </trkpt>
      <trkpt lat="44.4281" lon="1.47334">
        <ele>290.2</ele>
        <time>2023-09-07T09:33:58Z</time>
      </trkpt>
      <trkpt lat="44.42809" lon="1.47341">
        <ele>292</ele>
        <time>2023-09-07T09:34:02Z</time>
      </trkpt>
      <trkpt lat="44.42808" lon="1.47348">
        <ele>290.9</ele>
        <time>2023-09-07T09:34:09Z</time>
      </trkpt>
      <trkpt lat="44.42805" lon="1.47353">
        <ele>288.7</ele>
        <time>2023-09-07T09:34:16Z</time>
      </trkpt>
      <trkpt lat="44.42804" lon="1.4736">
        <ele>289.5</ele>
        <time>2023-09-07T09:34:23Z</time>
      </trkpt>
      <trkpt lat="44.42804" lon="1.47367">
        <ele>288.9</ele>
        <time>2023-09-07T09:34:28Z</time>
      </trkpt>
      <trkpt lat="44.42804" lon="1.47375">
        <ele>289.6</ele>
        <time>2023-09-07T09:34:32Z</time>
      </trkpt>
      <trkpt lat="44.42803" lon="1.47381">
        <ele>289.9</ele>
        <time>2023-09-07T09:34:37Z</time>
      </trkpt>
      <trkpt lat="44.42801" lon="1.47388">
        <ele>289.8</ele>
        <time>2023-09-07T09:34:43Z</time>
      </trkpt>
      <trkpt lat="44.428" lon="1.47394">
        <ele>287.9</ele>
        <time>2023-09-07T09:34:48Z</time>
      </trkpt>
      <trkpt lat="44.428" lon="1.47401">
        <ele>288</ele>
        <time>2023-09-07T09:34:54Z</time>
      </trkpt>
      <trkpt lat="44.42799" lon="1.47408">
        <ele>288.9</ele>
        <time>2023-09-07T09:35:00Z</time>
      </trkpt>
      <trkpt lat="44.42798" lon="1.47415">
        <ele>289</ele>
        <time>2023-09-07T09:35:06Z</time>
      </trkpt>
      <trkpt lat="44.42796" lon="1.47422">
        <ele>289.2</ele>
        <time>2023-09-07T09:35:12Z</time>
      </trkpt>
      <trkpt lat="44.42794" lon="1.47428">
        <ele>288.6</ele>
        <time>2023-09-07T09:35:17Z</time>
      </trkpt>
      <trkpt lat="44.42791" lon="1.47434">
        <ele>288.2</ele>
        <time>2023-09-07T09:35:22Z</time>
      </trkpt>
      <trkpt lat="44.42788" lon="1.4744">
        <ele>286</ele>
        <time>2023-09-07T09:35:28Z</time>
      </trkpt>
      <trkpt lat="44.42785" lon="1.47445">
        <ele>285.9</ele>
        <time>2023-09-07T09:35:33Z</time>
      </trkpt>
      <trkpt lat="44.42781" lon="1.47449">
        <ele>284.2</ele>
        <time>2023-09-07T09:35:38Z</time>
      </trkpt>
      <trkpt lat="44.42777" lon="1.47455">
        <ele>284.4</ele>
        <time>2023-09-07T09:35:43Z</time>
      </trkpt>
      <trkpt lat="44.42773" lon="1.47458">
        <ele>283.4</ele>
        <time>2023-09-07T09:35:47Z</time>
      </trkpt>
      <trkpt lat="44.42768" lon="1.47462">
        <ele>282.4</ele>
        <time>2023-09-07T09:35:52Z</time>
      </trkpt>
      <trkpt lat="44.42764" lon="1.47466">
        <ele>282.2</ele>
        <time>2023-09-07T09:35:57Z</time>
      </trkpt>
      <trkpt lat="44.4276" lon="1.4747">
        <ele>281.4</ele>
        <time>2023-09-07T09:36:02Z</time>
      </trkpt>
      <trkpt lat="44.42756" lon="1.47474">
        <ele>280.2</ele>
        <time>2023-09-07T09:36:06Z</time>
      </trkpt>
      <trkpt lat="44.42752" lon="1.47479">
        <ele>279.5</ele>
        <time>2023-09-07T09:36:10Z</time>
      </trkpt>
      <trkpt lat="44.42748" lon="1.47484">
        <ele>280.4</ele>
        <time>2023-09-07T09:36:14Z</time>
      </trkpt>
      <trkpt lat="44.42744" lon="1.47489">
        <ele>280.1</ele>
        <time>2023-09-07T09:36:18Z</time>
      </trkpt>
      <trkpt lat="44.42741" lon="1.47493">
        <ele>280.5</ele>
        <time>2023-09-07T09:36:22Z</time>
      </trkpt>
      <trkpt lat="44.42737" lon="1.47497">
        <ele>280.6</ele>
        <time>2023-09-07T09:36:26Z</time>
      </trkpt>
      <trkpt lat="44.42733" lon="1.47501">
        <ele>280.7</ele>
        <time>2023-09-07T09:36:30Z</time>
      </trkpt>
      <trkpt lat="44.4273" lon="1.47505">
        <ele>280.2</ele>
        <time>2023-09-07T09:36:34Z</time>
      </trkpt>
      <trkpt lat="44.42726" lon="1.47509">
        <ele>280.4</ele>
        <time>2023-09-07T09:36:38Z</time>
      </trkpt>
      <trkpt lat="44.42722" lon="1.47514">
        <ele>280.9</ele>
        <time>2023-09-07T09:36:42Z</time>
      </trkpt>
      <trkpt lat="44.42719" lon="1.47518">
        <ele>281.6</ele>
        <time>2023-09-07T09:36:46Z</time>
      </trkpt>
      <trkpt lat="44.42715" lon="1.47523">
        <ele>281.6</ele>
        <time>2023-09-07T09:36:50Z</time>
      </trkpt>
      <trkpt lat="44.42712" lon="1.47528">
        <ele>281.4</ele>
        <time>2023-09-07T09:36:54Z</time>
      </trkpt>
      <trkpt lat="44.42708" lon="1.47533">
        <ele>281.6</ele>
        <time>2023-09-07T09:36:58Z</time>
      </trkpt>
      <trkpt lat="44.42705" lon="1.47537">
        <ele>281.5</ele>
        <time>2023-09-07T09:37:02Z</time>
      </trkpt>
      <trkpt lat="44.427" lon="1.47543">
        <ele>281.9</ele>
        <time>2023-09-07T09:37:07Z</time>
      </trkpt>
      <trkpt lat="44.42697" lon="1.47547">
        <ele>282</ele>
        <time>2023-09-07T09:37:11Z</time>
      </trkpt>
      <trkpt lat="44.42694" lon="1.47551">
        <ele>282.1</ele>
        <time>2023-09-07T09:37:15Z</time>
      </trkpt>
      <trkpt lat="44.4269" lon="1.47556">
        <ele>282</ele>
        <time>2023-09-07T09:37:19Z</time>
      </trkpt>
      <trkpt lat="44.42687" lon="1.47561">
        <ele>282.2</ele>
        <time>2023-09-07T09:37:23Z</time>
      </trkpt>
      <trkpt lat="44.42683" lon="1.47565">
        <ele>281.5</ele>
        <time>2023-09-07T09:37:27Z</time>
      </trkpt>
      <trkpt lat="44.4268" lon="1.47569">
        <ele>281.2</ele>
        <time>2023-09-07T09:37:31Z</time>
      </trkpt>
      <trkpt lat="44.42675" lon="1.47574">
        <ele>281</ele>
        <time>2023-09-07T09:37:36Z</time>
      </trkpt>
      <trkpt lat="44.42672" lon="1.47579">
        <ele>280.9</ele>
        <time>2023-09-07T09:37:40Z</time>
      </trkpt>
      <trkpt lat="44.42668" lon="1.47584">
        <ele>280.6</ele>
        <time>2023-09-07T09:37:45Z</time>
      </trkpt>
      <trkpt lat="44.42664" lon="1.47588">
        <ele>280.7</ele>
        <time>2023-09-07T09:37:49Z</time>
      </trkpt>
      <trkpt lat="44.42661" lon="1.47593">
        <ele>281</ele>
        <time>2023-09-07T09:37:53Z</time>
      </trkpt>
      <trkpt lat="44.42658" lon="1.47598">
        <ele>280.7</ele>
        <time>2023-09-07T09:37:57Z</time>
      </trkpt>
      <trkpt lat="44.42655" lon="1.47603">
        <ele>280.6</ele>
        <time>2023-09-07T09:38:01Z</time>
      </trkpt>
      <trkpt lat="44.42652" lon="1.47609">
        <ele>280.4</ele>
        <time>2023-09-07T09:38:06Z</time>
      </trkpt>
      <trkpt lat="44.42649" lon="1.47614">
        <ele>279.9</ele>
        <time>2023-09-07T09:38:10Z</time>
      </trkpt>
      <trkpt lat="44.42645" lon="1.47619">
        <ele>279.1</ele>
        <time>2023-09-07T09:38:15Z</time>
      </trkpt>
      <trkpt lat="44.42641" lon="1.47624">
        <ele>278.5</ele>
        <time>2023-09-07T09:38:20Z</time>
      </trkpt>
      <trkpt lat="44.4264" lon="1.47631">
        <ele>281.7</ele>
        <time>2023-09-07T09:40:31Z</time>
      </trkpt>
      <trkpt lat="44.42638" lon="1.47636">
        <ele>281.7</ele>
        <time>2023-09-07T09:40:35Z</time>
      </trkpt>
      <trkpt lat="44.42634" lon="1.47642">
        <ele>281.5</ele>
        <time>2023-09-07T09:40:40Z</time>
      </trkpt>
      <trkpt lat="44.42632" lon="1.47648">
        <ele>276.3</ele>
        <time>2023-09-07T09:40:52Z</time>
      </trkpt>
      <trkpt lat="44.4263" lon="1.47654">
        <ele>276.8</ele>
        <time>2023-09-07T09:40:58Z</time>
      </trkpt>
      <trkpt lat="44.42627" lon="1.4766">
        <ele>277.4</ele>
        <time>2023-09-07T09:41:03Z</time>
      </trkpt>
      <trkpt lat="44.42625" lon="1.47667">
        <ele>279.2</ele>
        <time>2023-09-07T09:41:08Z</time>
      </trkpt>
      <trkpt lat="44.42623" lon="1.47673">
        <ele>279.7</ele>
        <time>2023-09-07T09:41:13Z</time>
      </trkpt>
      <trkpt lat="44.4262" lon="1.47679">
        <ele>280.4</ele>
        <time>2023-09-07T09:41:18Z</time>
      </trkpt>
      <trkpt lat="44.42619" lon="1.47685">
        <ele>281.1</ele>
        <time>2023-09-07T09:41:22Z</time>
      </trkpt>
      <trkpt lat="44.42616" lon="1.47691">
        <ele>281.4</ele>
        <time>2023-09-07T09:41:27Z</time>
      </trkpt>
      <trkpt lat="44.42615" lon="1.47698">
        <ele>281.5</ele>
        <time>2023-09-07T09:41:32Z</time>
      </trkpt>
      <trkpt lat="44.42613" lon="1.47704">
        <ele>281.9</ele>
        <time>2023-09-07T09:41:37Z</time>
      </trkpt>
      <trkpt lat="44.42611" lon="1.47711">
        <ele>281.2</ele>
        <time>2023-09-07T09:41:42Z</time>
      </trkpt>
      <trkpt lat="44.42609" lon="1.47718">
        <ele>280.9</ele>
        <time>2023-09-07T09:41:47Z</time>
      </trkpt>
      <trkpt lat="44.42607" lon="1.47725">
        <ele>280.2</ele>
        <time>2023-09-07T09:41:52Z</time>
      </trkpt>
      <trkpt lat="44.42605" lon="1.47731">
        <ele>280.1</ele>
        <time>2023-09-07T09:41:56Z</time>
      </trkpt>
      <trkpt lat="44.42603" lon="1.47737">
        <ele>279.8</ele>
        <time>2023-09-07T09:42:00Z</time>
      </trkpt>
      <trkpt lat="44.42602" lon="1.47744">
        <ele>279.5</ele>
        <time>2023-09-07T09:42:04Z</time>
      </trkpt>
      <trkpt lat="44.42601" lon="1.4775">
        <ele>280.4</ele>
        <time>2023-09-07T09:42:08Z</time>
      </trkpt>
      <trkpt lat="44.42599" lon="1.47757">
        <ele>280.6</ele>
        <time>2023-09-07T09:42:13Z</time>
      </trkpt>
      <trkpt lat="44.42596" lon="1.47763">
        <ele>280.1</ele>
        <time>2023-09-07T09:42:18Z</time>
      </trkpt>
      <trkpt lat="44.42594" lon="1.4777">
        <ele>280.1</ele>
        <time>2023-09-07T09:42:23Z</time>
      </trkpt>
      <trkpt lat="44.42593" lon="1.47776">
        <ele>279.8</ele>
        <time>2023-09-07T09:42:27Z</time>
      </trkpt>
      <trkpt lat="44.42591" lon="1.47784">
        <ele>280.1</ele>
        <time>2023-09-07T09:42:32Z</time>
      </trkpt>
      <trkpt lat="44.4259" lon="1.4779">
        <ele>280.6</ele>
        <time>2023-09-07T09:42:36Z</time>
      </trkpt>
      <trkpt lat="44.42589" lon="1.47797">
        <ele>280.8</ele>
        <time>2023-09-07T09:42:41Z</time>
      </trkpt>
      <trkpt lat="44.42588" lon="1.47803">
        <ele>281</ele>
        <time>2023-09-07T09:42:45Z</time>
      </trkpt>
      <trkpt lat="44.42585" lon="1.4781">
        <ele>281.2</ele>
        <time>2023-09-07T09:42:50Z</time>
      </trkpt>
      <trkpt lat="44.42583" lon="1.47817">
        <ele>281.1</ele>
        <time>2023-09-07T09:42:55Z</time>
      </trkpt>
      <trkpt lat="44.4258" lon="1.47822">
        <ele>280.7</ele>
        <time>2023-09-07T09:43:00Z</time>
      </trkpt>
      <trkpt lat="44.42578" lon="1.47829">
        <ele>280.6</ele>
        <time>2023-09-07T09:43:05Z</time>
      </trkpt>
      <trkpt lat="44.42575" lon="1.47835">
        <ele>281.2</ele>
        <time>2023-09-07T09:43:10Z</time>
      </trkpt>
      <trkpt lat="44.42572" lon="1.47841">
        <ele>281.9</ele>
        <time>2023-09-07T09:43:15Z</time>
      </trkpt>
      <trkpt lat="44.42569" lon="1.47848">
        <ele>281.8</ele>
        <time>2023-09-07T09:43:20Z</time>
      </trkpt>
      <trkpt lat="44.42566" lon="1.47853">
        <ele>282.3</ele>
        <time>2023-09-07T09:43:24Z</time>
      </trkpt>
      <trkpt lat="44.42563" lon="1.47859">
        <ele>282.7</ele>
        <time>2023-09-07T09:43:29Z</time>
      </trkpt>
      <trkpt lat="44.4256" lon="1.47865">
        <ele>282.9</ele>
        <time>2023-09-07T09:43:34Z</time>
      </trkpt>
      <trkpt lat="44.42557" lon="1.4787">
        <ele>282.8</ele>
        <time>2023-09-07T09:43:39Z</time>
      </trkpt>
      <trkpt lat="44.42553" lon="1.47876">
        <ele>282.9</ele>
        <time>2023-09-07T09:43:44Z</time>
      </trkpt>
      <trkpt lat="44.42551" lon="1.47882">
        <ele>283.1</ele>
        <time>2023-09-07T09:43:49Z</time>
      </trkpt>
      <trkpt lat="44.42548" lon="1.47888">
        <ele>282.5</ele>
        <time>2023-09-07T09:43:54Z</time>
      </trkpt>
      <trkpt lat="44.42545" lon="1.47895">
        <ele>281.8</ele>
        <time>2023-09-07T09:43:59Z</time>
      </trkpt>
      <trkpt lat="44.42543" lon="1.47903">
        <ele>281.9</ele>
        <time>2023-09-07T09:44:04Z</time>
      </trkpt>
      <trkpt lat="44.42542" lon="1.4791">
        <ele>282.4</ele>
        <time>2023-09-07T09:44:09Z</time>
      </trkpt>
      <trkpt lat="44.4254" lon="1.47916">
        <ele>282.4</ele>
        <time>2023-09-07T09:44:13Z</time>
      </trkpt>
      <trkpt lat="44.42538" lon="1.47923">
        <ele>282.4</ele>
        <time>2023-09-07T09:44:18Z</time>
      </trkpt>
      <trkpt lat="44.42537" lon="1.4793">
        <ele>282</ele>
        <time>2023-09-07T09:44:23Z</time>
      </trkpt>
      <trkpt lat="44.42535" lon="1.47937">
        <ele>282.4</ele>
        <time>2023-09-07T09:44:28Z</time>
      </trkpt>
      <trkpt lat="44.42534" lon="1.47944">
        <ele>282.8</ele>
        <time>2023-09-07T09:44:32Z</time>
      </trkpt>
      <trkpt lat="44.42533" lon="1.4795">
        <ele>283.1</ele>
        <time>2023-09-07T09:44:36Z</time>
      </trkpt>
      <trkpt lat="44.42532" lon="1.47958">
        <ele>282.8</ele>
        <time>2023-09-07T09:44:41Z</time>
      </trkpt>
      <trkpt lat="44.4253" lon="1.47965">
        <ele>282.5</ele>
        <time>2023-09-07T09:44:46Z</time>
      </trkpt>
      <trkpt lat="44.42528" lon="1.47972">
        <ele>282.4</ele>
        <time>2023-09-07T09:44:51Z</time>
      </trkpt>
      <trkpt lat="44.42527" lon="1.47979">
        <ele>283</ele>
        <time>2023-09-07T09:44:55Z</time>
      </trkpt>
      <trkpt lat="44.42525" lon="1.47986">
        <ele>284.1</ele>
        <time>2023-09-07T09:44:59Z</time>
      </trkpt>
      <trkpt lat="44.42524" lon="1.47993">
        <ele>284.7</ele>
        <time>2023-09-07T09:45:04Z</time>
      </trkpt>
      <trkpt lat="44.42522" lon="1.48001">
        <ele>284.5</ele>
        <time>2023-09-07T09:45:08Z</time>
      </trkpt>
      <trkpt lat="44.4252" lon="1.48008">
        <ele>285.2</ele>
        <time>2023-09-07T09:45:13Z</time>
      </trkpt>
      <trkpt lat="44.42519" lon="1.48015">
        <ele>286.4</ele>
        <time>2023-09-07T09:45:18Z</time>
      </trkpt>
      <trkpt lat="44.42517" lon="1.48022">
        <ele>287</ele>
        <time>2023-09-07T09:45:23Z</time>
      </trkpt>
      <trkpt lat="44.42516" lon="1.48029">
        <ele>286.9</ele>
        <time>2023-09-07T09:45:27Z</time>
      </trkpt>
      <trkpt lat="44.42514" lon="1.48036">
        <ele>286.7</ele>
        <time>2023-09-07T09:45:32Z</time>
      </trkpt>
      <trkpt lat="44.42512" lon="1.48042">
        <ele>286.5</ele>
        <time>2023-09-07T09:45:37Z</time>
      </trkpt>
      <trkpt lat="44.4251" lon="1.48049">
        <ele>286.3</ele>
        <time>2023-09-07T09:45:42Z</time>
      </trkpt>
      <trkpt lat="44.4251" lon="1.48057">
        <ele>287.1</ele>
        <time>2023-09-07T09:45:47Z</time>
      </trkpt>
      <trkpt lat="44.42509" lon="1.48064">
        <ele>286.9</ele>
        <time>2023-09-07T09:45:52Z</time>
      </trkpt>
      <trkpt lat="44.42508" lon="1.48071">
        <ele>287.2</ele>
        <time>2023-09-07T09:45:57Z</time>
      </trkpt>
      <trkpt lat="44.42506" lon="1.48078">
        <ele>287.6</ele>
        <time>2023-09-07T09:46:02Z</time>
      </trkpt>
      <trkpt lat="44.42505" lon="1.48085">
        <ele>288.1</ele>
        <time>2023-09-07T09:46:06Z</time>
      </trkpt>
      <trkpt lat="44.42503" lon="1.48092">
        <ele>288.4</ele>
        <time>2023-09-07T09:46:11Z</time>
      </trkpt>
      <trkpt lat="44.42502" lon="1.481">
        <ele>288.6</ele>
        <time>2023-09-07T09:46:16Z</time>
      </trkpt>
      <trkpt lat="44.425" lon="1.48106">
        <ele>288.4</ele>
        <time>2023-09-07T09:46:20Z</time>
      </trkpt>
      <trkpt lat="44.42498" lon="1.48112">
        <ele>288.5</ele>
        <time>2023-09-07T09:46:25Z</time>
      </trkpt>
      <trkpt lat="44.42496" lon="1.48118">
        <ele>288.1</ele>
        <time>2023-09-07T09:46:29Z</time>
      </trkpt>
      <trkpt lat="44.42495" lon="1.48125">
        <ele>288</ele>
        <time>2023-09-07T09:46:34Z</time>
      </trkpt>
      <trkpt lat="44.42494" lon="1.48133">
        <ele>288.8</ele>
        <time>2023-09-07T09:46:39Z</time>
      </trkpt>
      <trkpt lat="44.42493" lon="1.48139">
        <ele>289.4</ele>
        <time>2023-09-07T09:46:43Z</time>
      </trkpt>
      <trkpt lat="44.42492" lon="1.48147">
        <ele>289.6</ele>
        <time>2023-09-07T09:46:47Z</time>
      </trkpt>
      <trkpt lat="44.42492" lon="1.48155">
        <ele>290.6</ele>
        <time>2023-09-07T09:46:52Z</time>
      </trkpt>
      <trkpt lat="44.42492" lon="1.48162">
        <ele>290.6</ele>
        <time>2023-09-07T09:46:57Z</time>
      </trkpt>
      <trkpt lat="44.42492" lon="1.48169">
        <ele>290.7</ele>
        <time>2023-09-07T09:47:02Z</time>
      </trkpt>
      <trkpt lat="44.42493" lon="1.48176">
        <ele>290.9</ele>
        <time>2023-09-07T09:47:07Z</time>
      </trkpt>
      <trkpt lat="44.42495" lon="1.48182">
        <ele>291.2</ele>
        <time>2023-09-07T09:47:12Z</time>
      </trkpt>
      <trkpt lat="44.42497" lon="1.48189">
        <ele>290.8</ele>
        <time>2023-09-07T09:47:17Z</time>
      </trkpt>
      <trkpt lat="44.42499" lon="1.48195">
        <ele>290.8</ele>
        <time>2023-09-07T09:47:21Z</time>
      </trkpt>
      <trkpt lat="44.42502" lon="1.482">
        <ele>291</ele>
        <time>2023-09-07T09:47:25Z</time>
      </trkpt>
      <trkpt lat="44.42505" lon="1.48206">
        <ele>290.7</ele>
        <time>2023-09-07T09:47:29Z</time>
      </trkpt>
      <trkpt lat="44.42508" lon="1.48212">
        <ele>290.4</ele>
        <time>2023-09-07T09:47:34Z</time>
      </trkpt>
      <trkpt lat="44.42512" lon="1.48217">
        <ele>290.2</ele>
        <time>2023-09-07T09:47:39Z</time>
      </trkpt>
      <trkpt lat="44.42515" lon="1.48221">
        <ele>289.5</ele>
        <time>2023-09-07T09:47:43Z</time>
      </trkpt>
      <trkpt lat="44.42519" lon="1.48225">
        <ele>289.3</ele>
        <time>2023-09-07T09:47:47Z</time>
      </trkpt>
      <trkpt lat="44.42523" lon="1.48229">
        <ele>289</ele>
        <time>2023-09-07T09:47:51Z</time>
      </trkpt>
      <trkpt lat="44.42527" lon="1.48233">
        <ele>290.2</ele>
        <time>2023-09-07T09:47:55Z</time>
      </trkpt>
      <trkpt lat="44.42533" lon="1.48235">
        <ele>290.8</ele>
        <time>2023-09-07T09:47:59Z</time>
      </trkpt>
      <trkpt lat="44.42538" lon="1.48234">
        <ele>292.5</ele>
        <time>2023-09-07T09:48:03Z</time>
      </trkpt>
      <trkpt lat="44.42543" lon="1.48237">
        <ele>293.2</ele>
        <time>2023-09-07T09:48:07Z</time>
      </trkpt>
      <trkpt lat="44.42547" lon="1.4824">
        <ele>293.7</ele>
        <time>2023-09-07T09:48:11Z</time>
      </trkpt>
      <trkpt lat="44.42551" lon="1.48244">
        <ele>293.7</ele>
        <time>2023-09-07T09:48:15Z</time>
      </trkpt>
      <trkpt lat="44.42555" lon="1.48246">
        <ele>294.2</ele>
        <time>2023-09-07T09:48:19Z</time>
      </trkpt>
      <trkpt lat="44.42559" lon="1.4825">
        <ele>293.5</ele>
        <time>2023-09-07T09:48:25Z</time>
      </trkpt>
      <trkpt lat="44.42564" lon="1.48254">
        <ele>292.5</ele>
        <time>2023-09-07T09:48:31Z</time>
      </trkpt>
      <trkpt lat="44.42569" lon="1.48257">
        <ele>292.9</ele>
        <time>2023-09-07T09:48:36Z</time>
      </trkpt>
      <trkpt lat="44.42574" lon="1.4826">
        <ele>294.9</ele>
        <time>2023-09-07T09:48:41Z</time>
      </trkpt>
      <trkpt lat="44.42579" lon="1.4826">
        <ele>296.7</ele>
        <time>2023-09-07T09:48:47Z</time>
      </trkpt>
      <trkpt lat="44.42583" lon="1.48265">
        <ele>296.7</ele>
        <time>2023-09-07T09:48:52Z</time>
      </trkpt>
      <trkpt lat="44.42586" lon="1.4827">
        <ele>296.2</ele>
        <time>2023-09-07T09:48:57Z</time>
      </trkpt>
      <trkpt lat="44.42591" lon="1.48274">
        <ele>296.2</ele>
        <time>2023-09-07T09:49:02Z</time>
      </trkpt>
      <trkpt lat="44.42595" lon="1.48279">
        <ele>296.1</ele>
        <time>2023-09-07T09:49:07Z</time>
      </trkpt>
      <trkpt lat="44.42599" lon="1.48283">
        <ele>295.9</ele>
        <time>2023-09-07T09:49:11Z</time>
      </trkpt>
      <trkpt lat="44.42604" lon="1.48283">
        <ele>294.9</ele>
        <time>2023-09-07T09:49:16Z</time>
      </trkpt>
      <trkpt lat="44.42608" lon="1.48281">
        <ele>295.3</ele>
        <time>2023-09-07T09:49:21Z</time>
      </trkpt>
      <trkpt lat="44.42612" lon="1.48278">
        <ele>295.3</ele>
        <time>2023-09-07T09:49:25Z</time>
      </trkpt>
      <trkpt lat="44.42617" lon="1.48275">
        <ele>294.3</ele>
        <time>2023-09-07T09:49:30Z</time>
      </trkpt>
      <trkpt lat="44.42622" lon="1.48273">
        <ele>293.7</ele>
        <time>2023-09-07T09:49:34Z</time>
      </trkpt>
      <trkpt lat="44.42627" lon="1.48271">
        <ele>293.1</ele>
        <time>2023-09-07T09:49:39Z</time>
      </trkpt>
      <trkpt lat="44.42632" lon="1.48267">
        <ele>292.1</ele>
        <time>2023-09-07T09:49:44Z</time>
      </trkpt>
      <trkpt lat="44.42637" lon="1.48264">
        <ele>292.3</ele>
        <time>2023-09-07T09:49:49Z</time>
      </trkpt>
      <trkpt lat="44.42642" lon="1.48262">
        <ele>292.7</ele>
        <time>2023-09-07T09:49:54Z</time>
      </trkpt>
      <trkpt lat="44.42646" lon="1.48258">
        <ele>294.6</ele>
        <time>2023-09-07T09:49:59Z</time>
      </trkpt>
      <trkpt lat="44.42651" lon="1.48254">
        <ele>294.7</ele>
        <time>2023-09-07T09:50:04Z</time>
      </trkpt>
      <trkpt lat="44.42656" lon="1.48252">
        <ele>293.5</ele>
        <time>2023-09-07T09:50:08Z</time>
      </trkpt>
      <trkpt lat="44.4266" lon="1.4825">
        <ele>294</ele>
        <time>2023-09-07T09:50:12Z</time>
      </trkpt>
      <trkpt lat="44.42664" lon="1.48247">
        <ele>294.5</ele>
        <time>2023-09-07T09:50:16Z</time>
      </trkpt>
      <trkpt lat="44.42669" lon="1.48246">
        <ele>293.7</ele>
        <time>2023-09-07T09:50:20Z</time>
      </trkpt>
      <trkpt lat="44.42673" lon="1.48242">
        <ele>294.2</ele>
        <time>2023-09-07T09:50:25Z</time>
      </trkpt>
      <trkpt lat="44.42678" lon="1.48238">
        <ele>295.1</ele>
        <time>2023-09-07T09:50:30Z</time>
      </trkpt>
      <trkpt lat="44.42681" lon="1.48234">
        <ele>295.3</ele>
        <time>2023-09-07T09:50:34Z</time>
      </trkpt>
      <trkpt lat="44.42686" lon="1.48232">
        <ele>295.2</ele>
        <time>2023-09-07T09:50:38Z</time>
      </trkpt>
      <trkpt lat="44.42691" lon="1.4823">
        <ele>295.7</ele>
        <time>2023-09-07T09:50:43Z</time>
      </trkpt>
      <trkpt lat="44.42696" lon="1.48226">
        <ele>295.2</ele>
        <time>2023-09-07T09:50:48Z</time>
      </trkpt>
      <trkpt lat="44.427" lon="1.48222">
        <ele>294.4</ele>
        <time>2023-09-07T09:50:53Z</time>
      </trkpt>
      <trkpt lat="44.42704" lon="1.48218">
        <ele>293.9</ele>
        <time>2023-09-07T09:50:57Z</time>
      </trkpt>
      <trkpt lat="44.42708" lon="1.48214">
        <ele>293.6</ele>
        <time>2023-09-07T09:51:02Z</time>
      </trkpt>
      <trkpt lat="44.42713" lon="1.4821">
        <ele>293.6</ele>
        <time>2023-09-07T09:51:06Z</time>
      </trkpt>
      <trkpt lat="44.42717" lon="1.48207">
        <ele>296</ele>
        <time>2023-09-07T09:51:10Z</time>
      </trkpt>
      <trkpt lat="44.42722" lon="1.48204">
        <ele>295.7</ele>
        <time>2023-09-07T09:51:15Z</time>
      </trkpt>
      <trkpt lat="44.42727" lon="1.48201">
        <ele>295</ele>
        <time>2023-09-07T09:51:20Z</time>
      </trkpt>
      <trkpt lat="44.42731" lon="1.48197">
        <ele>294.8</ele>
        <time>2023-09-07T09:51:25Z</time>
      </trkpt>
      <trkpt lat="44.42733" lon="1.48191">
        <ele>296.4</ele>
        <time>2023-09-07T09:51:31Z</time>
      </trkpt>
      <trkpt lat="44.42737" lon="1.48187">
        <ele>296.6</ele>
        <time>2023-09-07T09:51:36Z</time>
      </trkpt>
      <trkpt lat="44.42736" lon="1.4818">
        <ele>294.6</ele>
        <time>2023-09-07T09:51:43Z</time>
      </trkpt>
      <trkpt lat="44.4274" lon="1.48176">
        <ele>294.7</ele>
        <time>2023-09-07T09:51:50Z</time>
      </trkpt>
      <trkpt lat="44.42745" lon="1.48178">
        <ele>295.2</ele>
        <time>2023-09-07T09:51:54Z</time>
      </trkpt>
      <trkpt lat="44.4275" lon="1.48179">
        <ele>294.7</ele>
        <time>2023-09-07T09:51:58Z</time>
      </trkpt>
      <trkpt lat="44.42755" lon="1.48179">
        <ele>293.2</ele>
        <time>2023-09-07T09:52:03Z</time>
      </trkpt>
      <trkpt lat="44.42759" lon="1.48174">
        <ele>295.9</ele>
        <time>2023-09-07T09:52:27Z</time>
      </trkpt>
      <trkpt lat="44.42762" lon="1.48169">
        <ele>297</ele>
        <time>2023-09-07T09:52:31Z</time>
      </trkpt>
    </trkseg>
  </trk>
</gpx>